<?xml version='1.0' encoding='UTF-8'?><gpx version="1.1" creator="JPX - https://github.com/jenetics/jpx" xmlns="http://www.topografix.com/GPX/1/1"><trk><trkseg><trkpt lat="42.1610059" lon="13.6372831"><ele>1177.0</ele><time>2026-05-01T08:03:43.43Z</time></trkpt><trkpt lat="42.1609589" lon="13.6371942"><ele>1177.0</ele><time>2026-05-01T08:03:50.434Z</time></trkpt><trkpt lat="42.1609266" lon="13.6371104"><ele>1177.0</ele><time>2026-05-01T08:03:57.433Z</time></trkpt><trkpt lat="42.1608851" lon="13.6370382"><ele>1177.0</ele><time>2026-05-01T08:04:04.433Z</time></trkpt><trkpt lat="42.1608326" lon="13.6369753"><ele>1177.0</ele><time>2026-05-01T08:04:10.432Z</time></trkpt><trkpt lat="42.1608065" lon="13.6368957"><ele>1177.0</ele><time>2026-05-01T08:04:16.445Z</time></trkpt><trkpt lat="42.1607773" lon="13.6368101"><ele>1177.0</ele><time>2026-05-01T08:04:23.485Z</time></trkpt><trkpt lat="42.1607421" lon="13.6367256"><ele>1177.0</ele><time>2026-05-01T08:04:38.486Z</time></trkpt><trkpt lat="42.1607072" lon="13.6366407"><ele>1177.0</ele><time>2026-05-01T08:04:44.435Z</time></trkpt><trkpt lat="42.1606903" lon="13.6365485"><ele>1177.0</ele><time>2026-05-01T08:04:50.439Z</time></trkpt><trkpt lat="42.1606835" lon="13.636463"><ele>1177.0</ele><time>2026-05-01T08:04:56.474Z</time></trkpt><trkpt lat="42.1607567" lon="13.6364592"><ele>1177.0</ele><time>2026-05-01T08:05:03.433Z</time></trkpt><trkpt lat="42.1608143" lon="13.6365024"><ele>1177.0</ele><time>2026-05-01T08:05:09.448Z</time></trkpt><trkpt lat="42.1608735" lon="13.6365482"><ele>1177.0</ele><time>2026-05-01T08:05:16.432Z</time></trkpt><trkpt lat="42.1609343" lon="13.6365938"><ele>1177.0</ele><time>2026-05-01T08:05:23.364Z</time></trkpt><trkpt lat="42.1609979" lon="13.6366229"><ele>1177.0</ele><time>2026-05-01T08:05:30.407Z</time></trkpt><trkpt lat="42.1610585" lon="13.6366682"><ele>1177.0</ele><time>2026-05-01T08:05:38.434Z</time></trkpt><trkpt lat="42.1611254" lon="13.6366831"><ele>1177.0</ele><time>2026-05-01T08:05:50.432Z</time></trkpt><trkpt lat="42.1611841" lon="13.6367211"><ele>1177.0</ele><time>2026-05-01T08:05:56.429Z</time></trkpt><trkpt lat="42.1612421" lon="13.6367559"><ele>1177.0</ele><time>2026-05-01T08:06:03.53Z</time></trkpt><trkpt lat="42.1612714" lon="13.6368441"><ele>1177.0</ele><time>2026-05-01T08:06:15.434Z</time></trkpt><trkpt lat="42.1612988" lon="13.6369232"><ele>1177.0</ele><time>2026-05-01T08:06:22.467Z</time></trkpt><trkpt lat="42.1613513" lon="13.6369771"><ele>1177.0</ele><time>2026-05-01T08:06:30.435Z</time></trkpt><trkpt lat="42.1614104" lon="13.6370312"><ele>1177.0</ele><time>2026-05-01T08:06:38.458Z</time></trkpt><trkpt lat="42.1614737" lon="13.6370592"><ele>1177.0</ele><time>2026-05-01T08:06:45.434Z</time></trkpt><trkpt lat="42.1615343" lon="13.6370831"><ele>1177.0</ele><time>2026-05-01T08:06:51.434Z</time></trkpt><trkpt lat="42.1616032" lon="13.6370639"><ele>1177.0</ele><time>2026-05-01T08:06:58.407Z</time></trkpt><trkpt lat="42.1616606" lon="13.6370108"><ele>1177.0</ele><time>2026-05-01T08:07:06.434Z</time></trkpt><trkpt lat="42.1617243" lon="13.6369669"><ele>1176.142857142857</ele><time>2026-05-01T08:07:12.462Z</time></trkpt><trkpt lat="42.1617863" lon="13.6369426"><ele>1175.2857142857142</ele><time>2026-05-01T08:07:18.345Z</time></trkpt><trkpt lat="42.1618542" lon="13.6369331"><ele>1174.4285714285713</ele><time>2026-05-01T08:07:25.435Z</time></trkpt><trkpt lat="42.1618265" lon="13.6368351"><ele>1173.5714285714284</ele><time>2026-05-01T08:07:54.433Z</time></trkpt><trkpt lat="42.1618012" lon="13.6367554"><ele>1172.7142857142856</ele><time>2026-05-01T08:07:59.387Z</time></trkpt><trkpt lat="42.1618049" lon="13.6366618"><ele>1171.857142857143</ele><time>2026-05-01T08:08:05.455Z</time></trkpt><trkpt lat="42.1618147" lon="13.6365695"><ele>1171.0</ele><time>2026-05-01T08:08:12.433Z</time></trkpt><trkpt lat="42.1618457" lon="13.6364841"><ele>1171.0</ele><time>2026-05-01T08:08:19.435Z</time></trkpt><trkpt lat="42.1618544" lon="13.6363909"><ele>1171.0</ele><time>2026-05-01T08:08:28.487Z</time></trkpt><trkpt lat="42.1618701" lon="13.6362976"><ele>1171.0</ele><time>2026-05-01T08:08:37.438Z</time></trkpt><trkpt lat="42.1618652" lon="13.6362123"><ele>1171.0</ele><time>2026-05-01T08:08:45.431Z</time></trkpt><trkpt lat="42.1618668" lon="13.6361221"><ele>1171.0</ele><time>2026-05-01T08:08:53.431Z</time></trkpt><trkpt lat="42.1618965" lon="13.6360393"><ele>1171.0</ele><time>2026-05-01T08:11:07.433Z</time></trkpt><trkpt lat="42.161928" lon="13.635965"><ele>1171.0</ele><time>2026-05-01T08:11:14.437Z</time></trkpt><trkpt lat="42.161949" lon="13.6358765"><ele>1171.4285714285713</ele><time>2026-05-01T08:11:22.458Z</time></trkpt><trkpt lat="42.161977" lon="13.6357885"><ele>1171.8571428571427</ele><time>2026-05-01T08:11:30.35Z</time></trkpt><trkpt lat="42.1620038" lon="13.6356995"><ele>1172.2857142857142</ele><time>2026-05-01T08:11:38.473Z</time></trkpt><trkpt lat="42.1620187" lon="13.6356113"><ele>1172.7142857142858</ele><time>2026-05-01T08:11:45.432Z</time></trkpt><trkpt lat="42.1620579" lon="13.6355383"><ele>1173.1428571428573</ele><time>2026-05-01T08:11:53.215Z</time></trkpt><trkpt lat="42.1620952" lon="13.6354555"><ele>1173.5714285714287</ele><time>2026-05-01T08:12:00.438Z</time></trkpt><trkpt lat="42.1621314" lon="13.6353799"><ele>1174.0</ele><time>2026-05-01T08:12:06.433Z</time></trkpt><trkpt lat="42.1621635" lon="13.6353063"><ele>1174.5714285714287</ele><time>2026-05-01T08:12:12.466Z</time></trkpt><trkpt lat="42.1622073" lon="13.6352421"><ele>1175.1428571428573</ele><time>2026-05-01T08:12:19.455Z</time></trkpt><trkpt lat="42.1622573" lon="13.6351792"><ele>1175.7142857142858</ele><time>2026-05-01T08:12:27.451Z</time></trkpt><trkpt lat="42.1623058" lon="13.6351127"><ele>1176.2857142857142</ele><time>2026-05-01T08:12:50.429Z</time></trkpt><trkpt lat="42.1623842" lon="13.6351025"><ele>1176.8571428571427</ele><time>2026-05-01T08:13:03.491Z</time></trkpt><trkpt lat="42.1624458" lon="13.635079"><ele>1177.4285714285713</ele><time>2026-05-01T08:13:10.435Z</time></trkpt><trkpt lat="42.1624912" lon="13.6350161"><ele>1178.0</ele><time>2026-05-01T08:13:17.434Z</time></trkpt><trkpt lat="42.1625396" lon="13.6349567"><ele>1178.0</ele><time>2026-05-01T08:13:24.474Z</time></trkpt><trkpt lat="42.1626035" lon="13.6349225"><ele>1178.0</ele><time>2026-05-01T08:13:31.433Z</time></trkpt><trkpt lat="42.1626702" lon="13.634898"><ele>1178.0</ele><time>2026-05-01T08:13:38.454Z</time></trkpt><trkpt lat="42.1627314" lon="13.6348491"><ele>1178.0</ele><time>2026-05-01T08:13:46.432Z</time></trkpt><trkpt lat="42.1627965" lon="13.6348141"><ele>1178.0</ele><time>2026-05-01T08:13:53.439Z</time></trkpt><trkpt lat="42.1628632" lon="13.6348131"><ele>1178.0</ele><time>2026-05-01T08:14:00.432Z</time></trkpt><trkpt lat="42.1629243" lon="13.63478"><ele>1178.0</ele><time>2026-05-01T08:14:07.507Z</time></trkpt><trkpt lat="42.1629853" lon="13.6348038"><ele>1178.0</ele><time>2026-05-01T08:14:14.414Z</time></trkpt><trkpt lat="42.1630539" lon="13.6348099"><ele>1178.0</ele><time>2026-05-01T08:14:22.4Z</time></trkpt><trkpt lat="42.1631161" lon="13.6347655"><ele>1178.0</ele><time>2026-05-01T08:14:29.339Z</time></trkpt><trkpt lat="42.163181" lon="13.6347548"><ele>1178.0</ele><time>2026-05-01T08:14:35.431Z</time></trkpt><trkpt lat="42.1632428" lon="13.6348044"><ele>1178.0</ele><time>2026-05-01T08:14:54.433Z</time></trkpt><trkpt lat="42.1633045" lon="13.634849"><ele>1178.0</ele><time>2026-05-01T08:15:01.433Z</time></trkpt><trkpt lat="42.1633737" lon="13.6348318"><ele>1178.0</ele><time>2026-05-01T08:15:08.464Z</time></trkpt><trkpt lat="42.1634426" lon="13.6348223"><ele>1179.142857142857</ele><time>2026-05-01T08:15:15.434Z</time></trkpt><trkpt lat="42.163506" lon="13.6348326"><ele>1180.2857142857142</ele><time>2026-05-01T08:15:32.43Z</time></trkpt><trkpt lat="42.1635729" lon="13.6348415"><ele>1181.4285714285713</ele><time>2026-05-01T08:15:38.435Z</time></trkpt><trkpt lat="42.163641" lon="13.6348248"><ele>1182.5714285714284</ele><time>2026-05-01T08:15:45.431Z</time></trkpt><trkpt lat="42.1637108" lon="13.6348322"><ele>1183.7142857142858</ele><time>2026-05-01T08:15:52.431Z</time></trkpt><trkpt lat="42.1637754" lon="13.6348452"><ele>1184.8571428571427</ele><time>2026-05-01T08:15:58.417Z</time></trkpt><trkpt lat="42.1638389" lon="13.6348511"><ele>1186.0</ele><time>2026-05-01T08:16:05.436Z</time></trkpt><trkpt lat="42.163895" lon="13.6348914"><ele>1185.9999999999998</ele><time>2026-05-01T08:16:14.438Z</time></trkpt><trkpt lat="42.1638461" lon="13.634948"><ele>1186.0</ele><time>2026-05-01T08:16:22.433Z</time></trkpt><trkpt lat="42.1638705" lon="13.6350335"><ele>1186.0</ele><time>2026-05-01T08:16:30.436Z</time></trkpt><trkpt lat="42.1639354" lon="13.6350458"><ele>1186.0</ele><time>2026-05-01T08:16:36.463Z</time></trkpt><trkpt lat="42.1640036" lon="13.6350266"><ele>1186.0</ele><time>2026-05-01T08:16:42.434Z</time></trkpt><trkpt lat="42.1640671" lon="13.6350433"><ele>1185.9999999999998</ele><time>2026-05-01T08:16:49.436Z</time></trkpt><trkpt lat="42.1641344" lon="13.6350646"><ele>1186.0</ele><time>2026-05-01T08:16:57.433Z</time></trkpt><trkpt lat="42.1641987" lon="13.6350818"><ele>1185.8571428571427</ele><time>2026-05-01T08:17:04.433Z</time></trkpt><trkpt lat="42.1642589" lon="13.6351279"><ele>1185.7142857142858</ele><time>2026-05-01T08:17:11.462Z</time></trkpt><trkpt lat="42.1643098" lon="13.6351834"><ele>1185.5714285714284</ele><time>2026-05-01T08:17:18.377Z</time></trkpt><trkpt lat="42.1643572" lon="13.6352473"><ele>1185.4285714285713</ele><time>2026-05-01T08:17:25.458Z</time></trkpt><trkpt lat="42.1644076" lon="13.6353037"><ele>1185.2857142857142</ele><time>2026-05-01T08:17:33.417Z</time></trkpt><trkpt lat="42.1644614" lon="13.6353521"><ele>1185.142857142857</ele><time>2026-05-01T08:17:41.337Z</time></trkpt><trkpt lat="42.1644947" lon="13.6354275"><ele>1185.0</ele><time>2026-05-01T08:17:48.47Z</time></trkpt><trkpt lat="42.1645194" lon="13.6355104"><ele>1187.7142857142858</ele><time>2026-05-01T08:17:57.434Z</time></trkpt><trkpt lat="42.1645782" lon="13.635459"><ele>1190.4285714285713</ele><time>2026-05-01T08:18:08.435Z</time></trkpt><trkpt lat="42.164649" lon="13.6354672"><ele>1193.142857142857</ele><time>2026-05-01T08:18:15.437Z</time></trkpt><trkpt lat="42.1647032" lon="13.6355192"><ele>1195.857142857143</ele><time>2026-05-01T08:18:22.437Z</time></trkpt><trkpt lat="42.1647308" lon="13.6356051"><ele>1198.5714285714284</ele><time>2026-05-01T08:18:30.437Z</time></trkpt><trkpt lat="42.1647468" lon="13.6356912"><ele>1201.2857142857142</ele><time>2026-05-01T08:18:39.459Z</time></trkpt><trkpt lat="42.1647456" lon="13.635785"><ele>1204.0</ele><time>2026-05-01T08:18:48.434Z</time></trkpt><trkpt lat="42.1647218" lon="13.6358637"><ele>1204.0</ele><time>2026-05-01T08:18:55.45Z</time></trkpt><trkpt lat="42.1647232" lon="13.6359565"><ele>1204.0</ele><time>2026-05-01T08:19:02.432Z</time></trkpt><trkpt lat="42.1647619" lon="13.6360288"><ele>1204.0</ele><time>2026-05-01T08:19:08.438Z</time></trkpt><trkpt lat="42.1648063" lon="13.6360977"><ele>1204.0</ele><time>2026-05-01T08:19:16.468Z</time></trkpt><trkpt lat="42.1648701" lon="13.6361376"><ele>1204.0</ele><time>2026-05-01T08:19:23.434Z</time></trkpt><trkpt lat="42.1649366" lon="13.6361696"><ele>1204.0</ele><time>2026-05-01T08:19:30.448Z</time></trkpt><trkpt lat="42.1649998" lon="13.636164"><ele>1204.0</ele><time>2026-05-01T08:19:40.432Z</time></trkpt><trkpt lat="42.165064" lon="13.6361677"><ele>1203.0</ele><time>2026-05-01T08:19:56.434Z</time></trkpt><trkpt lat="42.1651236" lon="13.6361129"><ele>1202.0</ele><time>2026-05-01T08:20:01.435Z</time></trkpt><trkpt lat="42.1651665" lon="13.6360397"><ele>1201.0</ele><time>2026-05-01T08:20:07.458Z</time></trkpt><trkpt lat="42.1652004" lon="13.6359607"><ele>1200.0</ele><time>2026-05-01T08:20:12.434Z</time></trkpt><trkpt lat="42.1652505" lon="13.6358939"><ele>1199.0</ele><time>2026-05-01T08:20:20.433Z</time></trkpt><trkpt lat="42.1653083" lon="13.635844"><ele>1198.0</ele><time>2026-05-01T08:20:27.47Z</time></trkpt><trkpt lat="42.1653707" lon="13.6358117"><ele>1197.0</ele><time>2026-05-01T08:20:34.476Z</time></trkpt><trkpt lat="42.1654337" lon="13.6357879"><ele>1197.0</ele><time>2026-05-01T08:20:41.449Z</time></trkpt><trkpt lat="42.1654919" lon="13.6357519"><ele>1197.0</ele><time>2026-05-01T08:20:47.432Z</time></trkpt><trkpt lat="42.1655521" lon="13.6357158"><ele>1197.0</ele><time>2026-05-01T08:20:54.459Z</time></trkpt><trkpt lat="42.1656129" lon="13.6356895"><ele>1197.0</ele><time>2026-05-01T08:21:01.463Z</time></trkpt><trkpt lat="42.1656867" lon="13.6356738"><ele>1197.0</ele><time>2026-05-01T08:21:09.433Z</time></trkpt><trkpt lat="42.1657514" lon="13.6356315"><ele>1197.0</ele><time>2026-05-01T08:21:14.436Z</time></trkpt><trkpt lat="42.1657999" lon="13.635561"><ele>1197.0</ele><time>2026-05-01T08:21:21.475Z</time></trkpt><trkpt lat="42.1658627" lon="13.6355254"><ele>1196.0</ele><time>2026-05-01T08:21:28.484Z</time></trkpt><trkpt lat="42.1659285" lon="13.6354916"><ele>1195.0</ele><time>2026-05-01T08:21:35.456Z</time></trkpt><trkpt lat="42.1659911" lon="13.6354532"><ele>1194.0</ele><time>2026-05-01T08:21:43.433Z</time></trkpt><trkpt lat="42.1660394" lon="13.635393"><ele>1193.0</ele><time>2026-05-01T08:21:50.44Z</time></trkpt><trkpt lat="42.1660985" lon="13.6353317"><ele>1192.0</ele><time>2026-05-01T08:21:57.495Z</time></trkpt><trkpt lat="42.1661531" lon="13.6352816"><ele>1191.0</ele><time>2026-05-01T08:22:03.438Z</time></trkpt><trkpt lat="42.1662118" lon="13.6352449"><ele>1190.0</ele><time>2026-05-01T08:22:10.453Z</time></trkpt><trkpt lat="42.1662721" lon="13.6352044"><ele>1190.0</ele><time>2026-05-01T08:22:17.436Z</time></trkpt><trkpt lat="42.1663298" lon="13.6351668"><ele>1190.0</ele><time>2026-05-01T08:22:24.401Z</time></trkpt><trkpt lat="42.1663731" lon="13.6351005"><ele>1190.0</ele><time>2026-05-01T08:22:31.471Z</time></trkpt><trkpt lat="42.1664111" lon="13.6350303"><ele>1190.0</ele><time>2026-05-01T08:22:39.374Z</time></trkpt><trkpt lat="42.1664692" lon="13.6349775"><ele>1190.0</ele><time>2026-05-01T08:22:46.456Z</time></trkpt><trkpt lat="42.1665214" lon="13.634909"><ele>1190.0</ele><time>2026-05-01T08:22:54.432Z</time></trkpt><trkpt lat="42.1665732" lon="13.634853"><ele>1190.0</ele><time>2026-05-01T08:23:00.434Z</time></trkpt><trkpt lat="42.16662" lon="13.6347903"><ele>1189.857142857143</ele><time>2026-05-01T08:23:06.47Z</time></trkpt><trkpt lat="42.166666" lon="13.6347298"><ele>1189.7142857142858</ele><time>2026-05-01T08:23:12.436Z</time></trkpt><trkpt lat="42.166709" lon="13.6346638"><ele>1189.5714285714284</ele><time>2026-05-01T08:23:19.379Z</time></trkpt><trkpt lat="42.1667542" lon="13.6345943"><ele>1189.4285714285716</ele><time>2026-05-01T08:23:26.483Z</time></trkpt><trkpt lat="42.1668096" lon="13.6345381"><ele>1189.2857142857142</ele><time>2026-05-01T08:23:33.433Z</time></trkpt><trkpt lat="42.1668681" lon="13.6344789"><ele>1189.142857142857</ele><time>2026-05-01T08:24:35.472Z</time></trkpt><trkpt lat="42.166924" lon="13.6344289"><ele>1189.0</ele><time>2026-05-01T08:24:41.437Z</time></trkpt><trkpt lat="42.1669842" lon="13.634393"><ele>1189.0</ele><time>2026-05-01T08:24:47.439Z</time></trkpt><trkpt lat="42.1670411" lon="13.6343405"><ele>1189.0</ele><time>2026-05-01T08:24:55.433Z</time></trkpt><trkpt lat="42.1670891" lon="13.6342794"><ele>1189.0</ele><time>2026-05-01T08:25:03.436Z</time></trkpt><trkpt lat="42.1671426" lon="13.6342299"><ele>1189.0</ele><time>2026-05-01T08:25:17.341Z</time></trkpt><trkpt lat="42.1671786" lon="13.6341505"><ele>1189.0</ele><time>2026-05-01T08:25:22.437Z</time></trkpt><trkpt lat="42.1672342" lon="13.6341042"><ele>1189.0</ele><time>2026-05-01T08:25:27.465Z</time></trkpt><trkpt lat="42.167287" lon="13.6340496"><ele>1189.0</ele><time>2026-05-01T08:25:35.44Z</time></trkpt><trkpt lat="42.1673445" lon="13.6340144"><ele>1191.5714285714284</ele><time>2026-05-01T08:25:41.444Z</time></trkpt><trkpt lat="42.1674099" lon="13.6339855"><ele>1194.142857142857</ele><time>2026-05-01T08:25:48.484Z</time></trkpt><trkpt lat="42.1674739" lon="13.6339494"><ele>1196.7142857142858</ele><time>2026-05-01T08:26:02.507Z</time></trkpt><trkpt lat="42.1675344" lon="13.6339118"><ele>1199.2857142857142</ele><time>2026-05-01T08:26:07.437Z</time></trkpt><trkpt lat="42.1675924" lon="13.6338707"><ele>1201.857142857143</ele><time>2026-05-01T08:26:13.516Z</time></trkpt><trkpt lat="42.1676553" lon="13.633835"><ele>1204.4285714285713</ele><time>2026-05-01T08:26:20.465Z</time></trkpt><trkpt lat="42.1677097" lon="13.6337886"><ele>1207.0</ele><time>2026-05-01T08:26:27.359Z</time></trkpt><trkpt lat="42.1677695" lon="13.6337572"><ele>1206.9999999999998</ele><time>2026-05-01T08:26:44.438Z</time></trkpt><trkpt lat="42.1678347" lon="13.6337305"><ele>1207.0</ele><time>2026-05-01T08:26:50.434Z</time></trkpt><trkpt lat="42.1679032" lon="13.6336957"><ele>1207.0</ele><time>2026-05-01T08:26:56.417Z</time></trkpt><trkpt lat="42.1679734" lon="13.6337039"><ele>1207.0</ele><time>2026-05-01T08:27:30.415Z</time></trkpt><trkpt lat="42.1680394" lon="13.6337137"><ele>1207.0</ele><time>2026-05-01T08:27:37.456Z</time></trkpt><trkpt lat="42.1681059" lon="13.6337092"><ele>1206.9999999999998</ele><time>2026-05-01T08:27:43.38Z</time></trkpt><trkpt lat="42.1681689" lon="13.63369"><ele>1207.0</ele><time>2026-05-01T08:27:49.467Z</time></trkpt><trkpt lat="42.1682329" lon="13.6336554"><ele>1207.2857142857142</ele><time>2026-05-01T08:27:56.434Z</time></trkpt><trkpt lat="42.1682959" lon="13.6336492"><ele>1207.5714285714284</ele><time>2026-05-01T08:28:02.439Z</time></trkpt><trkpt lat="42.1683619" lon="13.6336488"><ele>1207.8571428571427</ele><time>2026-05-01T08:28:08.473Z</time></trkpt><trkpt lat="42.1684205" lon="13.6336139"><ele>1208.142857142857</ele><time>2026-05-01T08:28:14.434Z</time></trkpt><trkpt lat="42.16848" lon="13.6335744"><ele>1208.4285714285716</ele><time>2026-05-01T08:28:21.354Z</time></trkpt><trkpt lat="42.1685481" lon="13.6335608"><ele>1208.7142857142856</ele><time>2026-05-01T08:28:28.487Z</time></trkpt><trkpt lat="42.1686099" lon="13.633544"><ele>1209.0</ele><time>2026-05-01T08:28:35.517Z</time></trkpt><trkpt lat="42.1686782" lon="13.6335164"><ele>1209.0</ele><time>2026-05-01T08:28:44.476Z</time></trkpt><trkpt lat="42.1687496" lon="13.633488"><ele>1209.0</ele><time>2026-05-01T08:28:51.433Z</time></trkpt><trkpt lat="42.1688217" lon="13.6334817"><ele>1209.0</ele><time>2026-05-01T08:28:57.45Z</time></trkpt><trkpt lat="42.168888" lon="13.6334835"><ele>1209.0</ele><time>2026-05-01T08:29:03.483Z</time></trkpt><trkpt lat="42.1689526" lon="13.6334766"><ele>1209.0</ele><time>2026-05-01T08:29:10.435Z</time></trkpt><trkpt lat="42.1690168" lon="13.6334605"><ele>1209.0</ele><time>2026-05-01T08:29:16.456Z</time></trkpt><trkpt lat="42.1690759" lon="13.6334183"><ele>1209.0</ele><time>2026-05-01T08:29:23.394Z</time></trkpt><trkpt lat="42.1691412" lon="13.6333822"><ele>1209.2857142857142</ele><time>2026-05-01T08:29:30.439Z</time></trkpt><trkpt lat="42.1692051" lon="13.6333496"><ele>1209.5714285714287</ele><time>2026-05-01T08:29:37.474Z</time></trkpt><trkpt lat="42.1692666" lon="13.6333081"><ele>1209.857142857143</ele><time>2026-05-01T08:29:56.439Z</time></trkpt><trkpt lat="42.1693357" lon="13.6332906"><ele>1210.142857142857</ele><time>2026-05-01T08:30:02.434Z</time></trkpt><trkpt lat="42.1693962" lon="13.6332612"><ele>1210.4285714285716</ele><time>2026-05-01T08:30:09.361Z</time></trkpt><trkpt lat="42.1694591" lon="13.6332318"><ele>1210.7142857142858</ele><time>2026-05-01T08:30:18.439Z</time></trkpt><trkpt lat="42.1695279" lon="13.6332335"><ele>1211.0</ele><time>2026-05-01T08:30:25.361Z</time></trkpt><trkpt lat="42.1695935" lon="13.6332533"><ele>1211.0</ele><time>2026-05-01T08:30:33.489Z</time></trkpt><trkpt lat="42.1696558" lon="13.6332239"><ele>1211.0</ele><time>2026-05-01T08:30:40.439Z</time></trkpt><trkpt lat="42.1697201" lon="13.6332003"><ele>1211.0</ele><time>2026-05-01T08:30:47.416Z</time></trkpt><trkpt lat="42.1697869" lon="13.6331982"><ele>1211.0</ele><time>2026-05-01T08:30:53.457Z</time></trkpt><trkpt lat="42.1698559" lon="13.6331951"><ele>1211.0</ele><time>2026-05-01T08:31:00.44Z</time></trkpt><trkpt lat="42.1699201" lon="13.6331965"><ele>1211.0</ele><time>2026-05-01T08:31:07.481Z</time></trkpt><trkpt lat="42.169988" lon="13.6331995"><ele>1211.0</ele><time>2026-05-01T08:31:14.442Z</time></trkpt><trkpt lat="42.1700512" lon="13.6331871"><ele>1212.2857142857142</ele><time>2026-05-01T08:31:20.453Z</time></trkpt><trkpt lat="42.1701162" lon="13.633155"><ele>1213.5714285714284</ele><time>2026-05-01T08:31:27.435Z</time></trkpt><trkpt lat="42.1701809" lon="13.6331366"><ele>1214.857142857143</ele><time>2026-05-01T08:31:35.441Z</time></trkpt><trkpt lat="42.1702471" lon="13.6330999"><ele>1216.142857142857</ele><time>2026-05-01T08:31:48.438Z</time></trkpt><trkpt lat="42.1703065" lon="13.6330506"><ele>1217.4285714285713</ele><time>2026-05-01T08:31:55.45Z</time></trkpt><trkpt lat="42.1703689" lon="13.6330237"><ele>1218.7142857142858</ele><time>2026-05-01T08:32:01.44Z</time></trkpt><trkpt lat="42.1704215" lon="13.6329682"><ele>1220.0</ele><time>2026-05-01T08:32:08.436Z</time></trkpt><trkpt lat="42.1704864" lon="13.6329779"><ele>1220.0</ele><time>2026-05-01T08:32:14.456Z</time></trkpt><trkpt lat="42.17055" lon="13.6329532"><ele>1220.0</ele><time>2026-05-01T08:32:19.484Z</time></trkpt><trkpt lat="42.1706194" lon="13.6329204"><ele>1220.0</ele><time>2026-05-01T08:32:26.436Z</time></trkpt><trkpt lat="42.1706775" lon="13.6328861"><ele>1220.0</ele><time>2026-05-01T08:32:33.463Z</time></trkpt><trkpt lat="42.1707164" lon="13.6328037"><ele>1220.0</ele><time>2026-05-01T08:32:41.436Z</time></trkpt><trkpt lat="42.1707798" lon="13.6327619"><ele>1220.0</ele><time>2026-05-01T08:32:47.459Z</time></trkpt><trkpt lat="42.1708476" lon="13.6327399"><ele>1220.0</ele><time>2026-05-01T08:32:54.443Z</time></trkpt><trkpt lat="42.1709118" lon="13.6327002"><ele>1220.5714285714287</ele><time>2026-05-01T08:33:01.438Z</time></trkpt><trkpt lat="42.1709709" lon="13.6326498"><ele>1221.142857142857</ele><time>2026-05-01T08:33:08.459Z</time></trkpt><trkpt lat="42.1710399" lon="13.6326337"><ele>1221.7142857142858</ele><time>2026-05-01T08:33:15.5Z</time></trkpt><trkpt lat="42.1711083" lon="13.6326485"><ele>1222.2857142857142</ele><time>2026-05-01T08:33:24.449Z</time></trkpt><trkpt lat="42.1711543" lon="13.6327068"><ele>1222.857142857143</ele><time>2026-05-01T08:33:32.435Z</time></trkpt><trkpt lat="42.1711878" lon="13.6327871"><ele>1223.4285714285713</ele><time>2026-05-01T08:33:57.435Z</time></trkpt><trkpt lat="42.1712096" lon="13.6328728"><ele>1224.0</ele><time>2026-05-01T08:34:06.435Z</time></trkpt><trkpt lat="42.1712548" lon="13.6329406"><ele>1224.0</ele><time>2026-05-01T08:35:02.439Z</time></trkpt><trkpt lat="42.1713124" lon="13.6329763"><ele>1224.0</ele><time>2026-05-01T08:35:10.434Z</time></trkpt><trkpt lat="42.1713847" lon="13.6329795"><ele>1224.0</ele><time>2026-05-01T08:35:17.436Z</time></trkpt><trkpt lat="42.1714504" lon="13.6330032"><ele>1224.0</ele><time>2026-05-01T08:35:25.334Z</time></trkpt><trkpt lat="42.1715104" lon="13.6330343"><ele>1224.0</ele><time>2026-05-01T08:35:32.435Z</time></trkpt><trkpt lat="42.1715882" lon="13.6330252"><ele>1224.0</ele><time>2026-05-01T08:35:48.334Z</time></trkpt><trkpt lat="42.1716476" lon="13.6329953"><ele>1224.0</ele><time>2026-05-01T08:35:53.433Z</time></trkpt><trkpt lat="42.1717143" lon="13.6330084"><ele>1221.142857142857</ele><time>2026-05-01T08:36:01.444Z</time></trkpt><trkpt lat="42.1717663" lon="13.6330576"><ele>1218.2857142857142</ele><time>2026-05-01T08:36:10.396Z</time></trkpt><trkpt lat="42.171773" lon="13.6331468"><ele>1215.4285714285716</ele><time>2026-05-01T08:36:18.492Z</time></trkpt><trkpt lat="42.1717808" lon="13.6332338"><ele>1212.5714285714284</ele><time>2026-05-01T08:36:26.437Z</time></trkpt><trkpt lat="42.1717826" lon="13.6333193"><ele>1209.7142857142858</ele><time>2026-05-01T08:36:34.36Z</time></trkpt><trkpt lat="42.1717849" lon="13.6334086"><ele>1206.857142857143</ele><time>2026-05-01T08:36:40.447Z</time></trkpt><trkpt lat="42.1717987" lon="13.6334964"><ele>1204.0</ele><time>2026-05-01T08:36:47.441Z</time></trkpt><trkpt lat="42.1718139" lon="13.6335888"><ele>1203.142857142857</ele><time>2026-05-01T08:36:55.439Z</time></trkpt><trkpt lat="42.171809" lon="13.633675"><ele>1202.2857142857142</ele><time>2026-05-01T08:37:04.482Z</time></trkpt><trkpt lat="42.1717978" lon="13.6337603"><ele>1201.4285714285716</ele><time>2026-05-01T08:37:12.415Z</time></trkpt><trkpt lat="42.171781" lon="13.6338496"><ele>1200.5714285714284</ele><time>2026-05-01T08:37:20.471Z</time></trkpt><trkpt lat="42.1717573" lon="13.6339292"><ele>1199.7142857142858</ele><time>2026-05-01T08:37:28.442Z</time></trkpt><trkpt lat="42.1717275" lon="13.634008"><ele>1198.857142857143</ele><time>2026-05-01T08:37:36.46Z</time></trkpt><trkpt lat="42.1717008" lon="13.6340956"><ele>1198.0</ele><time>2026-05-01T08:38:16.485Z</time></trkpt><trkpt lat="42.1716683" lon="13.6341739"><ele>1198.0</ele><time>2026-05-01T08:38:24.439Z</time></trkpt><trkpt lat="42.1716673" lon="13.6342673"><ele>1198.0</ele><time>2026-05-01T08:38:31.497Z</time></trkpt><trkpt lat="42.1716567" lon="13.6343539"><ele>1198.0</ele><time>2026-05-01T08:38:39.519Z</time></trkpt><trkpt lat="42.1716267" lon="13.6344345"><ele>1198.0</ele><time>2026-05-01T08:38:46.361Z</time></trkpt><trkpt lat="42.1716118" lon="13.6345229"><ele>1198.0</ele><time>2026-05-01T08:38:52.474Z</time></trkpt><trkpt lat="42.1715806" lon="13.6346055"><ele>1198.0</ele><time>2026-05-01T08:39:00.44Z</time></trkpt><trkpt lat="42.1715584" lon="13.6346899"><ele>1198.0</ele><time>2026-05-01T08:39:08.491Z</time></trkpt><trkpt lat="42.171553" lon="13.634788"><ele>1196.857142857143</ele><time>2026-05-01T08:39:15.435Z</time></trkpt><trkpt lat="42.1715547" lon="13.6348831"><ele>1195.7142857142858</ele><time>2026-05-01T08:39:23.435Z</time></trkpt><trkpt lat="42.1715635" lon="13.6349776"><ele>1194.5714285714284</ele><time>2026-05-01T08:39:31.381Z</time></trkpt><trkpt lat="42.1715702" lon="13.635067"><ele>1193.4285714285716</ele><time>2026-05-01T08:39:38.443Z</time></trkpt><trkpt lat="42.171581" lon="13.6351599"><ele>1192.2857142857142</ele><time>2026-05-01T08:39:45.46Z</time></trkpt><trkpt lat="42.1715792" lon="13.6352549"><ele>1191.142857142857</ele><time>2026-05-01T08:39:53.438Z</time></trkpt><trkpt lat="42.1715688" lon="13.6353499"><ele>1190.0</ele><time>2026-05-01T08:40:00.465Z</time></trkpt><trkpt lat="42.1715504" lon="13.6354413"><ele>1189.0</ele><time>2026-05-01T08:40:07.473Z</time></trkpt><trkpt lat="42.1715367" lon="13.6355299"><ele>1188.0</ele><time>2026-05-01T08:40:14.445Z</time></trkpt><trkpt lat="42.1715421" lon="13.6356205"><ele>1187.0</ele><time>2026-05-01T08:40:21.487Z</time></trkpt><trkpt lat="42.1715474" lon="13.6357148"><ele>1186.0</ele><time>2026-05-01T08:40:28.439Z</time></trkpt><trkpt lat="42.1715505" lon="13.6358028"><ele>1185.0</ele><time>2026-05-01T08:40:35.461Z</time></trkpt><trkpt lat="42.1715317" lon="13.6358976"><ele>1184.0</ele><time>2026-05-01T08:40:42.5Z</time></trkpt><trkpt lat="42.1715182" lon="13.6359816"><ele>1183.0</ele><time>2026-05-01T08:40:48.44Z</time></trkpt><trkpt lat="42.1715175" lon="13.6360666"><ele>1188.7142857142858</ele><time>2026-05-01T08:40:54.467Z</time></trkpt><trkpt lat="42.1715102" lon="13.6361534"><ele>1194.4285714285716</ele><time>2026-05-01T08:41:00.437Z</time></trkpt><trkpt lat="42.1715015" lon="13.6362436"><ele>1200.142857142857</ele><time>2026-05-01T08:41:07.44Z</time></trkpt><trkpt lat="42.1714834" lon="13.636327"><ele>1205.857142857143</ele><time>2026-05-01T08:41:14.436Z</time></trkpt><trkpt lat="42.1714705" lon="13.6364114"><ele>1211.5714285714287</ele><time>2026-05-01T08:41:21.436Z</time></trkpt><trkpt lat="42.1714677" lon="13.6365044"><ele>1217.2857142857142</ele><time>2026-05-01T08:41:29.458Z</time></trkpt><trkpt lat="42.1714808" lon="13.6365985"><ele>1223.0</ele><time>2026-05-01T08:41:36.438Z</time></trkpt><trkpt lat="42.1715065" lon="13.6366868"><ele>1217.857142857143</ele><time>2026-05-01T08:41:44.353Z</time></trkpt><trkpt lat="42.1715306" lon="13.6367714"><ele>1212.7142857142858</ele><time>2026-05-01T08:42:06.469Z</time></trkpt><trkpt lat="42.1715888" lon="13.6368146"><ele>1207.5714285714287</ele><time>2026-05-01T08:42:12.418Z</time></trkpt><trkpt lat="42.1716191" lon="13.6368896"><ele>1202.4285714285716</ele><time>2026-05-01T08:42:22.395Z</time></trkpt><trkpt lat="42.1716923" lon="13.6368895"><ele>1197.2857142857142</ele><time>2026-05-01T08:42:28.492Z</time></trkpt><trkpt lat="42.1717548" lon="13.6368389"><ele>1192.1428571428573</ele><time>2026-05-01T08:42:33.437Z</time></trkpt><trkpt lat="42.1718273" lon="13.6368434"><ele>1187.0</ele><time>2026-05-01T08:42:40.46Z</time></trkpt><trkpt lat="42.1719088" lon="13.6368619"><ele>1187.0000000000002</ele><time>2026-05-01T08:42:45.441Z</time></trkpt><trkpt lat="42.1719786" lon="13.6368682"><ele>1187.0</ele><time>2026-05-01T08:42:49.441Z</time></trkpt><trkpt lat="42.1720427" lon="13.6368574"><ele>1187.0</ele><time>2026-05-01T08:42:54.439Z</time></trkpt><trkpt lat="42.1721062" lon="13.6368268"><ele>1187.0</ele><time>2026-05-01T08:43:00.47Z</time></trkpt><trkpt lat="42.1721728" lon="13.6368062"><ele>1187.0</ele><time>2026-05-01T08:43:07.439Z</time></trkpt><trkpt lat="42.1722353" lon="13.6367936"><ele>1187.0000000000002</ele><time>2026-05-01T08:43:14.485Z</time></trkpt><trkpt lat="42.1723099" lon="13.636791"><ele>1187.0</ele><time>2026-05-01T08:43:21.437Z</time></trkpt><trkpt lat="42.1723842" lon="13.6367856"><ele>1186.2857142857144</ele><time>2026-05-01T08:43:28.438Z</time></trkpt><trkpt lat="42.1724549" lon="13.6367713"><ele>1185.5714285714287</ele><time>2026-05-01T08:43:35.452Z</time></trkpt><trkpt lat="42.1725214" lon="13.6367446"><ele>1184.857142857143</ele><time>2026-05-01T08:43:42.435Z</time></trkpt><trkpt lat="42.17259" lon="13.6367276"><ele>1184.1428571428573</ele><time>2026-05-01T08:43:49.444Z</time></trkpt><trkpt lat="42.1726553" lon="13.6367113"><ele>1183.4285714285716</ele><time>2026-05-01T08:43:56.438Z</time></trkpt><trkpt lat="42.1727227" lon="13.6366804"><ele>1182.7142857142858</ele><time>2026-05-01T08:44:03.483Z</time></trkpt><trkpt lat="42.1727921" lon="13.6366677"><ele>1182.0</ele><time>2026-05-01T08:44:10.457Z</time></trkpt><trkpt lat="42.1728587" lon="13.6366598"><ele>1182.0</ele><time>2026-05-01T08:44:17.436Z</time></trkpt><trkpt lat="42.172924" lon="13.6366468"><ele>1182.0</ele><time>2026-05-01T08:44:24.439Z</time></trkpt><trkpt lat="42.1729881" lon="13.6366253"><ele>1182.0</ele><time>2026-05-01T08:44:31.493Z</time></trkpt><trkpt lat="42.1730531" lon="13.636605"><ele>1182.0</ele><time>2026-05-01T08:44:38.476Z</time></trkpt><trkpt lat="42.1731129" lon="13.6366332"><ele>1182.0</ele><time>2026-05-01T08:44:44.451Z</time></trkpt><trkpt lat="42.1731811" lon="13.6366553"><ele>1182.0</ele><time>2026-05-01T08:44:51.396Z</time></trkpt><trkpt lat="42.173233" lon="13.6367054"><ele>1182.0</ele><time>2026-05-01T08:44:59.438Z</time></trkpt><trkpt lat="42.1733075" lon="13.636702"><ele>1182.142857142857</ele><time>2026-05-01T08:45:06.482Z</time></trkpt><trkpt lat="42.1733624" lon="13.6367458"><ele>1182.2857142857142</ele><time>2026-05-01T08:45:13.437Z</time></trkpt><trkpt lat="42.1733539" lon="13.63683"><ele>1182.4285714285716</ele><time>2026-05-01T08:45:19.446Z</time></trkpt><trkpt lat="42.1733384" lon="13.6369238"><ele>1182.5714285714284</ele><time>2026-05-01T08:45:25.481Z</time></trkpt><trkpt lat="42.1733859" lon="13.6369827"><ele>1182.7142857142858</ele><time>2026-05-01T08:45:35.512Z</time></trkpt><trkpt lat="42.173452" lon="13.6369969"><ele>1182.857142857143</ele><time>2026-05-01T08:45:44.44Z</time></trkpt><trkpt lat="42.173504" lon="13.6370569"><ele>1183.0</ele><time>2026-05-01T08:45:52.442Z</time></trkpt><trkpt lat="42.1735764" lon="13.6370653"><ele>1184.4285714285713</ele><time>2026-05-01T08:46:00.394Z</time></trkpt><trkpt lat="42.1736411" lon="13.6370375"><ele>1185.857142857143</ele><time>2026-05-01T08:46:06.439Z</time></trkpt><trkpt lat="42.1736643" lon="13.6371205"><ele>1187.2857142857142</ele><time>2026-05-01T08:46:15.459Z</time></trkpt><trkpt lat="42.1736678" lon="13.637212"><ele>1188.7142857142858</ele><time>2026-05-01T08:46:22.442Z</time></trkpt><trkpt lat="42.1736644" lon="13.6373005"><ele>1190.142857142857</ele><time>2026-05-01T08:46:30.381Z</time></trkpt><trkpt lat="42.1736661" lon="13.6373906"><ele>1191.5714285714284</ele><time>2026-05-01T08:46:38.487Z</time></trkpt><trkpt lat="42.1736306" lon="13.6374722"><ele>1193.0</ele><time>2026-05-01T08:46:46.377Z</time></trkpt><trkpt lat="42.1736063" lon="13.6375612"><ele>1192.9999999999998</ele><time>2026-05-01T08:46:53.471Z</time></trkpt><trkpt lat="42.1736005" lon="13.6376523"><ele>1193.0</ele><time>2026-05-01T08:47:00.438Z</time></trkpt><trkpt lat="42.1736045" lon="13.6377399"><ele>1193.0</ele><time>2026-05-01T08:47:21.437Z</time></trkpt><trkpt lat="42.1736248" lon="13.6378314"><ele>1193.0</ele><time>2026-05-01T08:47:27.417Z</time></trkpt><trkpt lat="42.1736498" lon="13.637915"><ele>1193.0</ele><time>2026-05-01T08:47:34.44Z</time></trkpt><trkpt lat="42.1736794" lon="13.6379954"><ele>1192.9999999999998</ele><time>2026-05-01T08:47:40.442Z</time></trkpt><trkpt lat="42.1737309" lon="13.6380541"><ele>1193.0</ele><time>2026-05-01T08:47:46.466Z</time></trkpt><trkpt lat="42.1737865" lon="13.6381082"><ele>1192.5714285714284</ele><time>2026-05-01T08:47:52.5Z</time></trkpt><trkpt lat="42.1738462" lon="13.6381547"><ele>1192.142857142857</ele><time>2026-05-01T08:47:59.442Z</time></trkpt><trkpt lat="42.1738913" lon="13.6382202"><ele>1191.7142857142858</ele><time>2026-05-01T08:48:06.478Z</time></trkpt><trkpt lat="42.1739343" lon="13.6382958"><ele>1191.2857142857142</ele><time>2026-05-01T08:48:14.441Z</time></trkpt><trkpt lat="42.1739431" lon="13.6383805"><ele>1190.857142857143</ele><time>2026-05-01T08:48:20.456Z</time></trkpt><trkpt lat="42.173926" lon="13.6384716"><ele>1190.4285714285713</ele><time>2026-05-01T08:48:44.44Z</time></trkpt><trkpt lat="42.1739278" lon="13.6385702"><ele>1190.0</ele><time>2026-05-01T08:48:51.441Z</time></trkpt><trkpt lat="42.1739443" lon="13.638657"><ele>1188.857142857143</ele><time>2026-05-01T08:48:57.438Z</time></trkpt><trkpt lat="42.1739146" lon="13.6387397"><ele>1187.7142857142858</ele><time>2026-05-01T08:49:05.442Z</time></trkpt><trkpt lat="42.173876" lon="13.6388201"><ele>1186.5714285714284</ele><time>2026-05-01T08:49:12.352Z</time></trkpt><trkpt lat="42.1738254" lon="13.6388832"><ele>1185.4285714285716</ele><time>2026-05-01T08:49:41.441Z</time></trkpt><trkpt lat="42.1737838" lon="13.6389594"><ele>1184.2857142857142</ele><time>2026-05-01T08:49:48.413Z</time></trkpt><trkpt lat="42.1737318" lon="13.6390133"><ele>1183.142857142857</ele><time>2026-05-01T08:49:54.476Z</time></trkpt><trkpt lat="42.1736652" lon="13.6390369"><ele>1182.0</ele><time>2026-05-01T08:50:00.345Z</time></trkpt><trkpt lat="42.1735973" lon="13.6390572"><ele>1182.0</ele><time>2026-05-01T08:50:07.499Z</time></trkpt><trkpt lat="42.1735319" lon="13.639075"><ele>1182.0</ele><time>2026-05-01T08:50:15.443Z</time></trkpt><trkpt lat="42.1734648" lon="13.6391004"><ele>1182.0</ele><time>2026-05-01T08:50:22.434Z</time></trkpt><trkpt lat="42.1734196" lon="13.6391764"><ele>1182.0</ele><time>2026-05-01T08:50:29.475Z</time></trkpt><trkpt lat="42.1734029" lon="13.639259"><ele>1182.0</ele><time>2026-05-01T08:50:35.444Z</time></trkpt><trkpt lat="42.1734302" lon="13.6393409"><ele>1182.0</ele><time>2026-05-01T08:50:42.394Z</time></trkpt><trkpt lat="42.173356" lon="13.6393402"><ele>1182.0</ele><time>2026-05-01T08:50:55.437Z</time></trkpt><trkpt lat="42.1732896" lon="13.6393791"><ele>1182.0</ele><time>2026-05-01T08:51:00.448Z</time></trkpt><trkpt lat="42.1732562" lon="13.6394546"><ele>1182.0</ele><time>2026-05-01T08:51:11.438Z</time></trkpt><trkpt lat="42.173234" lon="13.639541"><ele>1182.0</ele><time>2026-05-01T08:51:18.448Z</time></trkpt><trkpt lat="42.1732018" lon="13.6396303"><ele>1182.0</ele><time>2026-05-01T08:51:25.487Z</time></trkpt><trkpt lat="42.1731535" lon="13.6396965"><ele>1182.0</ele><time>2026-05-01T08:51:32.439Z</time></trkpt><trkpt lat="42.1731035" lon="13.6397571"><ele>1182.0</ele><time>2026-05-01T08:51:39.466Z</time></trkpt><trkpt lat="42.1730606" lon="13.6398245"><ele>1182.0</ele><time>2026-05-01T08:51:53.341Z</time></trkpt><trkpt lat="42.1729965" lon="13.6398652"><ele>1182.0</ele><time>2026-05-01T08:51:58.488Z</time></trkpt><trkpt lat="42.1729411" lon="13.6399133"><ele>1182.0</ele><time>2026-05-01T08:52:04.44Z</time></trkpt><trkpt lat="42.1728984" lon="13.6399824"><ele>1182.0</ele><time>2026-05-01T08:52:12.449Z</time></trkpt><trkpt lat="42.1729201" lon="13.6400695"><ele>1182.0</ele><time>2026-05-01T08:52:24.436Z</time></trkpt><trkpt lat="42.1729311" lon="13.640162"><ele>1182.0</ele><time>2026-05-01T08:52:30.449Z</time></trkpt><trkpt lat="42.1729545" lon="13.6402466"><ele>1182.0</ele><time>2026-05-01T08:52:36.439Z</time></trkpt><trkpt lat="42.1729616" lon="13.6403432"><ele>1182.0</ele><time>2026-05-01T08:52:43.442Z</time></trkpt><trkpt lat="42.1730066" lon="13.6404079"><ele>1182.0</ele><time>2026-05-01T08:52:49.456Z</time></trkpt><trkpt lat="42.1730399" lon="13.6404828"><ele>1182.0</ele><time>2026-05-01T08:52:57.441Z</time></trkpt><trkpt lat="42.1730069" lon="13.6405581"><ele>1182.0</ele><time>2026-05-01T08:53:04.442Z</time></trkpt><trkpt lat="42.1730111" lon="13.6406481"><ele>1182.0</ele><time>2026-05-01T08:53:11.479Z</time></trkpt><trkpt lat="42.1730223" lon="13.6407424"><ele>1182.0</ele><time>2026-05-01T08:53:19.442Z</time></trkpt><trkpt lat="42.1730195" lon="13.6408392"><ele>1182.0</ele><time>2026-05-01T08:53:27.468Z</time></trkpt><trkpt lat="42.1730195" lon="13.6409359"><ele>1182.0</ele><time>2026-05-01T08:53:35.439Z</time></trkpt><trkpt lat="42.1730782" lon="13.6409912"><ele>1182.0</ele><time>2026-05-01T08:53:42.451Z</time></trkpt><trkpt lat="42.1731469" lon="13.6410019"><ele>1182.0</ele><time>2026-05-01T08:53:53.441Z</time></trkpt><trkpt lat="42.1732124" lon="13.6410097"><ele>1182.0</ele><time>2026-05-01T08:53:59.446Z</time></trkpt><trkpt lat="42.1732776" lon="13.6410246"><ele>1182.0</ele><time>2026-05-01T08:54:06.486Z</time></trkpt><trkpt lat="42.1733456" lon="13.6410196"><ele>1182.0</ele><time>2026-05-01T08:54:15.442Z</time></trkpt><trkpt lat="42.1734048" lon="13.6410648"><ele>1182.0</ele><time>2026-05-01T08:54:22.475Z</time></trkpt><trkpt lat="42.1734615" lon="13.6411227"><ele>1182.0</ele><time>2026-05-01T08:54:28.443Z</time></trkpt><trkpt lat="42.1735304" lon="13.6411476"><ele>1182.0</ele><time>2026-05-01T08:54:45.439Z</time></trkpt><trkpt lat="42.1735809" lon="13.6412013"><ele>1182.0</ele><time>2026-05-01T08:54:59.438Z</time></trkpt><trkpt lat="42.1735142" lon="13.641179"><ele>1182.0</ele><time>2026-05-01T08:58:49.415Z</time></trkpt><trkpt lat="42.1735798" lon="13.6411891"><ele>1182.0</ele><time>2026-05-01T09:07:38.445Z</time></trkpt><trkpt lat="42.1736138" lon="13.6411107"><ele>1182.0</ele><time>2026-05-01T09:07:45.441Z</time></trkpt><trkpt lat="42.1735658" lon="13.6411844"><ele>1182.0</ele><time>2026-05-01T09:08:22.445Z</time></trkpt><trkpt lat="42.1735107" lon="13.6412318"><ele>1182.0</ele><time>2026-05-01T09:08:29.441Z</time></trkpt><trkpt lat="42.1735697" lon="13.6412808"><ele>1182.0</ele><time>2026-05-01T09:08:43.445Z</time></trkpt><trkpt lat="42.1735633" lon="13.6413792"><ele>1182.0</ele><time>2026-05-01T09:10:29.441Z</time></trkpt><trkpt lat="42.1735823" lon="13.6414702"><ele>1182.0</ele><time>2026-05-01T09:10:35.444Z</time></trkpt><trkpt lat="42.1736191" lon="13.6415457"><ele>1182.0</ele><time>2026-05-01T09:10:41.459Z</time></trkpt><trkpt lat="42.1736613" lon="13.6416266"><ele>1182.0</ele><time>2026-05-01T09:10:48.538Z</time></trkpt><trkpt lat="42.1736855" lon="13.6417092"><ele>1182.0</ele><time>2026-05-01T09:10:54.445Z</time></trkpt><trkpt lat="42.1736525" lon="13.6417837"><ele>1182.0</ele><time>2026-05-01T09:11:03.482Z</time></trkpt><trkpt lat="42.1735849" lon="13.6417585"><ele>1182.0</ele><time>2026-05-01T09:11:09.445Z</time></trkpt><trkpt lat="42.1735157" lon="13.6417882"><ele>1182.0</ele><time>2026-05-01T09:11:16.455Z</time></trkpt><trkpt lat="42.1734546" lon="13.6418338"><ele>1182.0</ele><time>2026-05-01T09:11:24.445Z</time></trkpt><trkpt lat="42.1734077" lon="13.641904"><ele>1182.0</ele><time>2026-05-01T09:11:30.382Z</time></trkpt><trkpt lat="42.1733448" lon="13.6419091"><ele>1182.0</ele><time>2026-05-01T09:11:37.473Z</time></trkpt><trkpt lat="42.1732771" lon="13.6418828"><ele>1182.0</ele><time>2026-05-01T09:12:11.44Z</time></trkpt><trkpt lat="42.1732147" lon="13.641853"><ele>1182.0</ele><time>2026-05-01T09:12:18.442Z</time></trkpt><trkpt lat="42.1731505" lon="13.6418619"><ele>1182.2857142857142</ele><time>2026-05-01T09:12:26.445Z</time></trkpt><trkpt lat="42.1730923" lon="13.6418954"><ele>1182.5714285714287</ele><time>2026-05-01T09:12:33.443Z</time></trkpt><trkpt lat="42.1730337" lon="13.6419355"><ele>1182.857142857143</ele><time>2026-05-01T09:12:40.443Z</time></trkpt><trkpt lat="42.1731015" lon="13.6419436"><ele>1183.142857142857</ele><time>2026-05-01T09:15:45.493Z</time></trkpt><trkpt lat="42.1730409" lon="13.6419761"><ele>1183.4285714285713</ele><time>2026-05-01T09:15:56.475Z</time></trkpt><trkpt lat="42.172987" lon="13.6420206"><ele>1183.7142857142858</ele><time>2026-05-01T09:16:02.443Z</time></trkpt><trkpt lat="42.172929" lon="13.6420537"><ele>1184.0</ele><time>2026-05-01T09:16:08.431Z</time></trkpt><trkpt lat="42.1728714" lon="13.6420116"><ele>1184.0</ele><time>2026-05-01T09:17:06.326Z</time></trkpt><trkpt lat="42.1728091" lon="13.641962"><ele>1184.0</ele><time>2026-05-01T09:17:12.455Z</time></trkpt><trkpt lat="42.1727948" lon="13.6418779"><ele>1184.0</ele><time>2026-05-01T09:17:18.441Z</time></trkpt><trkpt lat="42.1728498" lon="13.6419307"><ele>1184.0</ele><time>2026-05-01T09:17:30.438Z</time></trkpt><trkpt lat="42.1729152" lon="13.6419352"><ele>1184.0</ele><time>2026-05-01T09:17:38.442Z</time></trkpt><trkpt lat="42.1729365" lon="13.6420197"><ele>1184.0</ele><time>2026-05-01T09:18:32.452Z</time></trkpt><trkpt lat="42.1729871" lon="13.6419687"><ele>1184.0</ele><time>2026-05-01T09:19:58.482Z</time></trkpt><trkpt lat="42.1730564" lon="13.6419741"><ele>1184.0</ele><time>2026-05-01T09:21:27.474Z</time></trkpt><trkpt lat="42.1731091" lon="13.6419193"><ele>1184.0</ele><time>2026-05-01T09:21:32.444Z</time></trkpt><trkpt lat="42.173157" lon="13.6418516"><ele>1184.0</ele><time>2026-05-01T09:21:50.35Z</time></trkpt><trkpt lat="42.1732269" lon="13.6418459"><ele>1184.0</ele><time>2026-05-01T09:21:57.508Z</time></trkpt><trkpt lat="42.1732839" lon="13.6418966"><ele>1184.0</ele><time>2026-05-01T09:22:04.444Z</time></trkpt><trkpt lat="42.1733459" lon="13.6419243"><ele>1184.0</ele><time>2026-05-01T09:22:11.458Z</time></trkpt><trkpt lat="42.1734151" lon="13.6419448"><ele>1184.0</ele><time>2026-05-01T09:22:21.446Z</time></trkpt><trkpt lat="42.1733794" lon="13.6418741"><ele>1183.7142857142858</ele><time>2026-05-01T09:22:37.443Z</time></trkpt><trkpt lat="42.1734433" lon="13.6418323"><ele>1183.4285714285713</ele><time>2026-05-01T09:24:47.44Z</time></trkpt><trkpt lat="42.1735079" lon="13.641784"><ele>1183.142857142857</ele><time>2026-05-01T09:24:53.449Z</time></trkpt><trkpt lat="42.173571" lon="13.6417771"><ele>1182.857142857143</ele><time>2026-05-01T09:24:59.453Z</time></trkpt><trkpt lat="42.1736338" lon="13.6417707"><ele>1182.5714285714287</ele><time>2026-05-01T09:25:06.412Z</time></trkpt><trkpt lat="42.1737052" lon="13.6417794"><ele>1182.2857142857142</ele><time>2026-05-01T09:25:13.466Z</time></trkpt><trkpt lat="42.1737719" lon="13.6417971"><ele>1182.0</ele><time>2026-05-01T09:25:29.46Z</time></trkpt><trkpt lat="42.173845" lon="13.6417936"><ele>1182.0</ele><time>2026-05-01T09:25:36.487Z</time></trkpt><trkpt lat="42.1739133" lon="13.6418019"><ele>1182.0</ele><time>2026-05-01T09:25:42.443Z</time></trkpt><trkpt lat="42.1739806" lon="13.6418048"><ele>1182.0</ele><time>2026-05-01T09:25:48.471Z</time></trkpt><trkpt lat="42.1740469" lon="13.6417963"><ele>1182.0</ele><time>2026-05-01T09:25:54.442Z</time></trkpt><trkpt lat="42.1741135" lon="13.6417915"><ele>1182.0</ele><time>2026-05-01T09:26:00.441Z</time></trkpt><trkpt lat="42.1741811" lon="13.6417899"><ele>1182.0</ele><time>2026-05-01T09:26:06.372Z</time></trkpt><trkpt lat="42.1742485" lon="13.6417985"><ele>1182.0</ele><time>2026-05-01T09:26:12.442Z</time></trkpt><trkpt lat="42.1743104" lon="13.6418201"><ele>1182.4285714285713</ele><time>2026-05-01T09:26:18.447Z</time></trkpt><trkpt lat="42.1743704" lon="13.6418545"><ele>1182.857142857143</ele><time>2026-05-01T09:26:24.481Z</time></trkpt><trkpt lat="42.1744272" lon="13.6419076"><ele>1183.2857142857142</ele><time>2026-05-01T09:26:31.471Z</time></trkpt><trkpt lat="42.1744554" lon="13.6419885"><ele>1183.7142857142858</ele><time>2026-05-01T09:26:37.483Z</time></trkpt><trkpt lat="42.174498" lon="13.6420687"><ele>1184.142857142857</ele><time>2026-05-01T09:26:44.498Z</time></trkpt><trkpt lat="42.1745432" lon="13.6421318"><ele>1184.5714285714284</ele><time>2026-05-01T09:26:50.442Z</time></trkpt><trkpt lat="42.1745954" lon="13.6421887"><ele>1185.0</ele><time>2026-05-01T09:26:56.468Z</time></trkpt><trkpt lat="42.1746251" lon="13.6422733"><ele>1186.0</ele><time>2026-05-01T09:27:02.441Z</time></trkpt><trkpt lat="42.1746505" lon="13.642352"><ele>1187.0</ele><time>2026-05-01T09:27:08.442Z</time></trkpt><trkpt lat="42.1746862" lon="13.6424305"><ele>1188.0</ele><time>2026-05-01T09:27:15.442Z</time></trkpt><trkpt lat="42.1746805" lon="13.6425293"><ele>1189.0</ele><time>2026-05-01T09:27:39.489Z</time></trkpt><trkpt lat="42.1747128" lon="13.6426118"><ele>1190.0</ele><time>2026-05-01T09:27:44.446Z</time></trkpt><trkpt lat="42.1747131" lon="13.6426975"><ele>1191.0</ele><time>2026-05-01T09:27:50.162Z</time></trkpt><trkpt lat="42.17472" lon="13.642784"><ele>1192.0</ele><time>2026-05-01T09:27:56.486Z</time></trkpt><trkpt lat="42.1747289" lon="13.6428772"><ele>1192.4285714285713</ele><time>2026-05-01T09:28:03.344Z</time></trkpt><trkpt lat="42.1747137" lon="13.6429598"><ele>1192.8571428571427</ele><time>2026-05-01T09:28:09.492Z</time></trkpt><trkpt lat="42.1746777" lon="13.6430437"><ele>1193.2857142857142</ele><time>2026-05-01T09:28:16.442Z</time></trkpt><trkpt lat="42.1746459" lon="13.6431259"><ele>1193.7142857142858</ele><time>2026-05-01T09:28:22.467Z</time></trkpt><trkpt lat="42.1746272" lon="13.6432197"><ele>1194.1428571428573</ele><time>2026-05-01T09:28:28.509Z</time></trkpt><trkpt lat="42.1746401" lon="13.6433041"><ele>1194.5714285714284</ele><time>2026-05-01T09:28:34.386Z</time></trkpt><trkpt lat="42.1746737" lon="13.6433792"><ele>1195.0</ele><time>2026-05-01T09:28:41.44Z</time></trkpt><trkpt lat="42.1747108" lon="13.6434549"><ele>1195.0</ele><time>2026-05-01T09:28:47.439Z</time></trkpt><trkpt lat="42.1747379" lon="13.6435529"><ele>1195.0</ele><time>2026-05-01T09:29:04.441Z</time></trkpt><trkpt lat="42.1747434" lon="13.6436481"><ele>1195.0</ele><time>2026-05-01T09:29:10.448Z</time></trkpt><trkpt lat="42.174734" lon="13.6437412"><ele>1195.0</ele><time>2026-05-01T09:29:15.477Z</time></trkpt><trkpt lat="42.1747599" lon="13.6438305"><ele>1195.0</ele><time>2026-05-01T09:29:22.439Z</time></trkpt><trkpt lat="42.1748006" lon="13.6439057"><ele>1195.0</ele><time>2026-05-01T09:29:29.491Z</time></trkpt><trkpt lat="42.1748386" lon="13.6439828"><ele>1195.0</ele><time>2026-05-01T09:29:37.352Z</time></trkpt><trkpt lat="42.174875" lon="13.6440619"><ele>1190.142857142857</ele><time>2026-05-01T09:29:44.446Z</time></trkpt><trkpt lat="42.1749147" lon="13.6441317"><ele>1185.2857142857144</ele><time>2026-05-01T09:29:51.487Z</time></trkpt><trkpt lat="42.1749327" lon="13.6442148"><ele>1180.4285714285716</ele><time>2026-05-01T09:30:09.44Z</time></trkpt><trkpt lat="42.1749548" lon="13.6443042"><ele>1175.5714285714284</ele><time>2026-05-01T09:30:16.448Z</time></trkpt><trkpt lat="42.1749918" lon="13.644379"><ele>1170.7142857142858</ele><time>2026-05-01T09:30:23.446Z</time></trkpt><trkpt lat="42.1750202" lon="13.6444617"><ele>1165.857142857143</ele><time>2026-05-01T09:30:38.439Z</time></trkpt><trkpt lat="42.1750514" lon="13.644545"><ele>1161.0</ele><time>2026-05-01T09:30:46.441Z</time></trkpt><trkpt lat="42.1750855" lon="13.6446315"><ele>1159.7142857142858</ele><time>2026-05-01T09:30:54.444Z</time></trkpt><trkpt lat="42.1751167" lon="13.6447203"><ele>1158.4285714285716</ele><time>2026-05-01T09:31:01.441Z</time></trkpt><trkpt lat="42.1751382" lon="13.6448077"><ele>1157.1428571428573</ele><time>2026-05-01T09:31:07.441Z</time></trkpt><trkpt lat="42.1751228" lon="13.644901"><ele>1155.857142857143</ele><time>2026-05-01T09:31:13.441Z</time></trkpt><trkpt lat="42.1750898" lon="13.6449861"><ele>1154.5714285714287</ele><time>2026-05-01T09:31:19.445Z</time></trkpt><trkpt lat="42.1750803" lon="13.6450773"><ele>1153.2857142857144</ele><time>2026-05-01T09:31:28.443Z</time></trkpt><trkpt lat="42.1751477" lon="13.6450546"><ele>1152.0</ele><time>2026-05-01T09:32:25.439Z</time></trkpt><trkpt lat="42.1752097" lon="13.6450394"><ele>1152.0000000000002</ele><time>2026-05-01T09:32:31.444Z</time></trkpt><trkpt lat="42.1752434" lon="13.6449652"><ele>1152.0</ele><time>2026-05-01T09:32:36.442Z</time></trkpt><trkpt lat="42.1752969" lon="13.6448971"><ele>1152.0</ele><time>2026-05-01T09:32:43.44Z</time></trkpt><trkpt lat="42.1753519" lon="13.6448432"><ele>1152.0</ele><time>2026-05-01T09:32:49.473Z</time></trkpt><trkpt lat="42.1754196" lon="13.6447863"><ele>1152.0</ele><time>2026-05-01T09:32:54.44Z</time></trkpt><trkpt lat="42.1754546" lon="13.6446951"><ele>1152.0000000000002</ele><time>2026-05-01T09:33:00.451Z</time></trkpt><trkpt lat="42.17548" lon="13.6446088"><ele>1152.0</ele><time>2026-05-01T09:33:05.444Z</time></trkpt><trkpt lat="42.1755158" lon="13.6445213"><ele>1151.857142857143</ele><time>2026-05-01T09:33:10.44Z</time></trkpt><trkpt lat="42.1755519" lon="13.6444354"><ele>1151.7142857142858</ele><time>2026-05-01T09:33:15.424Z</time></trkpt><trkpt lat="42.1755769" lon="13.6443496"><ele>1151.5714285714284</ele><time>2026-05-01T09:33:20.283Z</time></trkpt><trkpt lat="42.1756015" lon="13.6442532"><ele>1151.4285714285716</ele><time>2026-05-01T09:33:25.445Z</time></trkpt><trkpt lat="42.1756288" lon="13.6441739"><ele>1151.2857142857142</ele><time>2026-05-01T09:33:29.445Z</time></trkpt><trkpt lat="42.1756741" lon="13.6441024"><ele>1151.142857142857</ele><time>2026-05-01T09:33:34.453Z</time></trkpt><trkpt lat="42.1757299" lon="13.6440506"><ele>1151.0</ele><time>2026-05-01T09:33:43.44Z</time></trkpt><trkpt lat="42.1757695" lon="13.6439712"><ele>1151.0</ele><time>2026-05-01T09:33:53.443Z</time></trkpt><trkpt lat="42.1758138" lon="13.6438797"><ele>1151.0</ele><time>2026-05-01T09:33:59.44Z</time></trkpt><trkpt lat="42.1758468" lon="13.643794"><ele>1151.0</ele><time>2026-05-01T09:34:05.511Z</time></trkpt><trkpt lat="42.175847" lon="13.6437032"><ele>1151.0</ele><time>2026-05-01T09:34:12.385Z</time></trkpt><trkpt lat="42.1759156" lon="13.6436515"><ele>1151.0</ele><time>2026-05-01T09:34:16.391Z</time></trkpt><trkpt lat="42.1759649" lon="13.6435679"><ele>1151.0</ele><time>2026-05-01T09:34:21.18Z</time></trkpt><trkpt lat="42.1760091" lon="13.6434904"><ele>1150.4285714285713</ele><time>2026-05-01T09:34:26.087Z</time></trkpt><trkpt lat="42.1760515" lon="13.6434051"><ele>1149.857142857143</ele><time>2026-05-01T09:34:31.993Z</time></trkpt><trkpt lat="42.1760652" lon="13.6433143"><ele>1149.2857142857142</ele><time>2026-05-01T09:34:39.024Z</time></trkpt><trkpt lat="42.1761228" lon="13.6432628"><ele>1148.7142857142858</ele><time>2026-05-01T09:34:43.047Z</time></trkpt><trkpt lat="42.1761417" lon="13.6431787"><ele>1148.142857142857</ele><time>2026-05-01T09:36:19.439Z</time></trkpt><trkpt lat="42.1761985" lon="13.6431116"><ele>1147.5714285714284</ele><time>2026-05-01T09:36:26.445Z</time></trkpt><trkpt lat="42.1762272" lon="13.6430168"><ele>1147.0</ele><time>2026-05-01T09:36:32.439Z</time></trkpt><trkpt lat="42.1762559" lon="13.642941"><ele>1147.0</ele><time>2026-05-01T09:36:37.442Z</time></trkpt><trkpt lat="42.1762974" lon="13.6428681"><ele>1147.0</ele><time>2026-05-01T09:36:43.446Z</time></trkpt><trkpt lat="42.1763105" lon="13.6427632"><ele>1147.0</ele><time>2026-05-01T09:36:51.442Z</time></trkpt><trkpt lat="42.1763461" lon="13.6426913"><ele>1147.0</ele><time>2026-05-01T09:36:56.454Z</time></trkpt><trkpt lat="42.1763712" lon="13.6426074"><ele>1147.0</ele><time>2026-05-01T09:37:01.368Z</time></trkpt><trkpt lat="42.1764189" lon="13.642532"><ele>1147.0</ele><time>2026-05-01T09:37:07.343Z</time></trkpt><trkpt lat="42.1764758" lon="13.6424709"><ele>1147.0</ele><time>2026-05-01T09:37:13.453Z</time></trkpt><trkpt lat="42.176514" lon="13.6423992"><ele>1146.5714285714284</ele><time>2026-05-01T09:37:19.457Z</time></trkpt><trkpt lat="42.1765575" lon="13.6423344"><ele>1146.142857142857</ele><time>2026-05-01T09:37:25.442Z</time></trkpt><trkpt lat="42.1766028" lon="13.642267"><ele>1145.7142857142858</ele><time>2026-05-01T09:37:31.465Z</time></trkpt><trkpt lat="42.1766485" lon="13.6422008"><ele>1145.2857142857142</ele><time>2026-05-01T09:37:37.463Z</time></trkpt><trkpt lat="42.176694" lon="13.6421253"><ele>1144.857142857143</ele><time>2026-05-01T09:37:44.441Z</time></trkpt><trkpt lat="42.1767181" lon="13.6420362"><ele>1144.4285714285713</ele><time>2026-05-01T09:37:50.443Z</time></trkpt><trkpt lat="42.1767692" lon="13.6419719"><ele>1144.0</ele><time>2026-05-01T09:37:56.45Z</time></trkpt><trkpt lat="42.1768224" lon="13.6419122"><ele>1142.8571428571427</ele><time>2026-05-01T09:38:02.445Z</time></trkpt><trkpt lat="42.176879" lon="13.6418638"><ele>1141.7142857142858</ele><time>2026-05-01T09:38:08.444Z</time></trkpt><trkpt lat="42.1769373" lon="13.6418294"><ele>1140.5714285714284</ele><time>2026-05-01T09:38:14.413Z</time></trkpt><trkpt lat="42.1770001" lon="13.6417882"><ele>1139.4285714285713</ele><time>2026-05-01T09:38:21.441Z</time></trkpt><trkpt lat="42.1770617" lon="13.6417574"><ele>1138.2857142857142</ele><time>2026-05-01T09:38:27.433Z</time></trkpt><trkpt lat="42.1771236" lon="13.6417375"><ele>1137.142857142857</ele><time>2026-05-01T09:38:33.442Z</time></trkpt><trkpt lat="42.1771943" lon="13.6417112"><ele>1136.0</ele><time>2026-05-01T09:38:40.466Z</time></trkpt><trkpt lat="42.1772513" lon="13.6416738"><ele>1136.0</ele><time>2026-05-01T09:38:46.466Z</time></trkpt><trkpt lat="42.1773144" lon="13.6416384"><ele>1136.0</ele><time>2026-05-01T09:38:52.445Z</time></trkpt><trkpt lat="42.1773785" lon="13.6416059"><ele>1136.0</ele><time>2026-05-01T09:38:58.444Z</time></trkpt><trkpt lat="42.1774403" lon="13.6415874"><ele>1136.0</ele><time>2026-05-01T09:39:04.47Z</time></trkpt><trkpt lat="42.1775069" lon="13.6415577"><ele>1136.0</ele><time>2026-05-01T09:39:10.506Z</time></trkpt><trkpt lat="42.1775661" lon="13.6415155"><ele>1136.0</ele><time>2026-05-01T09:39:16.443Z</time></trkpt><trkpt lat="42.1776257" lon="13.6414723"><ele>1136.0</ele><time>2026-05-01T09:39:22.391Z</time></trkpt><trkpt lat="42.1776866" lon="13.6414363"><ele>1136.0</ele><time>2026-05-01T09:39:28.441Z</time></trkpt><trkpt lat="42.177753" lon="13.6414048"><ele>1136.0</ele><time>2026-05-01T09:39:34.445Z</time></trkpt><trkpt lat="42.1778151" lon="13.6413706"><ele>1136.0</ele><time>2026-05-01T09:39:40.432Z</time></trkpt><trkpt lat="42.1778731" lon="13.6413299"><ele>1136.0</ele><time>2026-05-01T09:39:46.444Z</time></trkpt><trkpt lat="42.1779335" lon="13.6412907"><ele>1136.0</ele><time>2026-05-01T09:39:52.449Z</time></trkpt><trkpt lat="42.1779847" lon="13.6412168"><ele>1136.0</ele><time>2026-05-01T09:40:00.448Z</time></trkpt><trkpt lat="42.1780352" lon="13.6412756"><ele>1136.0</ele><time>2026-05-01T09:40:29.466Z</time></trkpt><trkpt lat="42.1780818" lon="13.6412183"><ele>1136.0</ele><time>2026-05-01T09:40:34.495Z</time></trkpt><trkpt lat="42.1781529" lon="13.6412085"><ele>1136.0</ele><time>2026-05-01T09:40:40.442Z</time></trkpt><trkpt lat="42.1782141" lon="13.6411757"><ele>1136.0</ele><time>2026-05-01T09:40:45.459Z</time></trkpt><trkpt lat="42.1782714" lon="13.6411112"><ele>1136.0</ele><time>2026-05-01T09:40:50.487Z</time></trkpt><trkpt lat="42.1783252" lon="13.6410445"><ele>1136.0</ele><time>2026-05-01T09:40:56.493Z</time></trkpt><trkpt lat="42.1783802" lon="13.6409958"><ele>1136.0</ele><time>2026-05-01T09:41:02.457Z</time></trkpt><trkpt lat="42.178441" lon="13.6409597"><ele>1136.0</ele><time>2026-05-01T09:41:08.389Z</time></trkpt><trkpt lat="42.1785096" lon="13.6409369"><ele>1134.4285714285713</ele><time>2026-05-01T09:41:15.407Z</time></trkpt><trkpt lat="42.1785709" lon="13.640897"><ele>1132.8571428571427</ele><time>2026-05-01T09:41:21.44Z</time></trkpt><trkpt lat="42.1786318" lon="13.6408724"><ele>1131.2857142857142</ele><time>2026-05-01T09:41:27.401Z</time></trkpt><trkpt lat="42.1786973" lon="13.6408188"><ele>1129.7142857142858</ele><time>2026-05-01T09:41:34.444Z</time></trkpt><trkpt lat="42.1787552" lon="13.6407779"><ele>1128.1428571428573</ele><time>2026-05-01T09:41:40.479Z</time></trkpt><trkpt lat="42.1788119" lon="13.6407247"><ele>1126.5714285714287</ele><time>2026-05-01T09:41:46.445Z</time></trkpt><trkpt lat="42.1788607" lon="13.6406563"><ele>1125.0</ele><time>2026-05-01T09:41:52.505Z</time></trkpt><trkpt lat="42.1789091" lon="13.6405855"><ele>1125.0</ele><time>2026-05-01T09:41:58.442Z</time></trkpt><trkpt lat="42.178957" lon="13.6405172"><ele>1125.0</ele><time>2026-05-01T09:42:04.363Z</time></trkpt><trkpt lat="42.1790087" lon="13.640453"><ele>1125.0</ele><time>2026-05-01T09:42:10.451Z</time></trkpt><trkpt lat="42.1790695" lon="13.6404014"><ele>1125.0</ele><time>2026-05-01T09:42:16.442Z</time></trkpt><trkpt lat="42.1791283" lon="13.6403517"><ele>1125.0</ele><time>2026-05-01T09:42:22.442Z</time></trkpt><trkpt lat="42.179189" lon="13.6402991"><ele>1125.0</ele><time>2026-05-01T09:42:28.373Z</time></trkpt><trkpt lat="42.17924" lon="13.6402366"><ele>1125.0</ele><time>2026-05-01T09:42:34.493Z</time></trkpt><trkpt lat="42.1792925" lon="13.6401833"><ele>1123.857142857143</ele><time>2026-05-01T09:42:40.442Z</time></trkpt><trkpt lat="42.1793466" lon="13.6401313"><ele>1122.7142857142858</ele><time>2026-05-01T09:42:46.46Z</time></trkpt><trkpt lat="42.1793982" lon="13.6400749"><ele>1121.5714285714287</ele><time>2026-05-01T09:42:52.474Z</time></trkpt><trkpt lat="42.1794471" lon="13.6400138"><ele>1120.4285714285716</ele><time>2026-05-01T09:42:58.443Z</time></trkpt><trkpt lat="42.1795011" lon="13.639961"><ele>1119.2857142857142</ele><time>2026-05-01T09:43:04.464Z</time></trkpt><trkpt lat="42.1795503" lon="13.6399"><ele>1118.1428571428573</ele><time>2026-05-01T09:43:10.499Z</time></trkpt><trkpt lat="42.1796081" lon="13.6398546"><ele>1117.0</ele><time>2026-05-01T09:43:16.442Z</time></trkpt><trkpt lat="42.1796683" lon="13.6398058"><ele>1117.0000000000002</ele><time>2026-05-01T09:43:22.468Z</time></trkpt><trkpt lat="42.1797169" lon="13.6397378"><ele>1117.0</ele><time>2026-05-01T09:43:28.411Z</time></trkpt><trkpt lat="42.1797567" lon="13.6396696"><ele>1117.0</ele><time>2026-05-01T09:43:34.44Z</time></trkpt><trkpt lat="42.1798018" lon="13.6396032"><ele>1117.0</ele><time>2026-05-01T09:43:40.472Z</time></trkpt><trkpt lat="42.1798404" lon="13.6395329"><ele>1117.0</ele><time>2026-05-01T09:43:46.444Z</time></trkpt><trkpt lat="42.1798455" lon="13.6394355"><ele>1117.0000000000002</ele><time>2026-05-01T09:44:54.44Z</time></trkpt><trkpt lat="42.1799121" lon="13.639385"><ele>1117.0</ele><time>2026-05-01T09:45:04.441Z</time></trkpt><trkpt lat="42.1799489" lon="13.6393105"><ele>1116.0000000000002</ele><time>2026-05-01T09:45:18.439Z</time></trkpt><trkpt lat="42.1799762" lon="13.6392326"><ele>1115.0</ele><time>2026-05-01T09:45:24.442Z</time></trkpt><trkpt lat="42.1799994" lon="13.6391396"><ele>1114.0</ele><time>2026-05-01T09:45:31.44Z</time></trkpt><trkpt lat="42.1800174" lon="13.6390536"><ele>1113.0</ele><time>2026-05-01T09:45:52.441Z</time></trkpt><trkpt lat="42.1800716" lon="13.6389928"><ele>1112.0</ele><time>2026-05-01T09:46:02.459Z</time></trkpt><trkpt lat="42.1801004" lon="13.6389144"><ele>1111.0000000000002</ele><time>2026-05-01T09:46:07.441Z</time></trkpt><trkpt lat="42.1801255" lon="13.6388315"><ele>1110.0</ele><time>2026-05-01T09:46:13.443Z</time></trkpt><trkpt lat="42.1801531" lon="13.6387534"><ele>1110.0000000000002</ele><time>2026-05-01T09:46:19.405Z</time></trkpt><trkpt lat="42.1801819" lon="13.6386624"><ele>1110.0</ele><time>2026-05-01T09:46:26.441Z</time></trkpt><trkpt lat="42.1802195" lon="13.6385873"><ele>1110.0</ele><time>2026-05-01T09:46:32.44Z</time></trkpt><trkpt lat="42.1802514" lon="13.6385119"><ele>1110.0</ele><time>2026-05-01T09:46:38.423Z</time></trkpt><trkpt lat="42.1802988" lon="13.6384425"><ele>1110.0</ele><time>2026-05-01T09:46:45.44Z</time></trkpt><trkpt lat="42.18034" lon="13.6383769"><ele>1110.0000000000002</ele><time>2026-05-01T09:46:51.444Z</time></trkpt><trkpt lat="42.180382" lon="13.6383054"><ele>1110.0</ele><time>2026-05-01T09:46:57.468Z</time></trkpt><trkpt lat="42.1804228" lon="13.6382351"><ele>1108.0000000000002</ele><time>2026-05-01T09:47:03.445Z</time></trkpt><trkpt lat="42.1804587" lon="13.6381613"><ele>1106.0</ele><time>2026-05-01T09:47:09.449Z</time></trkpt><trkpt lat="42.180501" lon="13.6380957"><ele>1104.0</ele><time>2026-05-01T09:47:15.495Z</time></trkpt><trkpt lat="42.1805429" lon="13.6380167"><ele>1102.0</ele><time>2026-05-01T09:47:22.442Z</time></trkpt><trkpt lat="42.180585" lon="13.6379516"><ele>1100.0</ele><time>2026-05-01T09:47:28.447Z</time></trkpt><trkpt lat="42.180621" lon="13.637878"><ele>1098.0000000000002</ele><time>2026-05-01T09:47:34.443Z</time></trkpt><trkpt lat="42.1806589" lon="13.6378074"><ele>1096.0</ele><time>2026-05-01T09:47:40.442Z</time></trkpt><trkpt lat="42.1807008" lon="13.6377389"><ele>1095.2857142857144</ele><time>2026-05-01T09:47:46.464Z</time></trkpt><trkpt lat="42.180744" lon="13.6376722"><ele>1094.5714285714287</ele><time>2026-05-01T09:47:52.443Z</time></trkpt><trkpt lat="42.1807889" lon="13.637607"><ele>1093.857142857143</ele><time>2026-05-01T09:47:58.431Z</time></trkpt><trkpt lat="42.1808069" lon="13.6375236"><ele>1093.1428571428573</ele><time>2026-05-01T09:48:04.469Z</time></trkpt><trkpt lat="42.18082" lon="13.6374403"><ele>1092.4285714285716</ele><time>2026-05-01T09:48:11.443Z</time></trkpt><trkpt lat="42.1808834" lon="13.637404"><ele>1091.7142857142858</ele><time>2026-05-01T09:48:17.445Z</time></trkpt><trkpt lat="42.1809345" lon="13.6373472"><ele>1091.0</ele><time>2026-05-01T09:48:23.443Z</time></trkpt><trkpt lat="42.1809802" lon="13.6372636"><ele>1091.0</ele><time>2026-05-01T09:49:49.442Z</time></trkpt><trkpt lat="42.1810292" lon="13.6372027"><ele>1091.0</ele><time>2026-05-01T09:49:54.43Z</time></trkpt><trkpt lat="42.1810678" lon="13.6371311"><ele>1091.0</ele><time>2026-05-01T09:50:00.441Z</time></trkpt><trkpt lat="42.181108" lon="13.6370626"><ele>1091.0</ele><time>2026-05-01T09:50:06.44Z</time></trkpt><trkpt lat="42.1811515" lon="13.6369916"><ele>1091.0</ele><time>2026-05-01T09:50:12.384Z</time></trkpt><trkpt lat="42.1811964" lon="13.636917"><ele>1091.0</ele><time>2026-05-01T09:50:19.441Z</time></trkpt><trkpt lat="42.1812457" lon="13.6368452"><ele>1091.0</ele><time>2026-05-01T09:50:26.368Z</time></trkpt><trkpt lat="42.1812885" lon="13.6367822"><ele>1090.7142857142858</ele><time>2026-05-01T09:50:32.443Z</time></trkpt><trkpt lat="42.1813324" lon="13.6367191"><ele>1090.4285714285716</ele><time>2026-05-01T09:50:38.445Z</time></trkpt><trkpt lat="42.1813754" lon="13.6366482"><ele>1090.1428571428573</ele><time>2026-05-01T09:50:44.455Z</time></trkpt><trkpt lat="42.1814146" lon="13.6365759"><ele>1089.857142857143</ele><time>2026-05-01T09:50:50.666Z</time></trkpt><trkpt lat="42.1814573" lon="13.6365062"><ele>1089.5714285714287</ele><time>2026-05-01T09:50:56.924Z</time></trkpt><trkpt lat="42.1815073" lon="13.6364369"><ele>1089.2857142857144</ele><time>2026-05-01T09:51:03.193Z</time></trkpt><trkpt lat="42.1815469" lon="13.6363619"><ele>1089.0</ele><time>2026-05-01T09:51:09.447Z</time></trkpt><trkpt lat="42.1815939" lon="13.6362965"><ele>1089.0000000000002</ele><time>2026-05-01T09:51:18.454Z</time></trkpt><trkpt lat="42.181635" lon="13.6362278"><ele>1089.0</ele><time>2026-05-01T09:51:25.444Z</time></trkpt><trkpt lat="42.1816898" lon="13.6361715"><ele>1089.0</ele><time>2026-05-01T09:51:33.481Z</time></trkpt><trkpt lat="42.1817189" lon="13.6360905"><ele>1089.0</ele><time>2026-05-01T09:51:40.483Z</time></trkpt><trkpt lat="42.1817574" lon="13.6360181"><ele>1089.0</ele><time>2026-05-01T09:51:47.442Z</time></trkpt><trkpt lat="42.1816931" lon="13.6360017"><ele>1089.0000000000002</ele><time>2026-05-01T09:51:58.487Z</time></trkpt><trkpt lat="42.1817472" lon="13.6359361"><ele>1089.0</ele><time>2026-05-01T09:52:07.486Z</time></trkpt><trkpt lat="42.1817846" lon="13.635857"><ele>1086.5714285714287</ele><time>2026-05-01T09:52:13.475Z</time></trkpt><trkpt lat="42.1818447" lon="13.6357997"><ele>1084.142857142857</ele><time>2026-05-01T09:52:19.441Z</time></trkpt><trkpt lat="42.1818927" lon="13.6357441"><ele>1081.7142857142858</ele><time>2026-05-01T09:52:24.442Z</time></trkpt><trkpt lat="42.181947" lon="13.6356765"><ele>1079.2857142857142</ele><time>2026-05-01T09:52:30.473Z</time></trkpt><trkpt lat="42.1819929" lon="13.6356091"><ele>1076.857142857143</ele><time>2026-05-01T09:52:36.425Z</time></trkpt><trkpt lat="42.1820341" lon="13.6355302"><ele>1074.4285714285716</ele><time>2026-05-01T09:52:43.448Z</time></trkpt><trkpt lat="42.1820679" lon="13.6354404"><ele>1072.0</ele><time>2026-05-01T09:52:50.489Z</time></trkpt><trkpt lat="42.1820992" lon="13.6353638"><ele>1071.4285714285716</ele><time>2026-05-01T09:52:56.441Z</time></trkpt><trkpt lat="42.1821426" lon="13.6353002"><ele>1070.857142857143</ele><time>2026-05-01T09:53:02.204Z</time></trkpt><trkpt lat="42.182193" lon="13.6352354"><ele>1070.2857142857142</ele><time>2026-05-01T09:53:08.453Z</time></trkpt><trkpt lat="42.1822272" lon="13.6351639"><ele>1069.7142857142858</ele><time>2026-05-01T09:53:14.442Z</time></trkpt><trkpt lat="42.1822774" lon="13.6350921"><ele>1069.142857142857</ele><time>2026-05-01T09:53:21.469Z</time></trkpt><trkpt lat="42.1823228" lon="13.635032"><ele>1068.5714285714287</ele><time>2026-05-01T09:53:27.442Z</time></trkpt><trkpt lat="42.182375" lon="13.6349681"><ele>1068.0</ele><time>2026-05-01T09:53:33.348Z</time></trkpt><trkpt lat="42.1824363" lon="13.6349356"><ele>1068.0000000000002</ele><time>2026-05-01T09:53:39.439Z</time></trkpt><trkpt lat="42.1824883" lon="13.6348636"><ele>1068.0</ele><time>2026-05-01T09:53:46.471Z</time></trkpt><trkpt lat="42.1825355" lon="13.6347989"><ele>1068.0</ele><time>2026-05-01T09:53:52.449Z</time></trkpt><trkpt lat="42.1825844" lon="13.6347447"><ele>1068.0</ele><time>2026-05-01T09:53:58.484Z</time></trkpt><trkpt lat="42.1826322" lon="13.6346851"><ele>1068.0</ele><time>2026-05-01T09:54:05.432Z</time></trkpt><trkpt lat="42.1826767" lon="13.6346165"><ele>1068.0000000000002</ele><time>2026-05-01T09:54:14.477Z</time></trkpt><trkpt lat="42.18272" lon="13.6345522"><ele>1068.0</ele><time>2026-05-01T09:54:20.388Z</time></trkpt><trkpt lat="42.1827739" lon="13.6344943"><ele>1065.2857142857144</ele><time>2026-05-01T09:54:26.497Z</time></trkpt><trkpt lat="42.1828296" lon="13.6344306"><ele>1062.5714285714287</ele><time>2026-05-01T09:54:33.488Z</time></trkpt><trkpt lat="42.1828873" lon="13.6343828"><ele>1059.857142857143</ele><time>2026-05-01T09:54:39.39Z</time></trkpt><trkpt lat="42.1829445" lon="13.6343344"><ele>1057.1428571428573</ele><time>2026-05-01T09:54:45.465Z</time></trkpt><trkpt lat="42.1829964" lon="13.6342752"><ele>1054.4285714285716</ele><time>2026-05-01T09:54:51.443Z</time></trkpt><trkpt lat="42.1830518" lon="13.6342207"><ele>1051.7142857142858</ele><time>2026-05-01T09:54:57.445Z</time></trkpt><trkpt lat="42.1831067" lon="13.6341598"><ele>1049.0</ele><time>2026-05-01T09:55:03.462Z</time></trkpt><trkpt lat="42.1831578" lon="13.6341003"><ele>1050.2857142857142</ele><time>2026-05-01T09:55:09.463Z</time></trkpt><trkpt lat="42.1832085" lon="13.634049"><ele>1051.5714285714287</ele><time>2026-05-01T09:55:15.443Z</time></trkpt><trkpt lat="42.183271" lon="13.6339954"><ele>1052.857142857143</ele><time>2026-05-01T09:55:21.466Z</time></trkpt><trkpt lat="42.183332" lon="13.6339464"><ele>1054.142857142857</ele><time>2026-05-01T09:55:27.409Z</time></trkpt><trkpt lat="42.1833866" lon="13.6338948"><ele>1055.4285714285713</ele><time>2026-05-01T09:55:33.444Z</time></trkpt><trkpt lat="42.183439" lon="13.6338392"><ele>1056.7142857142858</ele><time>2026-05-01T09:55:39.47Z</time></trkpt><trkpt lat="42.183492" lon="13.6337813"><ele>1058.0</ele><time>2026-05-01T09:55:45.442Z</time></trkpt><trkpt lat="42.1835469" lon="13.6337274"><ele>1058.0</ele><time>2026-05-01T09:55:51.428Z</time></trkpt><trkpt lat="42.1836008" lon="13.6336669"><ele>1058.0</ele><time>2026-05-01T09:55:57.474Z</time></trkpt><trkpt lat="42.1836598" lon="13.6336248"><ele>1058.0</ele><time>2026-05-01T09:56:03.444Z</time></trkpt><trkpt lat="42.1837127" lon="13.633572"><ele>1058.0</ele><time>2026-05-01T09:56:09.273Z</time></trkpt><trkpt lat="42.183768" lon="13.633515"><ele>1058.0</ele><time>2026-05-01T09:56:15.386Z</time></trkpt><trkpt lat="42.183815" lon="13.6334557"><ele>1058.0</ele><time>2026-05-01T09:56:21.442Z</time></trkpt><trkpt lat="42.1838727" lon="13.633402"><ele>1058.0</ele><time>2026-05-01T09:56:27.448Z</time></trkpt><trkpt lat="42.1839249" lon="13.633347"><ele>1056.857142857143</ele><time>2026-05-01T09:56:33.391Z</time></trkpt><trkpt lat="42.1839806" lon="13.6332967"><ele>1055.7142857142858</ele><time>2026-05-01T09:56:39.447Z</time></trkpt><trkpt lat="42.1840426" lon="13.6332566"><ele>1054.5714285714284</ele><time>2026-05-01T09:56:45.452Z</time></trkpt><trkpt lat="42.1841" lon="13.6332116"><ele>1053.4285714285716</ele><time>2026-05-01T09:56:51.487Z</time></trkpt><trkpt lat="42.1841561" lon="13.6331547"><ele>1052.2857142857142</ele><time>2026-05-01T09:56:57.514Z</time></trkpt><trkpt lat="42.1841927" lon="13.6330804"><ele>1051.142857142857</ele><time>2026-05-01T09:57:03.456Z</time></trkpt><trkpt lat="42.1842204" lon="13.6330029"><ele>1050.0</ele><time>2026-05-01T09:57:09.439Z</time></trkpt><trkpt lat="42.1842561" lon="13.6329228"><ele>1050.0</ele><time>2026-05-01T09:57:15.401Z</time></trkpt><trkpt lat="42.1842942" lon="13.6328479"><ele>1050.0</ele><time>2026-05-01T09:57:21.461Z</time></trkpt><trkpt lat="42.1843324" lon="13.6327664"><ele>1050.0</ele><time>2026-05-01T09:57:28.468Z</time></trkpt><trkpt lat="42.1843824" lon="13.6327006"><ele>1050.0</ele><time>2026-05-01T09:57:34.443Z</time></trkpt><trkpt lat="42.184436" lon="13.6326409"><ele>1050.0</ele><time>2026-05-01T09:57:40.47Z</time></trkpt><trkpt lat="42.1844955" lon="13.6325974"><ele>1050.0</ele><time>2026-05-01T09:57:47.39Z</time></trkpt><trkpt lat="42.1845472" lon="13.6325404"><ele>1050.0</ele><time>2026-05-01T09:57:53.445Z</time></trkpt><trkpt lat="42.1845893" lon="13.6324705"><ele>1047.857142857143</ele><time>2026-05-01T09:57:59.481Z</time></trkpt><trkpt lat="42.1846274" lon="13.6323975"><ele>1045.7142857142858</ele><time>2026-05-01T09:58:05.441Z</time></trkpt><trkpt lat="42.1846702" lon="13.6323295"><ele>1043.5714285714284</ele><time>2026-05-01T09:58:11.45Z</time></trkpt><trkpt lat="42.1847056" lon="13.6322476"><ele>1041.4285714285716</ele><time>2026-05-01T09:58:18.441Z</time></trkpt><trkpt lat="42.1847449" lon="13.632181"><ele>1039.2857142857142</ele><time>2026-05-01T09:58:24.443Z</time></trkpt><trkpt lat="42.1847861" lon="13.6321062"><ele>1037.142857142857</ele><time>2026-05-01T09:58:30.459Z</time></trkpt><trkpt lat="42.1848262" lon="13.6320379"><ele>1035.0</ele><time>2026-05-01T09:58:36.494Z</time></trkpt><trkpt lat="42.1848544" lon="13.6319618"><ele>1034.4285714285713</ele><time>2026-05-01T09:58:42.444Z</time></trkpt><trkpt lat="42.1848859" lon="13.631883"><ele>1033.857142857143</ele><time>2026-05-01T09:58:48.51Z</time></trkpt><trkpt lat="42.1849132" lon="13.6317954"><ele>1033.2857142857142</ele><time>2026-05-01T09:58:55.441Z</time></trkpt><trkpt lat="42.1849468" lon="13.6317235"><ele>1032.7142857142858</ele><time>2026-05-01T09:59:01.442Z</time></trkpt><trkpt lat="42.1849881" lon="13.6316548"><ele>1032.142857142857</ele><time>2026-05-01T09:59:07.473Z</time></trkpt><trkpt lat="42.1850324" lon="13.6315772"><ele>1031.5714285714284</ele><time>2026-05-01T09:59:14.441Z</time></trkpt><trkpt lat="42.1850548" lon="13.6314975"><ele>1031.0</ele><time>2026-05-01T09:59:21.454Z</time></trkpt><trkpt lat="42.1851117" lon="13.6314483"><ele>1031.0</ele><time>2026-05-01T09:59:33.442Z</time></trkpt><trkpt lat="42.185142" lon="13.6313548"><ele>1031.0</ele><time>2026-05-01T09:59:48.444Z</time></trkpt><trkpt lat="42.1851565" lon="13.6312638"><ele>1031.0</ele><time>2026-05-01T09:59:54.445Z</time></trkpt><trkpt lat="42.1851607" lon="13.6311698"><ele>1031.0</ele><time>2026-05-01T10:00:00.48Z</time></trkpt><trkpt lat="42.1851767" lon="13.631083"><ele>1031.0</ele><time>2026-05-01T10:00:06.442Z</time></trkpt><trkpt lat="42.1852001" lon="13.630997"><ele>1031.0</ele><time>2026-05-01T10:00:12.45Z</time></trkpt><trkpt lat="42.1852193" lon="13.6309097"><ele>1031.0</ele><time>2026-05-01T10:00:18.485Z</time></trkpt><trkpt lat="42.1852421" lon="13.6308279"><ele>1028.857142857143</ele><time>2026-05-01T10:00:24.441Z</time></trkpt><trkpt lat="42.1852716" lon="13.630747"><ele>1026.7142857142856</ele><time>2026-05-01T10:00:30.352Z</time></trkpt><trkpt lat="42.1853117" lon="13.6306617"><ele>1024.5714285714284</ele><time>2026-05-01T10:00:37.494Z</time></trkpt><trkpt lat="42.1853474" lon="13.6305757"><ele>1022.4285714285713</ele><time>2026-05-01T10:00:44.414Z</time></trkpt><trkpt lat="42.1853799" lon="13.6305024"><ele>1020.2857142857142</ele><time>2026-05-01T10:00:50.469Z</time></trkpt><trkpt lat="42.1853753" lon="13.6304071"><ele>1018.1428571428571</ele><time>2026-05-01T10:00:57.445Z</time></trkpt><trkpt lat="42.1854371" lon="13.6303685"><ele>1016.0</ele><time>2026-05-01T10:01:03.444Z</time></trkpt><trkpt lat="42.1854722" lon="13.6302824"><ele>1016.0</ele><time>2026-05-01T10:01:58.466Z</time></trkpt><trkpt lat="42.1855399" lon="13.6302563"><ele>1016.0</ele><time>2026-05-01T10:02:08.456Z</time></trkpt><trkpt lat="42.1855847" lon="13.630195"><ele>1016.0</ele><time>2026-05-01T10:02:13.412Z</time></trkpt><trkpt lat="42.1856462" lon="13.6301443"><ele>1016.0</ele><time>2026-05-01T10:02:19.488Z</time></trkpt><trkpt lat="42.1856773" lon="13.6300538"><ele>1016.0</ele><time>2026-05-01T10:02:38.445Z</time></trkpt><trkpt lat="42.1857147" lon="13.62998"><ele>1016.0</ele><time>2026-05-01T10:02:43.465Z</time></trkpt><trkpt lat="42.1857649" lon="13.629927"><ele>1016.0</ele><time>2026-05-01T10:02:48.502Z</time></trkpt><trkpt lat="42.1858235" lon="13.6298698"><ele>1016.0</ele><time>2026-05-01T10:02:54.442Z</time></trkpt><trkpt lat="42.185889" lon="13.6298307"><ele>1016.0</ele><time>2026-05-01T10:03:00.415Z</time></trkpt><trkpt lat="42.1859339" lon="13.6297678"><ele>1016.0</ele><time>2026-05-01T10:03:05.429Z</time></trkpt><trkpt lat="42.1859911" lon="13.6297035"><ele>1016.0</ele><time>2026-05-01T10:03:11.447Z</time></trkpt><trkpt lat="42.1860529" lon="13.629653"><ele>1016.0</ele><time>2026-05-01T10:03:17.445Z</time></trkpt><trkpt lat="42.1861108" lon="13.6295926"><ele>1016.0</ele><time>2026-05-01T10:03:23.366Z</time></trkpt><trkpt lat="42.1861743" lon="13.6295474"><ele>1016.0</ele><time>2026-05-01T10:03:29.446Z</time></trkpt><trkpt lat="42.1862363" lon="13.6295038"><ele>1015.0</ele><time>2026-05-01T10:03:35.445Z</time></trkpt><trkpt lat="42.1863019" lon="13.6294636"><ele>1014.0</ele><time>2026-05-01T10:03:41.462Z</time></trkpt><trkpt lat="42.1863681" lon="13.6294217"><ele>1013.0</ele><time>2026-05-01T10:03:47.365Z</time></trkpt><trkpt lat="42.1864319" lon="13.6293717"><ele>1012.0</ele><time>2026-05-01T10:03:53.445Z</time></trkpt><trkpt lat="42.1864955" lon="13.6293243"><ele>1011.0</ele><time>2026-05-01T10:03:59.466Z</time></trkpt><trkpt lat="42.1865599" lon="13.62928"><ele>1010.0</ele><time>2026-05-01T10:04:05.408Z</time></trkpt><trkpt lat="42.1866184" lon="13.6292236"><ele>1009.0</ele><time>2026-05-01T10:04:11.511Z</time></trkpt><trkpt lat="42.1866759" lon="13.629177"><ele>1009.0</ele><time>2026-05-01T10:04:17.47Z</time></trkpt><trkpt lat="42.1867307" lon="13.6291316"><ele>1009.0</ele><time>2026-05-01T10:04:23.443Z</time></trkpt><trkpt lat="42.1867909" lon="13.6290744"><ele>1009.0</ele><time>2026-05-01T10:04:29.472Z</time></trkpt><trkpt lat="42.1868535" lon="13.6290249"><ele>1009.0</ele><time>2026-05-01T10:04:35.473Z</time></trkpt><trkpt lat="42.1869101" lon="13.6289595"><ele>1009.0</ele><time>2026-05-01T10:04:41.448Z</time></trkpt><trkpt lat="42.186975" lon="13.6289158"><ele>1009.0</ele><time>2026-05-01T10:04:47.475Z</time></trkpt><trkpt lat="42.1870367" lon="13.6288615"><ele>1009.0</ele><time>2026-05-01T10:04:53.477Z</time></trkpt><trkpt lat="42.1870936" lon="13.6288044"><ele>1009.0</ele><time>2026-05-01T10:04:59.448Z</time></trkpt><trkpt lat="42.1871539" lon="13.6287434"><ele>1009.0</ele><time>2026-05-01T10:05:05.446Z</time></trkpt><trkpt lat="42.187184" lon="13.6286531"><ele>1009.0</ele><time>2026-05-01T10:05:11.481Z</time></trkpt><trkpt lat="42.1872487" lon="13.6286549"><ele>1009.0</ele><time>2026-05-01T10:05:16.441Z</time></trkpt><trkpt lat="42.1873106" lon="13.6286133"><ele>1009.0</ele><time>2026-05-01T10:05:21.344Z</time></trkpt><trkpt lat="42.1873582" lon="13.6285501"><ele>1009.0</ele><time>2026-05-01T10:05:26.442Z</time></trkpt><trkpt lat="42.1874081" lon="13.6284797"><ele>1009.0</ele><time>2026-05-01T10:05:32.44Z</time></trkpt><trkpt lat="42.1874602" lon="13.6284175"><ele>1008.4285714285714</ele><time>2026-05-01T10:05:38.446Z</time></trkpt><trkpt lat="42.1875126" lon="13.6283546"><ele>1007.8571428571429</ele><time>2026-05-01T10:05:44.447Z</time></trkpt><trkpt lat="42.1875684" lon="13.6282982"><ele>1007.2857142857143</ele><time>2026-05-01T10:05:51.442Z</time></trkpt><trkpt lat="42.1876158" lon="13.6282414"><ele>1006.7142857142858</ele><time>2026-05-01T10:05:57.483Z</time></trkpt><trkpt lat="42.1876669" lon="13.6281813"><ele>1006.1428571428571</ele><time>2026-05-01T10:06:03.483Z</time></trkpt><trkpt lat="42.1877277" lon="13.6281255"><ele>1005.5714285714287</ele><time>2026-05-01T10:06:09.441Z</time></trkpt><trkpt lat="42.1877786" lon="13.6280724"><ele>1005.0000000000001</ele><time>2026-05-01T10:06:14.447Z</time></trkpt><trkpt lat="42.1878344" lon="13.6280067"><ele>1005.0000000000001</ele><time>2026-05-01T10:06:20.482Z</time></trkpt><trkpt lat="42.1878908" lon="13.6279517"><ele>1005.0</ele><time>2026-05-01T10:06:26.442Z</time></trkpt><trkpt lat="42.187942" lon="13.6278933"><ele>1005.0000000000001</ele><time>2026-05-01T10:06:32.226Z</time></trkpt><trkpt lat="42.1880018" lon="13.6278321"><ele>1005.0000000000001</ele><time>2026-05-01T10:06:38.487Z</time></trkpt><trkpt lat="42.1880235" lon="13.6277522"><ele>1005.0</ele><time>2026-05-01T10:06:45.425Z</time></trkpt><trkpt lat="42.1880973" lon="13.6277629"><ele>1005.0000000000001</ele><time>2026-05-01T10:06:51.463Z</time></trkpt><trkpt lat="42.1881587" lon="13.6277432"><ele>1005.0000000000001</ele><time>2026-05-01T10:06:55.485Z</time></trkpt><trkpt lat="42.1882186" lon="13.6277028"><ele>1005.0000000000001</ele><time>2026-05-01T10:07:00.447Z</time></trkpt><trkpt lat="42.1882681" lon="13.6276431"><ele>1005.0</ele><time>2026-05-01T10:07:05.491Z</time></trkpt><trkpt lat="42.1883122" lon="13.6275607"><ele>1005.0000000000001</ele><time>2026-05-01T10:07:10.472Z</time></trkpt><trkpt lat="42.1883507" lon="13.6274927"><ele>1005.0000000000001</ele><time>2026-05-01T10:07:15.5Z</time></trkpt><trkpt lat="42.1884056" lon="13.6274346"><ele>1005.0</ele><time>2026-05-01T10:07:21.434Z</time></trkpt><trkpt lat="42.1884607" lon="13.6273822"><ele>1005.0000000000001</ele><time>2026-05-01T10:07:27.469Z</time></trkpt><trkpt lat="42.1885167" lon="13.6273329"><ele>1005.0000000000001</ele><time>2026-05-01T10:07:33.444Z</time></trkpt><trkpt lat="42.188561" lon="13.6272663"><ele>1005.0000000000001</ele><time>2026-05-01T10:07:39.445Z</time></trkpt><trkpt lat="42.1886116" lon="13.6272021"><ele>1005.0</ele><time>2026-05-01T10:07:45.44Z</time></trkpt><trkpt lat="42.1886636" lon="13.6271405"><ele>1005.0000000000001</ele><time>2026-05-01T10:07:51.445Z</time></trkpt><trkpt lat="42.1887169" lon="13.6270751"><ele>1005.0000000000001</ele><time>2026-05-01T10:07:57.445Z</time></trkpt><trkpt lat="42.188775" lon="13.6270292"><ele>1005.0</ele><time>2026-05-01T10:08:02.472Z</time></trkpt><trkpt lat="42.1888281" lon="13.6269671"><ele>1005.0000000000001</ele><time>2026-05-01T10:09:34.443Z</time></trkpt><trkpt lat="42.1888728" lon="13.6268985"><ele>1005.0000000000001</ele><time>2026-05-01T10:10:41.443Z</time></trkpt><trkpt lat="42.1889179" lon="13.6268344"><ele>1005.1428571428573</ele><time>2026-05-01T10:10:47.468Z</time></trkpt><trkpt lat="42.1889726" lon="13.6267771"><ele>1005.2857142857143</ele><time>2026-05-01T10:10:52.498Z</time></trkpt><trkpt lat="42.1890252" lon="13.6267036"><ele>1005.4285714285716</ele><time>2026-05-01T10:10:58.448Z</time></trkpt><trkpt lat="42.1890737" lon="13.6266476"><ele>1005.5714285714287</ele><time>2026-05-01T10:11:03.468Z</time></trkpt><trkpt lat="42.1891106" lon="13.6265704"><ele>1005.7142857142858</ele><time>2026-05-01T10:11:09.496Z</time></trkpt><trkpt lat="42.1891664" lon="13.6265277"><ele>1005.8571428571429</ele><time>2026-05-01T10:11:14.39Z</time></trkpt><trkpt lat="42.189228" lon="13.6264706"><ele>1006.0</ele><time>2026-05-01T10:11:20.459Z</time></trkpt><trkpt lat="42.1892907" lon="13.6264174"><ele>1006.0</ele><time>2026-05-01T10:11:26.493Z</time></trkpt><trkpt lat="42.1893472" lon="13.6263636"><ele>1006.0000000000001</ele><time>2026-05-01T10:11:32.443Z</time></trkpt><trkpt lat="42.1894046" lon="13.6263103"><ele>1006.0</ele><time>2026-05-01T10:11:38.462Z</time></trkpt><trkpt lat="42.1894591" lon="13.6262453"><ele>1006.0</ele><time>2026-05-01T10:11:44.483Z</time></trkpt><trkpt lat="42.1895048" lon="13.6261752"><ele>1006.0000000000001</ele><time>2026-05-01T10:11:50.386Z</time></trkpt><trkpt lat="42.1895775" lon="13.6261348"><ele>1006.0</ele><time>2026-05-01T10:12:04.471Z</time></trkpt><trkpt lat="42.189637" lon="13.6261002"><ele>1006.0</ele><time>2026-05-01T10:12:09.444Z</time></trkpt><trkpt lat="42.1896777" lon="13.6260276"><ele>1006.7142857142858</ele><time>2026-05-01T10:12:37.444Z</time></trkpt><trkpt lat="42.1897255" lon="13.6259707"><ele>1007.4285714285716</ele><time>2026-05-01T10:12:42.443Z</time></trkpt><trkpt lat="42.1897804" lon="13.6259069"><ele>1008.1428571428571</ele><time>2026-05-01T10:12:49.471Z</time></trkpt><trkpt lat="42.1898335" lon="13.6258459"><ele>1008.8571428571429</ele><time>2026-05-01T10:12:56.428Z</time></trkpt><trkpt lat="42.1898821" lon="13.6257894"><ele>1009.5714285714286</ele><time>2026-05-01T10:13:02.45Z</time></trkpt><trkpt lat="42.1898995" lon="13.6257063"><ele>1010.2857142857142</ele><time>2026-05-01T10:13:26.483Z</time></trkpt><trkpt lat="42.1899518" lon="13.6256538"><ele>1010.9999999999999</ele><time>2026-05-01T10:13:31.443Z</time></trkpt><trkpt lat="42.1900055" lon="13.6255895"><ele>1010.9999999999999</ele><time>2026-05-01T10:13:37.446Z</time></trkpt><trkpt lat="42.1900633" lon="13.6255467"><ele>1011.0</ele><time>2026-05-01T10:13:43.414Z</time></trkpt><trkpt lat="42.1901228" lon="13.6254951"><ele>1010.9999999999999</ele><time>2026-05-01T10:13:49.447Z</time></trkpt><trkpt lat="42.190168" lon="13.6254346"><ele>1010.9999999999999</ele><time>2026-05-01T10:13:54.445Z</time></trkpt><trkpt lat="42.1901918" lon="13.6253542"><ele>1011.0</ele><time>2026-05-01T10:14:01.449Z</time></trkpt><trkpt lat="42.1902519" lon="13.6253165"><ele>1010.9999999999999</ele><time>2026-05-01T10:15:01.441Z</time></trkpt><trkpt lat="42.1903032" lon="13.6252463"><ele>1010.9999999999999</ele><time>2026-05-01T10:15:06.449Z</time></trkpt><trkpt lat="42.1903437" lon="13.6251797"><ele>1012.4285714285713</ele><time>2026-05-01T10:15:10.442Z</time></trkpt><trkpt lat="42.1903933" lon="13.6251228"><ele>1013.8571428571429</ele><time>2026-05-01T10:15:14.446Z</time></trkpt><trkpt lat="42.1904416" lon="13.6250669"><ele>1015.2857142857142</ele><time>2026-05-01T10:15:18.449Z</time></trkpt><trkpt lat="42.1904934" lon="13.625009"><ele>1016.7142857142857</ele><time>2026-05-01T10:15:24.493Z</time></trkpt><trkpt lat="42.190529" lon="13.6249362"><ele>1018.1428571428571</ele><time>2026-05-01T10:15:28.443Z</time></trkpt><trkpt lat="42.190579" lon="13.6248682"><ele>1019.5714285714286</ele><time>2026-05-01T10:15:33.444Z</time></trkpt><trkpt lat="42.1906199" lon="13.6248027"><ele>1021.0</ele><time>2026-05-01T10:15:38.441Z</time></trkpt><trkpt lat="42.1906753" lon="13.6247458"><ele>1021.0</ele><time>2026-05-01T10:15:44.441Z</time></trkpt><trkpt lat="42.1907246" lon="13.6246673"><ele>1021.0</ele><time>2026-05-01T10:15:51.465Z</time></trkpt><trkpt lat="42.1907672" lon="13.6245982"><ele>1021.0</ele><time>2026-05-01T10:15:55.482Z</time></trkpt><trkpt lat="42.1908255" lon="13.6245315"><ele>1021.0</ele><time>2026-05-01T10:16:00.482Z</time></trkpt><trkpt lat="42.1908778" lon="13.6244661"><ele>1021.0</ele><time>2026-05-01T10:16:05.462Z</time></trkpt><trkpt lat="42.1909401" lon="13.6244296"><ele>1021.0</ele><time>2026-05-01T10:16:10.421Z</time></trkpt><trkpt lat="42.1909774" lon="13.6243508"><ele>1021.0</ele><time>2026-05-01T10:16:23.499Z</time></trkpt><trkpt lat="42.1910365" lon="13.6242848"><ele>1018.4285714285713</ele><time>2026-05-01T10:16:29.44Z</time></trkpt><trkpt lat="42.1910839" lon="13.6242276"><ele>1015.8571428571429</ele><time>2026-05-01T10:16:34.44Z</time></trkpt><trkpt lat="42.1911357" lon="13.6241616"><ele>1013.2857142857142</ele><time>2026-05-01T10:16:40.444Z</time></trkpt><trkpt lat="42.1911943" lon="13.6241016"><ele>1010.7142857142857</ele><time>2026-05-01T10:16:47.449Z</time></trkpt><trkpt lat="42.1912598" lon="13.6240699"><ele>1008.1428571428571</ele><time>2026-05-01T10:16:52.445Z</time></trkpt><trkpt lat="42.1912922" lon="13.6239958"><ele>1005.5714285714286</ele><time>2026-05-01T10:16:56.47Z</time></trkpt><trkpt lat="42.191331" lon="13.6239175"><ele>1003.0</ele><time>2026-05-01T10:17:01.444Z</time></trkpt><trkpt lat="42.1913866" lon="13.6238658"><ele>1003.0</ele><time>2026-05-01T10:17:06.381Z</time></trkpt><trkpt lat="42.1914403" lon="13.6238121"><ele>1002.9999999999999</ele><time>2026-05-01T10:17:11.365Z</time></trkpt><trkpt lat="42.1914949" lon="13.6237591"><ele>1003.0</ele><time>2026-05-01T10:17:16.441Z</time></trkpt><trkpt lat="42.1915488" lon="13.6237137"><ele>1003.0</ele><time>2026-05-01T10:17:21.442Z</time></trkpt><trkpt lat="42.1916056" lon="13.6236532"><ele>1002.9999999999999</ele><time>2026-05-01T10:17:26.444Z</time></trkpt><trkpt lat="42.1916501" lon="13.6235859"><ele>1003.0</ele><time>2026-05-01T10:17:31.472Z</time></trkpt><trkpt lat="42.1916916" lon="13.6235171"><ele>1003.0</ele><time>2026-05-01T10:17:36.443Z</time></trkpt><trkpt lat="42.1917434" lon="13.6234515"><ele>1004.4285714285713</ele><time>2026-05-01T10:17:41.444Z</time></trkpt><trkpt lat="42.191792" lon="13.6233832"><ele>1005.8571428571428</ele><time>2026-05-01T10:17:46.487Z</time></trkpt><trkpt lat="42.191848" lon="13.6233168"><ele>1007.2857142857142</ele><time>2026-05-01T10:17:52.439Z</time></trkpt><trkpt lat="42.1918979" lon="13.6232538"><ele>1008.7142857142858</ele><time>2026-05-01T10:17:57.444Z</time></trkpt><trkpt lat="42.1919468" lon="13.6231907"><ele>1010.1428571428572</ele><time>2026-05-01T10:18:02.469Z</time></trkpt><trkpt lat="42.1920026" lon="13.6231234"><ele>1011.5714285714287</ele><time>2026-05-01T10:18:08.487Z</time></trkpt><trkpt lat="42.1920525" lon="13.6230482"><ele>1013.0</ele><time>2026-05-01T10:18:14.442Z</time></trkpt><trkpt lat="42.192074" lon="13.622953"><ele>1013.0</ele><time>2026-05-01T10:18:20.457Z</time></trkpt><trkpt lat="42.1921169" lon="13.6228763"><ele>1013.0000000000001</ele><time>2026-05-01T10:18:26.491Z</time></trkpt><trkpt lat="42.1921802" lon="13.6228234"><ele>1013.0</ele><time>2026-05-01T10:18:32.445Z</time></trkpt><trkpt lat="42.1922341" lon="13.6227673"><ele>1013.0</ele><time>2026-05-01T10:18:38.461Z</time></trkpt><trkpt lat="42.1922985" lon="13.6227214"><ele>1013.0000000000001</ele><time>2026-05-01T10:18:44.495Z</time></trkpt><trkpt lat="42.1923501" lon="13.6226496"><ele>1013.0</ele><time>2026-05-01T10:18:50.447Z</time></trkpt><trkpt lat="42.1924013" lon="13.6225765"><ele>1013.0</ele><time>2026-05-01T10:18:56.466Z</time></trkpt><trkpt lat="42.1924456" lon="13.6225121"><ele>1013.8571428571429</ele><time>2026-05-01T10:19:02.444Z</time></trkpt><trkpt lat="42.1924885" lon="13.6224488"><ele>1014.7142857142858</ele><time>2026-05-01T10:19:08.446Z</time></trkpt><trkpt lat="42.1925412" lon="13.6223882"><ele>1015.5714285714287</ele><time>2026-05-01T10:19:14.469Z</time></trkpt><trkpt lat="42.1925938" lon="13.6223388"><ele>1016.4285714285716</ele><time>2026-05-01T10:19:20.373Z</time></trkpt><trkpt lat="42.1926407" lon="13.6222737"><ele>1017.2857142857143</ele><time>2026-05-01T10:19:26.505Z</time></trkpt><trkpt lat="42.1926991" lon="13.6222169"><ele>1018.1428571428573</ele><time>2026-05-01T10:19:33.41Z</time></trkpt><trkpt lat="42.1927525" lon="13.6221637"><ele>1019.0000000000001</ele><time>2026-05-01T10:19:39.443Z</time></trkpt><trkpt lat="42.1928068" lon="13.6220997"><ele>1019.0000000000001</ele><time>2026-05-01T10:19:46.391Z</time></trkpt><trkpt lat="42.1928644" lon="13.6220504"><ele>1019.0</ele><time>2026-05-01T10:19:52.488Z</time></trkpt><trkpt lat="42.1929173" lon="13.6219944"><ele>1019.0000000000001</ele><time>2026-05-01T10:19:59.442Z</time></trkpt><trkpt lat="42.1929746" lon="13.6219356"><ele>1019.0000000000001</ele><time>2026-05-01T10:20:06.468Z</time></trkpt><trkpt lat="42.1930252" lon="13.6218791"><ele>1019.0</ele><time>2026-05-01T10:20:14.25Z</time></trkpt><trkpt lat="42.1930768" lon="13.6218146"><ele>1019.0000000000001</ele><time>2026-05-01T10:20:21.454Z</time></trkpt><trkpt lat="42.1931416" lon="13.6217775"><ele>1019.0000000000001</ele><time>2026-05-01T10:20:28.444Z</time></trkpt><trkpt lat="42.1932" lon="13.621719"><ele>1019.857142857143</ele><time>2026-05-01T10:20:35.447Z</time></trkpt><trkpt lat="42.1932575" lon="13.6216594"><ele>1020.7142857142858</ele><time>2026-05-01T10:20:42.475Z</time></trkpt><trkpt lat="42.1933122" lon="13.6216025"><ele>1021.5714285714286</ele><time>2026-05-01T10:20:49.451Z</time></trkpt><trkpt lat="42.1933644" lon="13.6215479"><ele>1022.4285714285714</ele><time>2026-05-01T10:20:58.467Z</time></trkpt><trkpt lat="42.1934271" lon="13.6214824"><ele>1023.2857142857142</ele><time>2026-05-01T10:22:17.45Z</time></trkpt><trkpt lat="42.1934777" lon="13.6214214"><ele>1024.142857142857</ele><time>2026-05-01T10:22:22.406Z</time></trkpt><trkpt lat="42.1935233" lon="13.6213538"><ele>1025.0</ele><time>2026-05-01T10:22:28.486Z</time></trkpt><trkpt lat="42.1935772" lon="13.6213077"><ele>1024.9999999999998</ele><time>2026-05-01T10:22:54.443Z</time></trkpt><trkpt lat="42.1936315" lon="13.6212513"><ele>1025.0</ele><time>2026-05-01T10:22:59.512Z</time></trkpt><trkpt lat="42.1936879" lon="13.6212026"><ele>1025.0</ele><time>2026-05-01T10:23:05.498Z</time></trkpt><trkpt lat="42.1937465" lon="13.6211627"><ele>1025.0</ele><time>2026-05-01T10:23:12.444Z</time></trkpt><trkpt lat="42.1938021" lon="13.6211155"><ele>1025.0</ele><time>2026-05-01T10:23:19.479Z</time></trkpt><trkpt lat="42.1938468" lon="13.6210526"><ele>1024.9999999999998</ele><time>2026-05-01T10:23:25.41Z</time></trkpt><trkpt lat="42.1938962" lon="13.6209858"><ele>1025.0</ele><time>2026-05-01T10:23:31.448Z</time></trkpt><trkpt lat="42.1939524" lon="13.6209233"><ele>1027.2857142857142</ele><time>2026-05-01T10:23:38.487Z</time></trkpt><trkpt lat="42.1940076" lon="13.6208758"><ele>1029.5714285714284</ele><time>2026-05-01T10:23:44.442Z</time></trkpt><trkpt lat="42.1940586" lon="13.6208157"><ele>1031.857142857143</ele><time>2026-05-01T10:23:50.508Z</time></trkpt><trkpt lat="42.1940985" lon="13.6207462"><ele>1034.142857142857</ele><time>2026-05-01T10:23:56.491Z</time></trkpt><trkpt lat="42.1941419" lon="13.6206845"><ele>1036.4285714285716</ele><time>2026-05-01T10:24:02.443Z</time></trkpt><trkpt lat="42.1941944" lon="13.6206192"><ele>1038.7142857142858</ele><time>2026-05-01T10:24:09.466Z</time></trkpt><trkpt lat="42.1942402" lon="13.6205606"><ele>1041.0</ele><time>2026-05-01T10:24:15.527Z</time></trkpt><trkpt lat="42.1942699" lon="13.6204856"><ele>1041.0</ele><time>2026-05-01T10:24:32.444Z</time></trkpt><trkpt lat="42.1943295" lon="13.6204327"><ele>1041.0</ele><time>2026-05-01T10:24:39.443Z</time></trkpt><trkpt lat="42.1943869" lon="13.6203687"><ele>1041.0</ele><time>2026-05-01T10:24:46.478Z</time></trkpt><trkpt lat="42.194438" lon="13.6203157"><ele>1041.0</ele><time>2026-05-01T10:24:52.448Z</time></trkpt><trkpt lat="42.1944851" lon="13.6202419"><ele>1041.0</ele><time>2026-05-01T10:24:59.453Z</time></trkpt><trkpt lat="42.194527" lon="13.6201661"><ele>1041.0</ele><time>2026-05-01T10:25:06.509Z</time></trkpt><trkpt lat="42.1945717" lon="13.6201034"><ele>1041.0</ele><time>2026-05-01T10:25:13.49Z</time></trkpt><trkpt lat="42.1946214" lon="13.6200383"><ele>1038.857142857143</ele><time>2026-05-01T10:25:20.473Z</time></trkpt><trkpt lat="42.1946779" lon="13.6199818"><ele>1036.7142857142858</ele><time>2026-05-01T10:25:27.448Z</time></trkpt><trkpt lat="42.1947237" lon="13.6199156"><ele>1034.5714285714287</ele><time>2026-05-01T10:25:34.454Z</time></trkpt><trkpt lat="42.1947652" lon="13.6198408"><ele>1032.4285714285716</ele><time>2026-05-01T10:25:41.493Z</time></trkpt><trkpt lat="42.1947955" lon="13.6197659"><ele>1030.2857142857142</ele><time>2026-05-01T10:25:48.45Z</time></trkpt><trkpt lat="42.1948455" lon="13.6197055"><ele>1028.1428571428573</ele><time>2026-05-01T10:25:56.479Z</time></trkpt><trkpt lat="42.1948821" lon="13.619626"><ele>1026.0</ele><time>2026-05-01T10:26:04.443Z</time></trkpt><trkpt lat="42.194946" lon="13.6195978"><ele>1028.7142857142858</ele><time>2026-05-01T10:26:29.425Z</time></trkpt><trkpt lat="42.1950013" lon="13.6195369"><ele>1031.4285714285716</ele><time>2026-05-01T10:26:34.443Z</time></trkpt><trkpt lat="42.1950481" lon="13.619471"><ele>1034.142857142857</ele><time>2026-05-01T10:26:41.067Z</time></trkpt><trkpt lat="42.195093" lon="13.6193961"><ele>1036.857142857143</ele><time>2026-05-01T10:26:47.513Z</time></trkpt><trkpt lat="42.1951367" lon="13.619328"><ele>1039.5714285714284</ele><time>2026-05-01T10:26:54.507Z</time></trkpt><trkpt lat="42.1951724" lon="13.6192515"><ele>1042.2857142857142</ele><time>2026-05-01T10:27:01.452Z</time></trkpt><trkpt lat="42.195202" lon="13.6191706"><ele>1045.0</ele><time>2026-05-01T10:27:09.365Z</time></trkpt><trkpt lat="42.1952207" lon="13.619087"><ele>1045.0</ele><time>2026-05-01T10:27:16.445Z</time></trkpt><trkpt lat="42.1952546" lon="13.6190035"><ele>1045.0</ele><time>2026-05-01T10:27:23.386Z</time></trkpt><trkpt lat="42.1953062" lon="13.618937"><ele>1045.0</ele><time>2026-05-01T10:27:30.442Z</time></trkpt><trkpt lat="42.1953563" lon="13.6188677"><ele>1045.0</ele><time>2026-05-01T10:27:37.459Z</time></trkpt><trkpt lat="42.1953915" lon="13.6187923"><ele>1045.0</ele><time>2026-05-01T10:27:44.442Z</time></trkpt><trkpt lat="42.1954264" lon="13.6187137"><ele>1045.0</ele><time>2026-05-01T10:27:51.386Z</time></trkpt><trkpt lat="42.1954692" lon="13.6186383"><ele>1045.0</ele><time>2026-05-01T10:27:58.48Z</time></trkpt><trkpt lat="42.1955049" lon="13.618564"><ele>1043.0</ele><time>2026-05-01T10:28:05.351Z</time></trkpt><trkpt lat="42.1955293" lon="13.6184837"><ele>1041.0</ele><time>2026-05-01T10:28:12.366Z</time></trkpt><trkpt lat="42.1955769" lon="13.6184065"><ele>1039.0</ele><time>2026-05-01T10:28:19.447Z</time></trkpt><trkpt lat="42.1956123" lon="13.6183311"><ele>1037.0</ele><time>2026-05-01T10:28:25.442Z</time></trkpt><trkpt lat="42.1956454" lon="13.6182471"><ele>1035.0</ele><time>2026-05-01T10:28:32.476Z</time></trkpt><trkpt lat="42.1956794" lon="13.6181649"><ele>1033.0</ele><time>2026-05-01T10:28:39.445Z</time></trkpt><trkpt lat="42.1957169" lon="13.6180955"><ele>1031.0</ele><time>2026-05-01T10:28:45.449Z</time></trkpt><trkpt lat="42.1957548" lon="13.6180106"><ele>1034.4285714285713</ele><time>2026-05-01T10:28:52.49Z</time></trkpt><trkpt lat="42.1957915" lon="13.6179364"><ele>1037.8571428571427</ele><time>2026-05-01T10:28:58.449Z</time></trkpt><trkpt lat="42.1958264" lon="13.617864"><ele>1041.2857142857142</ele><time>2026-05-01T10:29:04.459Z</time></trkpt><trkpt lat="42.1958573" lon="13.6177779"><ele>1044.7142857142858</ele><time>2026-05-01T10:29:11.5Z</time></trkpt><trkpt lat="42.1958878" lon="13.6176993"><ele>1048.1428571428573</ele><time>2026-05-01T10:29:17.448Z</time></trkpt><trkpt lat="42.1959194" lon="13.6176206"><ele>1051.5714285714287</ele><time>2026-05-01T10:29:23.522Z</time></trkpt><trkpt lat="42.1959581" lon="13.6175367"><ele>1055.0</ele><time>2026-05-01T10:29:30.384Z</time></trkpt><trkpt lat="42.1959819" lon="13.617452"><ele>1055.0</ele><time>2026-05-01T10:29:36.442Z</time></trkpt><trkpt lat="42.1960071" lon="13.6173627"><ele>1055.0</ele><time>2026-05-01T10:29:43.442Z</time></trkpt><trkpt lat="42.196042" lon="13.6172916"><ele>1055.0</ele><time>2026-05-01T10:29:49.423Z</time></trkpt><trkpt lat="42.1960672" lon="13.6172119"><ele>1055.0</ele><time>2026-05-01T10:29:55.452Z</time></trkpt><trkpt lat="42.1961004" lon="13.6171316"><ele>1055.0</ele><time>2026-05-01T10:30:02.006Z</time></trkpt><trkpt lat="42.1961366" lon="13.6170547"><ele>1055.0</ele><time>2026-05-01T10:30:08.451Z</time></trkpt><trkpt lat="42.1961874" lon="13.6169805"><ele>1055.0</ele><time>2026-05-01T10:30:19.489Z</time></trkpt><trkpt lat="42.1962206" lon="13.6169079"><ele>1053.0</ele><time>2026-05-01T10:31:10.443Z</time></trkpt><trkpt lat="42.1961676" lon="13.6169587"><ele>1051.0</ele><time>2026-05-01T10:32:31.445Z</time></trkpt><trkpt lat="42.1962287" lon="13.616921"><ele>1049.0</ele><time>2026-05-01T10:32:56.441Z</time></trkpt><trkpt lat="42.1962131" lon="13.6168215"><ele>1047.0</ele><time>2026-05-01T10:34:26.473Z</time></trkpt><trkpt lat="42.1962281" lon="13.6167246"><ele>1045.0</ele><time>2026-05-01T10:34:31.444Z</time></trkpt><trkpt lat="42.1962556" lon="13.6166337"><ele>1043.0</ele><time>2026-05-01T10:34:37.451Z</time></trkpt><trkpt lat="42.1962793" lon="13.616554"><ele>1041.0</ele><time>2026-05-01T10:34:43.487Z</time></trkpt><trkpt lat="42.1963029" lon="13.6164706"><ele>1041.0</ele><time>2026-05-01T10:34:49.448Z</time></trkpt><trkpt lat="42.1963291" lon="13.6163808"><ele>1041.0</ele><time>2026-05-01T10:34:55.459Z</time></trkpt><trkpt lat="42.1963528" lon="13.6162939"><ele>1041.0</ele><time>2026-05-01T10:35:01.491Z</time></trkpt><trkpt lat="42.1963886" lon="13.6162218"><ele>1041.0</ele><time>2026-05-01T10:35:07.449Z</time></trkpt><trkpt lat="42.196415" lon="13.6161373"><ele>1041.0</ele><time>2026-05-01T10:35:13.463Z</time></trkpt><trkpt lat="42.1964392" lon="13.6160573"><ele>1041.0</ele><time>2026-05-01T10:35:19.443Z</time></trkpt><trkpt lat="42.1964835" lon="13.6159812"><ele>1041.0</ele><time>2026-05-01T10:35:25.442Z</time></trkpt><trkpt lat="42.1965208" lon="13.6159056"><ele>1045.4285714285716</ele><time>2026-05-01T10:35:31.474Z</time></trkpt><trkpt lat="42.1965681" lon="13.6158397"><ele>1049.857142857143</ele><time>2026-05-01T10:35:37.407Z</time></trkpt><trkpt lat="42.1966231" lon="13.6157737"><ele>1054.2857142857142</ele><time>2026-05-01T10:35:44.452Z</time></trkpt><trkpt lat="42.1966577" lon="13.6156922"><ele>1058.7142857142858</ele><time>2026-05-01T10:35:50.486Z</time></trkpt><trkpt lat="42.1966876" lon="13.6156106"><ele>1063.142857142857</ele><time>2026-05-01T10:35:56.45Z</time></trkpt><trkpt lat="42.1967121" lon="13.6155279"><ele>1067.5714285714287</ele><time>2026-05-01T10:36:02.445Z</time></trkpt><trkpt lat="42.1967422" lon="13.6154481"><ele>1072.0</ele><time>2026-05-01T10:36:08.441Z</time></trkpt><trkpt lat="42.1967674" lon="13.6153683"><ele>1070.2857142857142</ele><time>2026-05-01T10:36:14.443Z</time></trkpt><trkpt lat="42.1968094" lon="13.6153028"><ele>1068.5714285714284</ele><time>2026-05-01T10:36:20.494Z</time></trkpt><trkpt lat="42.1968355" lon="13.615222"><ele>1066.8571428571427</ele><time>2026-05-01T10:36:26.5Z</time></trkpt><trkpt lat="42.1968758" lon="13.6151427"><ele>1065.142857142857</ele><time>2026-05-01T10:36:33.444Z</time></trkpt><trkpt lat="42.1969262" lon="13.6150764"><ele>1063.4285714285713</ele><time>2026-05-01T10:36:40.513Z</time></trkpt><trkpt lat="42.1969657" lon="13.614999"><ele>1061.7142857142856</ele><time>2026-05-01T10:36:49.446Z</time></trkpt><trkpt lat="42.1970111" lon="13.6149396"><ele>1060.0</ele><time>2026-05-01T10:36:55.472Z</time></trkpt><trkpt lat="42.1970517" lon="13.6148745"><ele>1059.9999999999998</ele><time>2026-05-01T10:37:02.514Z</time></trkpt><trkpt lat="42.1970808" lon="13.6147875"><ele>1060.0</ele><time>2026-05-01T10:37:10.427Z</time></trkpt><trkpt lat="42.1971231" lon="13.6147221"><ele>1060.0</ele><time>2026-05-01T10:37:17.502Z</time></trkpt><trkpt lat="42.1971576" lon="13.6146416"><ele>1060.0</ele><time>2026-05-01T10:37:24.454Z</time></trkpt><trkpt lat="42.1971935" lon="13.6145639"><ele>1060.0</ele><time>2026-05-01T10:37:31.485Z</time></trkpt><trkpt lat="42.1972379" lon="13.6144884"><ele>1059.9999999999998</ele><time>2026-05-01T10:37:38.462Z</time></trkpt><trkpt lat="42.1972755" lon="13.6144048"><ele>1060.0</ele><time>2026-05-01T10:37:45.467Z</time></trkpt><trkpt lat="42.1973067" lon="13.6143183"><ele>1063.4285714285713</ele><time>2026-05-01T10:37:52.406Z</time></trkpt><trkpt lat="42.1973443" lon="13.6142371"><ele>1066.857142857143</ele><time>2026-05-01T10:37:59.45Z</time></trkpt><trkpt lat="42.1973889" lon="13.6141748"><ele>1070.2857142857142</ele><time>2026-05-01T10:38:05.486Z</time></trkpt><trkpt lat="42.1974348" lon="13.6141071"><ele>1073.7142857142858</ele><time>2026-05-01T10:38:12.449Z</time></trkpt><trkpt lat="42.1974761" lon="13.6140333"><ele>1077.142857142857</ele><time>2026-05-01T10:38:19.491Z</time></trkpt><trkpt lat="42.1975109" lon="13.6139523"><ele>1080.5714285714284</ele><time>2026-05-01T10:38:26.444Z</time></trkpt><trkpt lat="42.1975625" lon="13.613884"><ele>1084.0</ele><time>2026-05-01T10:38:33.451Z</time></trkpt><trkpt lat="42.1976006" lon="13.6138006"><ele>1084.0</ele><time>2026-05-01T10:38:40.493Z</time></trkpt><trkpt lat="42.1976355" lon="13.6137176"><ele>1084.0</ele><time>2026-05-01T10:38:47.445Z</time></trkpt><trkpt lat="42.1976828" lon="13.6136476"><ele>1084.0</ele><time>2026-05-01T10:38:54.511Z</time></trkpt><trkpt lat="42.1977351" lon="13.6135836"><ele>1084.0</ele><time>2026-05-01T10:39:01.516Z</time></trkpt><trkpt lat="42.1977736" lon="13.6135002"><ele>1084.0</ele><time>2026-05-01T10:39:08.458Z</time></trkpt><trkpt lat="42.1978382" lon="13.6134752"><ele>1084.0</ele><time>2026-05-01T10:41:40.443Z</time></trkpt><trkpt lat="42.1978854" lon="13.6134004"><ele>1084.0</ele><time>2026-05-01T10:41:47.446Z</time></trkpt><trkpt lat="42.1979316" lon="13.6133373"><ele>1082.142857142857</ele><time>2026-05-01T10:41:53.363Z</time></trkpt><trkpt lat="42.1979843" lon="13.6132756"><ele>1080.2857142857142</ele><time>2026-05-01T10:42:00.386Z</time></trkpt><trkpt lat="42.1980307" lon="13.6132115"><ele>1078.4285714285716</ele><time>2026-05-01T10:42:07.45Z</time></trkpt><trkpt lat="42.1980808" lon="13.6131489"><ele>1076.5714285714284</ele><time>2026-05-01T10:42:14.451Z</time></trkpt><trkpt lat="42.1981409" lon="13.6130923"><ele>1074.7142857142858</ele><time>2026-05-01T10:42:21.492Z</time></trkpt><trkpt lat="42.1981945" lon="13.6130356"><ele>1072.857142857143</ele><time>2026-05-01T10:42:28.472Z</time></trkpt><trkpt lat="42.1982407" lon="13.6129664"><ele>1071.0</ele><time>2026-05-01T10:42:35.475Z</time></trkpt><trkpt lat="42.1982999" lon="13.612915"><ele>1072.5714285714287</ele><time>2026-05-01T10:42:42.445Z</time></trkpt><trkpt lat="42.198353" lon="13.6128632"><ele>1074.142857142857</ele><time>2026-05-01T10:42:49.457Z</time></trkpt><trkpt lat="42.1983967" lon="13.6127937"><ele>1075.7142857142858</ele><time>2026-05-01T10:42:56.385Z</time></trkpt><trkpt lat="42.1984528" lon="13.6127441"><ele>1077.2857142857142</ele><time>2026-05-01T10:43:03.527Z</time></trkpt><trkpt lat="42.1985156" lon="13.6127027"><ele>1078.857142857143</ele><time>2026-05-01T10:43:10.48Z</time></trkpt><trkpt lat="42.1985732" lon="13.6126524"><ele>1080.4285714285716</ele><time>2026-05-01T10:43:17.452Z</time></trkpt><trkpt lat="42.1986267" lon="13.6125789"><ele>1082.0</ele><time>2026-05-01T10:43:29.492Z</time></trkpt><trkpt lat="42.1986872" lon="13.6125331"><ele>1082.0000000000002</ele><time>2026-05-01T10:43:35.385Z</time></trkpt><trkpt lat="42.1987457" lon="13.6124765"><ele>1082.0</ele><time>2026-05-01T10:43:42.468Z</time></trkpt><trkpt lat="42.1988089" lon="13.612448"><ele>1082.0</ele><time>2026-05-01T10:44:42.483Z</time></trkpt><trkpt lat="42.1988699" lon="13.6124067"><ele>1082.0</ele><time>2026-05-01T10:44:47.48Z</time></trkpt><trkpt lat="42.1989386" lon="13.6123744"><ele>1082.0</ele><time>2026-05-01T10:44:53.441Z</time></trkpt><trkpt lat="42.1989814" lon="13.6122972"><ele>1082.0000000000002</ele><time>2026-05-01T10:45:00.362Z</time></trkpt><trkpt lat="42.1990435" lon="13.6123316"><ele>1082.0</ele><time>2026-05-01T10:45:06.446Z</time></trkpt><trkpt lat="42.1991117" lon="13.6123024"><ele>1081.857142857143</ele><time>2026-05-01T10:45:12.442Z</time></trkpt><trkpt lat="42.1991505" lon="13.6122241"><ele>1081.7142857142858</ele><time>2026-05-01T10:45:16.462Z</time></trkpt><trkpt lat="42.1992092" lon="13.6121613"><ele>1081.5714285714284</ele><time>2026-05-01T10:45:21.388Z</time></trkpt><trkpt lat="42.1992714" lon="13.6121259"><ele>1081.4285714285716</ele><time>2026-05-01T10:45:26.449Z</time></trkpt><trkpt lat="42.1993254" lon="13.6120778"><ele>1081.2857142857142</ele><time>2026-05-01T10:45:32.459Z</time></trkpt><trkpt lat="42.1993964" lon="13.6120492"><ele>1081.142857142857</ele><time>2026-05-01T10:45:38.471Z</time></trkpt><trkpt lat="42.1994574" lon="13.6120074"><ele>1081.0</ele><time>2026-05-01T10:45:44.442Z</time></trkpt><trkpt lat="42.1995168" lon="13.6119718"><ele>1080.9999999999998</ele><time>2026-05-01T10:45:50.381Z</time></trkpt><trkpt lat="42.1995795" lon="13.6119448"><ele>1081.0</ele><time>2026-05-01T10:45:56.443Z</time></trkpt><trkpt lat="42.199633" lon="13.6118901"><ele>1081.0</ele><time>2026-05-01T10:46:07.468Z</time></trkpt><trkpt lat="42.1996987" lon="13.6119047"><ele>1081.0</ele><time>2026-05-01T10:46:27.443Z</time></trkpt><trkpt lat="42.1996831" lon="13.6118223"><ele>1081.0</ele><time>2026-05-01T10:46:43.484Z</time></trkpt><trkpt lat="42.1996198" lon="13.6118661"><ele>1080.9999999999998</ele><time>2026-05-01T10:47:13.468Z</time></trkpt><trkpt lat="42.1995565" lon="13.6118645"><ele>1081.0</ele><time>2026-05-01T10:47:19.445Z</time></trkpt><trkpt lat="42.199489" lon="13.6118374"><ele>1080.9999999999998</ele><time>2026-05-01T10:47:26.505Z</time></trkpt><trkpt lat="42.1994236" lon="13.6118571"><ele>1081.0</ele><time>2026-05-01T10:47:33.482Z</time></trkpt><trkpt lat="42.1993595" lon="13.6118674"><ele>1081.0</ele><time>2026-05-01T10:47:40.442Z</time></trkpt><trkpt lat="42.1992935" lon="13.6118615"><ele>1081.0</ele><time>2026-05-01T10:47:47.466Z</time></trkpt><trkpt lat="42.1992349" lon="13.6118927"><ele>1081.0</ele><time>2026-05-01T10:48:04.442Z</time></trkpt><trkpt lat="42.1991715" lon="13.6119137"><ele>1080.9999999999998</ele><time>2026-05-01T10:48:10.442Z</time></trkpt><trkpt lat="42.1991189" lon="13.6119607"><ele>1081.0</ele><time>2026-05-01T10:48:16.441Z</time></trkpt><trkpt lat="42.1990552" lon="13.6119959"><ele>1081.142857142857</ele><time>2026-05-01T10:48:23.481Z</time></trkpt><trkpt lat="42.1989851" lon="13.6119984"><ele>1081.2857142857142</ele><time>2026-05-01T10:48:31.443Z</time></trkpt><trkpt lat="42.1989218" lon="13.6120102"><ele>1081.4285714285716</ele><time>2026-05-01T10:48:38.442Z</time></trkpt><trkpt lat="42.1988533" lon="13.6119953"><ele>1081.5714285714284</ele><time>2026-05-01T10:48:45.442Z</time></trkpt><trkpt lat="42.1987875" lon="13.6119859"><ele>1081.7142857142858</ele><time>2026-05-01T10:48:52.455Z</time></trkpt><trkpt lat="42.1987188" lon="13.6119795"><ele>1081.857142857143</ele><time>2026-05-01T10:49:01.445Z</time></trkpt><trkpt lat="42.1986812" lon="13.6119"><ele>1082.0</ele><time>2026-05-01T10:49:10.367Z</time></trkpt><trkpt lat="42.1986335" lon="13.6118348"><ele>1081.2857142857144</ele><time>2026-05-01T10:49:18.444Z</time></trkpt><trkpt lat="42.1985696" lon="13.6118023"><ele>1080.5714285714287</ele><time>2026-05-01T10:50:11.442Z</time></trkpt><trkpt lat="42.1985158" lon="13.6117549"><ele>1079.857142857143</ele><time>2026-05-01T10:50:19.442Z</time></trkpt><trkpt lat="42.1984634" lon="13.6116897"><ele>1079.1428571428573</ele><time>2026-05-01T10:50:45.447Z</time></trkpt><trkpt lat="42.1984937" lon="13.6116081"><ele>1078.4285714285716</ele><time>2026-05-01T10:51:30.451Z</time></trkpt><trkpt lat="42.1984371" lon="13.6115688"><ele>1077.7142857142858</ele><time>2026-05-01T10:51:41.443Z</time></trkpt><trkpt lat="42.1983888" lon="13.6115114"><ele>1077.0</ele><time>2026-05-01T10:51:48.443Z</time></trkpt><trkpt lat="42.1984412" lon="13.6115655"><ele>1077.0</ele><time>2026-05-01T10:54:20.444Z</time></trkpt><trkpt lat="42.1984796" lon="13.6116476"><ele>1077.0</ele><time>2026-05-01T10:54:26.446Z</time></trkpt><trkpt lat="42.1985248" lon="13.6117135"><ele>1077.0</ele><time>2026-05-01T10:54:33.458Z</time></trkpt><trkpt lat="42.1984841" lon="13.6117819"><ele>1077.0</ele><time>2026-05-01T10:54:39.448Z</time></trkpt><trkpt lat="42.1984235" lon="13.6118122"><ele>1077.0</ele><time>2026-05-01T10:54:46.446Z</time></trkpt><trkpt lat="42.1983744" lon="13.6118682"><ele>1077.0</ele><time>2026-05-01T10:54:53.444Z</time></trkpt><trkpt lat="42.1983153" lon="13.6119015"><ele>1077.0</ele><time>2026-05-01T10:55:01.446Z</time></trkpt><trkpt lat="42.1982646" lon="13.6118473"><ele>1077.0</ele><time>2026-05-01T10:55:17.443Z</time></trkpt><trkpt lat="42.1982924" lon="13.611767"><ele>1077.0</ele><time>2026-05-01T10:55:41.444Z</time></trkpt><trkpt lat="42.1982271" lon="13.6118"><ele>1077.0</ele><time>2026-05-01T10:56:00.347Z</time></trkpt><trkpt lat="42.1982714" lon="13.6118771"><ele>1077.0</ele><time>2026-05-01T10:56:07.453Z</time></trkpt><trkpt lat="42.1983407" lon="13.6118751"><ele>1077.0</ele><time>2026-05-01T10:56:31.441Z</time></trkpt><trkpt lat="42.1984075" lon="13.6118663"><ele>1077.0</ele><time>2026-05-01T10:56:36.443Z</time></trkpt><trkpt lat="42.1984616" lon="13.6118153"><ele>1077.0</ele><time>2026-05-01T10:56:42.443Z</time></trkpt><trkpt lat="42.1985165" lon="13.6117639"><ele>1077.0</ele><time>2026-05-01T10:56:49.442Z</time></trkpt><trkpt lat="42.1985674" lon="13.6116932"><ele>1077.0</ele><time>2026-05-01T10:56:56.456Z</time></trkpt><trkpt lat="42.1986253" lon="13.6116355"><ele>1077.0</ele><time>2026-05-01T10:57:03.464Z</time></trkpt><trkpt lat="42.1986606" lon="13.6115551"><ele>1077.0</ele><time>2026-05-01T10:57:12.452Z</time></trkpt><trkpt lat="42.1987219" lon="13.6115168"><ele>1077.0</ele><time>2026-05-01T10:57:20.466Z</time></trkpt><trkpt lat="42.1986621" lon="13.6115874"><ele>1077.0</ele><time>2026-05-01T11:00:56.45Z</time></trkpt><trkpt lat="42.1986054" lon="13.6116497"><ele>1077.0</ele><time>2026-05-01T11:01:01.485Z</time></trkpt><trkpt lat="42.1985497" lon="13.611707"><ele>1077.0</ele><time>2026-05-01T11:01:07.483Z</time></trkpt><trkpt lat="42.1984873" lon="13.6117219"><ele>1077.0</ele><time>2026-05-01T11:01:44.449Z</time></trkpt><trkpt lat="42.1984552" lon="13.6116402"><ele>1077.0</ele><time>2026-05-01T11:01:49.442Z</time></trkpt><trkpt lat="42.198408" lon="13.6115593"><ele>1077.0</ele><time>2026-05-01T11:01:55.509Z</time></trkpt><trkpt lat="42.1983887" lon="13.6114721"><ele>1077.0</ele><time>2026-05-01T11:02:01.526Z</time></trkpt><trkpt lat="42.1984097" lon="13.6113818"><ele>1077.0</ele><time>2026-05-01T11:02:07.451Z</time></trkpt><trkpt lat="42.1984411" lon="13.6113011"><ele>1077.0</ele><time>2026-05-01T11:02:13.481Z</time></trkpt><trkpt lat="42.1984797" lon="13.6112274"><ele>1077.0</ele><time>2026-05-01T11:02:19.445Z</time></trkpt><trkpt lat="42.1985226" lon="13.6111601"><ele>1077.0</ele><time>2026-05-01T11:02:24.446Z</time></trkpt><trkpt lat="42.1985737" lon="13.6110884"><ele>1077.0</ele><time>2026-05-01T11:02:30.483Z</time></trkpt><trkpt lat="42.1986222" lon="13.6110195"><ele>1077.0</ele><time>2026-05-01T11:02:38.441Z</time></trkpt><trkpt lat="42.1986753" lon="13.6109504"><ele>1077.0</ele><time>2026-05-01T11:02:44.403Z</time></trkpt><trkpt lat="42.198675" lon="13.6108558"><ele>1077.0</ele><time>2026-05-01T11:02:50.491Z</time></trkpt><trkpt lat="42.1986724" lon="13.61076"><ele>1077.0</ele><time>2026-05-01T11:02:57.447Z</time></trkpt><trkpt lat="42.1987103" lon="13.6106821"><ele>1076.5714285714284</ele><time>2026-05-01T11:03:06.404Z</time></trkpt><trkpt lat="42.1987263" lon="13.6105966"><ele>1076.142857142857</ele><time>2026-05-01T11:03:12.449Z</time></trkpt><trkpt lat="42.1986902" lon="13.6105208"><ele>1075.7142857142858</ele><time>2026-05-01T11:03:18.47Z</time></trkpt><trkpt lat="42.1986204" lon="13.6104932"><ele>1075.2857142857142</ele><time>2026-05-01T11:03:25.386Z</time></trkpt><trkpt lat="42.1985587" lon="13.6104714"><ele>1074.857142857143</ele><time>2026-05-01T11:03:31.447Z</time></trkpt><trkpt lat="42.198494" lon="13.6104435"><ele>1074.4285714285713</ele><time>2026-05-01T11:03:39.443Z</time></trkpt><trkpt lat="42.1984243" lon="13.610429"><ele>1074.0</ele><time>2026-05-01T11:03:47.449Z</time></trkpt><trkpt lat="42.1984881" lon="13.6104424"><ele>1073.9999999999998</ele><time>2026-05-01T11:05:03.442Z</time></trkpt><trkpt lat="42.1985529" lon="13.6104606"><ele>1074.0</ele><time>2026-05-01T11:05:10.368Z</time></trkpt><trkpt lat="42.1986197" lon="13.6104772"><ele>1074.0</ele><time>2026-05-01T11:05:18.44Z</time></trkpt><trkpt lat="42.1986609" lon="13.6105459"><ele>1074.0</ele><time>2026-05-01T11:05:37.476Z</time></trkpt><trkpt lat="42.1986976" lon="13.6106173"><ele>1074.0</ele><time>2026-05-01T11:05:43.444Z</time></trkpt><trkpt lat="42.1987032" lon="13.6107039"><ele>1073.9999999999998</ele><time>2026-05-01T11:05:49.387Z</time></trkpt><trkpt lat="42.1986884" lon="13.6107871"><ele>1074.0</ele><time>2026-05-01T11:05:55.405Z</time></trkpt><trkpt lat="42.198697" lon="13.6108746"><ele>1073.9999999999998</ele><time>2026-05-01T11:06:03.444Z</time></trkpt><trkpt lat="42.1987101" lon="13.6109625"><ele>1074.0</ele><time>2026-05-01T11:06:10.443Z</time></trkpt><trkpt lat="42.1987796" lon="13.6109638"><ele>1074.0</ele><time>2026-05-01T11:07:09.444Z</time></trkpt><trkpt lat="42.198843" lon="13.6109303"><ele>1074.0</ele><time>2026-05-01T11:07:15.443Z</time></trkpt><trkpt lat="42.1987774" lon="13.6109262"><ele>1074.0</ele><time>2026-05-01T11:07:27.44Z</time></trkpt><trkpt lat="42.1987303" lon="13.610992"><ele>1073.9999999999998</ele><time>2026-05-01T11:07:52.39Z</time></trkpt><trkpt lat="42.1987751" lon="13.6109321"><ele>1074.0</ele><time>2026-05-01T11:10:00.442Z</time></trkpt><trkpt lat="42.1988231" lon="13.6108528"><ele>1073.9999999999998</ele><time>2026-05-01T11:10:06.443Z</time></trkpt><trkpt lat="42.1988542" lon="13.6107664"><ele>1074.0</ele><time>2026-05-01T11:10:12.442Z</time></trkpt><trkpt lat="42.1988945" lon="13.6106858"><ele>1074.0</ele><time>2026-05-01T11:10:19.443Z</time></trkpt><trkpt lat="42.1989662" lon="13.6106883"><ele>1074.0</ele><time>2026-05-01T11:10:27.433Z</time></trkpt><trkpt lat="42.1989904" lon="13.6106023"><ele>1074.0</ele><time>2026-05-01T11:10:44.442Z</time></trkpt><trkpt lat="42.1990429" lon="13.6105435"><ele>1073.9999999999998</ele><time>2026-05-01T11:10:51.449Z</time></trkpt><trkpt lat="42.1991074" lon="13.6105312"><ele>1074.0</ele><time>2026-05-01T11:10:57.485Z</time></trkpt><trkpt lat="42.1991696" lon="13.6104776"><ele>1074.7142857142856</ele><time>2026-05-01T11:11:30.084Z</time></trkpt><trkpt lat="42.1991821" lon="13.6103868"><ele>1075.4285714285713</ele><time>2026-05-01T11:11:35.452Z</time></trkpt><trkpt lat="42.1992097" lon="13.6102994"><ele>1076.142857142857</ele><time>2026-05-01T11:11:42.44Z</time></trkpt><trkpt lat="42.1992596" lon="13.6102318"><ele>1076.8571428571427</ele><time>2026-05-01T11:11:48.447Z</time></trkpt><trkpt lat="42.1993234" lon="13.6102117"><ele>1077.5714285714284</ele><time>2026-05-01T11:11:54.444Z</time></trkpt><trkpt lat="42.1993409" lon="13.6101154"><ele>1078.2857142857142</ele><time>2026-05-01T11:12:02.443Z</time></trkpt><trkpt lat="42.1993054" lon="13.6100335"><ele>1079.0</ele><time>2026-05-01T11:12:07.448Z</time></trkpt><trkpt lat="42.1992489" lon="13.6099753"><ele>1079.0</ele><time>2026-05-01T11:12:13.485Z</time></trkpt><trkpt lat="42.1992022" lon="13.6099137"><ele>1079.0</ele><time>2026-05-01T11:12:19.446Z</time></trkpt><trkpt lat="42.199144" lon="13.6098757"><ele>1079.0</ele><time>2026-05-01T11:12:24.452Z</time></trkpt><trkpt lat="42.1990823" lon="13.6098495"><ele>1079.0</ele><time>2026-05-01T11:12:30.382Z</time></trkpt><trkpt lat="42.1990433" lon="13.6097791"><ele>1079.0</ele><time>2026-05-01T11:12:36.45Z</time></trkpt><trkpt lat="42.1990906" lon="13.609712"><ele>1079.0</ele><time>2026-05-01T11:12:43.465Z</time></trkpt><trkpt lat="42.1991202" lon="13.6096318"><ele>1079.0</ele><time>2026-05-01T11:13:17.364Z</time></trkpt><trkpt lat="42.1990506" lon="13.6096069"><ele>1079.0</ele><time>2026-05-01T11:13:23.44Z</time></trkpt><trkpt lat="42.1989962" lon="13.6095632"><ele>1079.0</ele><time>2026-05-01T11:13:34.44Z</time></trkpt><trkpt lat="42.1989996" lon="13.6094693"><ele>1079.0</ele><time>2026-05-01T11:13:40.465Z</time></trkpt><trkpt lat="42.1990017" lon="13.6095641"><ele>1079.0</ele><time>2026-05-01T11:13:48.463Z</time></trkpt><trkpt lat="42.198992" lon="13.6096663"><ele>1079.0</ele><time>2026-05-01T11:13:54.444Z</time></trkpt><trkpt lat="42.1989667" lon="13.6097609"><ele>1079.0</ele><time>2026-05-01T11:14:00.442Z</time></trkpt><trkpt lat="42.1989384" lon="13.6098379"><ele>1079.0</ele><time>2026-05-01T11:14:05.405Z</time></trkpt><trkpt lat="42.1989153" lon="13.6099203"><ele>1078.2857142857142</ele><time>2026-05-01T11:14:10.443Z</time></trkpt><trkpt lat="42.1988958" lon="13.6100091"><ele>1077.5714285714284</ele><time>2026-05-01T11:14:15.385Z</time></trkpt><trkpt lat="42.1988727" lon="13.6100939"><ele>1076.8571428571427</ele><time>2026-05-01T11:14:20.446Z</time></trkpt><trkpt lat="42.198855" lon="13.6101836"><ele>1076.142857142857</ele><time>2026-05-01T11:14:26.465Z</time></trkpt><trkpt lat="42.1988201" lon="13.6102559"><ele>1075.4285714285713</ele><time>2026-05-01T11:14:31.44Z</time></trkpt><trkpt lat="42.1987805" lon="13.6103274"><ele>1074.7142857142856</ele><time>2026-05-01T11:14:36.442Z</time></trkpt><trkpt lat="42.1987538" lon="13.6104066"><ele>1074.0</ele><time>2026-05-01T11:14:41.446Z</time></trkpt><trkpt lat="42.1987456" lon="13.6105079"><ele>1073.9999999999998</ele><time>2026-05-01T11:14:47.407Z</time></trkpt><trkpt lat="42.1987247" lon="13.6105906"><ele>1074.0</ele><time>2026-05-01T11:14:52.441Z</time></trkpt><trkpt lat="42.1987085" lon="13.6106742"><ele>1074.0</ele><time>2026-05-01T11:14:57.444Z</time></trkpt><trkpt lat="42.1986693" lon="13.6107585"><ele>1074.0</ele><time>2026-05-01T11:15:03.457Z</time></trkpt><trkpt lat="42.1986383" lon="13.6108511"><ele>1074.0</ele><time>2026-05-01T11:15:09.493Z</time></trkpt><trkpt lat="42.1986275" lon="13.6109378"><ele>1073.9999999999998</ele><time>2026-05-01T11:15:14.387Z</time></trkpt><trkpt lat="42.1986146" lon="13.6110331"><ele>1074.0</ele><time>2026-05-01T11:15:20.459Z</time></trkpt><trkpt lat="42.1986023" lon="13.6111253"><ele>1074.4285714285713</ele><time>2026-05-01T11:15:27.366Z</time></trkpt><trkpt lat="42.1986358" lon="13.6112129"><ele>1074.857142857143</ele><time>2026-05-01T11:15:39.385Z</time></trkpt><trkpt lat="42.1986748" lon="13.6112828"><ele>1075.2857142857142</ele><time>2026-05-01T11:15:45.441Z</time></trkpt><trkpt lat="42.1987285" lon="13.6113468"><ele>1075.7142857142858</ele><time>2026-05-01T11:15:52.423Z</time></trkpt><trkpt lat="42.1987727" lon="13.6114106"><ele>1076.142857142857</ele><time>2026-05-01T11:16:00.445Z</time></trkpt><trkpt lat="42.1987684" lon="13.6115027"><ele>1076.5714285714284</ele><time>2026-05-01T11:16:47.448Z</time></trkpt><trkpt lat="42.1987399" lon="13.6114191"><ele>1077.0</ele><time>2026-05-01T11:17:57.444Z</time></trkpt><trkpt lat="42.1987708" lon="13.6115005"><ele>1077.0</ele><time>2026-05-01T11:20:18.468Z</time></trkpt><trkpt lat="42.1988382" lon="13.6115052"><ele>1077.0</ele><time>2026-05-01T11:21:03.439Z</time></trkpt><trkpt lat="42.1989059" lon="13.6115165"><ele>1077.0</ele><time>2026-05-01T11:21:09.377Z</time></trkpt><trkpt lat="42.1989313" lon="13.611424"><ele>1077.0</ele><time>2026-05-01T11:27:19.46Z</time></trkpt><trkpt lat="42.1989495" lon="13.6113424"><ele>1077.0</ele><time>2026-05-01T11:27:25.441Z</time></trkpt><trkpt lat="42.1988918" lon="13.611392"><ele>1077.0</ele><time>2026-05-01T12:39:46.444Z</time></trkpt><trkpt lat="42.1988262" lon="13.6114331"><ele>1077.0</ele><time>2026-05-01T12:39:53.444Z</time></trkpt><trkpt lat="42.1987979" lon="13.6115166"><ele>1077.0</ele><time>2026-05-01T12:40:07.441Z</time></trkpt><trkpt lat="42.1987351" lon="13.6115316"><ele>1077.0</ele><time>2026-05-01T12:40:54.44Z</time></trkpt><trkpt lat="42.1986775" lon="13.6115902"><ele>1077.0</ele><time>2026-05-01T12:41:02.438Z</time></trkpt><trkpt lat="42.1986175" lon="13.6116309"><ele>1077.0</ele><time>2026-05-01T12:41:10.441Z</time></trkpt><trkpt lat="42.1985578" lon="13.6116629"><ele>1077.0</ele><time>2026-05-01T12:41:18.457Z</time></trkpt><trkpt lat="42.1985338" lon="13.6117501"><ele>1077.0</ele><time>2026-05-01T12:41:27.441Z</time></trkpt><trkpt lat="42.1985904" lon="13.6118137"><ele>1077.0</ele><time>2026-05-01T12:41:46.496Z</time></trkpt><trkpt lat="42.1986448" lon="13.6118718"><ele>1077.0</ele><time>2026-05-01T12:41:51.468Z</time></trkpt><trkpt lat="42.1986925" lon="13.6119366"><ele>1077.0</ele><time>2026-05-01T12:41:57.44Z</time></trkpt><trkpt lat="42.1987526" lon="13.6119953"><ele>1077.0</ele><time>2026-05-01T12:42:05.45Z</time></trkpt><trkpt lat="42.1988202" lon="13.6119855"><ele>1077.0</ele><time>2026-05-01T12:42:15.449Z</time></trkpt><trkpt lat="42.1988814" lon="13.612009"><ele>1077.0</ele><time>2026-05-01T12:42:20.446Z</time></trkpt><trkpt lat="42.1989514" lon="13.612028"><ele>1077.0</ele><time>2026-05-01T12:42:28.415Z</time></trkpt><trkpt lat="42.1990227" lon="13.6120351"><ele>1077.0</ele><time>2026-05-01T12:42:36.443Z</time></trkpt><trkpt lat="42.1990808" lon="13.6119841"><ele>1077.5714285714284</ele><time>2026-05-01T12:42:45.486Z</time></trkpt><trkpt lat="42.1991448" lon="13.6119755"><ele>1078.142857142857</ele><time>2026-05-01T12:42:51.445Z</time></trkpt><trkpt lat="42.199204" lon="13.6119402"><ele>1078.7142857142858</ele><time>2026-05-01T12:42:58.462Z</time></trkpt><trkpt lat="42.1992736" lon="13.611913"><ele>1079.2857142857142</ele><time>2026-05-01T12:43:11.441Z</time></trkpt><trkpt lat="42.1993438" lon="13.6119232"><ele>1079.857142857143</ele><time>2026-05-01T12:43:17.475Z</time></trkpt><trkpt lat="42.1994087" lon="13.6119135"><ele>1080.4285714285713</ele><time>2026-05-01T12:43:23.476Z</time></trkpt><trkpt lat="42.1994708" lon="13.6118995"><ele>1081.0</ele><time>2026-05-01T12:43:29.444Z</time></trkpt><trkpt lat="42.1995378" lon="13.6118836"><ele>1080.9999999999998</ele><time>2026-05-01T12:43:36.393Z</time></trkpt><trkpt lat="42.1996041" lon="13.6118611"><ele>1081.0</ele><time>2026-05-01T12:43:44.439Z</time></trkpt><trkpt lat="42.1996776" lon="13.6118572"><ele>1081.0</ele><time>2026-05-01T12:43:51.474Z</time></trkpt><trkpt lat="42.1997236" lon="13.6117944"><ele>1081.0</ele><time>2026-05-01T12:44:09.48Z</time></trkpt><trkpt lat="42.199727" lon="13.6118811"><ele>1081.0</ele><time>2026-05-01T12:44:14.44Z</time></trkpt><trkpt lat="42.199767" lon="13.6118099"><ele>1080.9999999999998</ele><time>2026-05-01T12:44:36.445Z</time></trkpt><trkpt lat="42.1997515" lon="13.6118993"><ele>1081.0</ele><time>2026-05-01T12:46:30.413Z</time></trkpt><trkpt lat="42.1996849" lon="13.6119462"><ele>1080.9999999999998</ele><time>2026-05-01T12:46:45.44Z</time></trkpt><trkpt lat="42.1996203" lon="13.6119618"><ele>1081.0</ele><time>2026-05-01T12:46:50.443Z</time></trkpt><trkpt lat="42.1995551" lon="13.6119775"><ele>1081.0</ele><time>2026-05-01T12:46:56.521Z</time></trkpt><trkpt lat="42.1994964" lon="13.6120097"><ele>1081.0</ele><time>2026-05-01T12:47:02.442Z</time></trkpt><trkpt lat="42.1994411" lon="13.6120531"><ele>1081.0</ele><time>2026-05-01T12:47:08.443Z</time></trkpt><trkpt lat="42.1993813" lon="13.6121028"><ele>1080.9999999999998</ele><time>2026-05-01T12:47:14.477Z</time></trkpt><trkpt lat="42.1993188" lon="13.6121424"><ele>1081.0</ele><time>2026-05-01T12:47:20.439Z</time></trkpt><trkpt lat="42.1992601" lon="13.6121786"><ele>1081.142857142857</ele><time>2026-05-01T12:47:26.449Z</time></trkpt><trkpt lat="42.1991985" lon="13.6122111"><ele>1081.2857142857142</ele><time>2026-05-01T12:47:32.45Z</time></trkpt><trkpt lat="42.1991363" lon="13.6122462"><ele>1081.4285714285716</ele><time>2026-05-01T12:47:38.445Z</time></trkpt><trkpt lat="42.1990763" lon="13.6122916"><ele>1081.5714285714284</ele><time>2026-05-01T12:47:44.455Z</time></trkpt><trkpt lat="42.199018" lon="13.612329"><ele>1081.7142857142858</ele><time>2026-05-01T12:47:50.441Z</time></trkpt><trkpt lat="42.1989578" lon="13.6123733"><ele>1081.857142857143</ele><time>2026-05-01T12:47:56.474Z</time></trkpt><trkpt lat="42.1988954" lon="13.6124085"><ele>1082.0</ele><time>2026-05-01T12:48:02.416Z</time></trkpt><trkpt lat="42.1988348" lon="13.6124569"><ele>1082.0000000000002</ele><time>2026-05-01T12:48:09.388Z</time></trkpt><trkpt lat="42.1987719" lon="13.6125064"><ele>1082.0</ele><time>2026-05-01T12:48:16.445Z</time></trkpt><trkpt lat="42.1987079" lon="13.612553"><ele>1082.0</ele><time>2026-05-01T12:48:22.48Z</time></trkpt><trkpt lat="42.19865" lon="13.612604"><ele>1082.0</ele><time>2026-05-01T12:48:28.443Z</time></trkpt><trkpt lat="42.1985934" lon="13.612649"><ele>1082.0</ele><time>2026-05-01T12:48:34.451Z</time></trkpt><trkpt lat="42.1985376" lon="13.6126997"><ele>1082.0000000000002</ele><time>2026-05-01T12:48:40.392Z</time></trkpt><trkpt lat="42.1984721" lon="13.6126989"><ele>1082.0</ele><time>2026-05-01T12:48:47.443Z</time></trkpt><trkpt lat="42.198446" lon="13.6127806"><ele>1080.4285714285716</ele><time>2026-05-01T12:49:23.442Z</time></trkpt><trkpt lat="42.1983907" lon="13.612838"><ele>1078.857142857143</ele><time>2026-05-01T12:49:29.439Z</time></trkpt><trkpt lat="42.198346" lon="13.6129015"><ele>1077.2857142857142</ele><time>2026-05-01T12:49:35.458Z</time></trkpt><trkpt lat="42.1983002" lon="13.6129655"><ele>1075.7142857142858</ele><time>2026-05-01T12:49:42.438Z</time></trkpt><trkpt lat="42.1982407" lon="13.6130014"><ele>1074.142857142857</ele><time>2026-05-01T12:49:47.44Z</time></trkpt><trkpt lat="42.1981846" lon="13.6130673"><ele>1072.5714285714287</ele><time>2026-05-01T12:49:53.331Z</time></trkpt><trkpt lat="42.198146" lon="13.6131351"><ele>1071.0</ele><time>2026-05-01T12:49:58.413Z</time></trkpt><trkpt lat="42.1980931" lon="13.6131991"><ele>1071.0</ele><time>2026-05-01T12:50:04.441Z</time></trkpt><trkpt lat="42.1980367" lon="13.6132594"><ele>1071.0</ele><time>2026-05-01T12:50:10.468Z</time></trkpt><trkpt lat="42.197982" lon="13.6133192"><ele>1071.0</ele><time>2026-05-01T12:50:16.44Z</time></trkpt><trkpt lat="42.1979289" lon="13.6133843"><ele>1071.0</ele><time>2026-05-01T12:50:22.441Z</time></trkpt><trkpt lat="42.1978751" lon="13.6134496"><ele>1071.0</ele><time>2026-05-01T12:50:28.442Z</time></trkpt><trkpt lat="42.1978157" lon="13.6135123"><ele>1071.0</ele><time>2026-05-01T12:50:34.443Z</time></trkpt><trkpt lat="42.1977705" lon="13.6135885"><ele>1071.0</ele><time>2026-05-01T12:50:40.445Z</time></trkpt><trkpt lat="42.1977266" lon="13.6136605"><ele>1072.857142857143</ele><time>2026-05-01T12:50:46.442Z</time></trkpt><trkpt lat="42.1976852" lon="13.6137307"><ele>1074.7142857142858</ele><time>2026-05-01T12:50:52.441Z</time></trkpt><trkpt lat="42.1976501" lon="13.6138151"><ele>1076.5714285714284</ele><time>2026-05-01T12:50:58.44Z</time></trkpt><trkpt lat="42.1976075" lon="13.6138937"><ele>1078.4285714285716</ele><time>2026-05-01T12:51:04.438Z</time></trkpt><trkpt lat="42.197563" lon="13.6139669"><ele>1080.2857142857142</ele><time>2026-05-01T12:51:10.44Z</time></trkpt><trkpt lat="42.1975229" lon="13.6140331"><ele>1082.142857142857</ele><time>2026-05-01T12:51:15.442Z</time></trkpt><trkpt lat="42.1974707" lon="13.6141043"><ele>1084.0</ele><time>2026-05-01T12:51:21.441Z</time></trkpt><trkpt lat="42.197429" lon="13.6141798"><ele>1084.0</ele><time>2026-05-01T12:51:27.44Z</time></trkpt><trkpt lat="42.1973875" lon="13.6142628"><ele>1084.0</ele><time>2026-05-01T12:51:33.439Z</time></trkpt><trkpt lat="42.1973493" lon="13.6143451"><ele>1084.0</ele><time>2026-05-01T12:51:39.44Z</time></trkpt><trkpt lat="42.1973186" lon="13.6144281"><ele>1084.0</ele><time>2026-05-01T12:51:45.443Z</time></trkpt><trkpt lat="42.197255" lon="13.6144378"><ele>1084.0</ele><time>2026-05-01T12:51:51.442Z</time></trkpt><trkpt lat="42.1972366" lon="13.6145241"><ele>1084.0</ele><time>2026-05-01T12:52:32.44Z</time></trkpt><trkpt lat="42.1972068" lon="13.6146096"><ele>1084.0</ele><time>2026-05-01T12:52:38.444Z</time></trkpt><trkpt lat="42.1971775" lon="13.614702"><ele>1080.5714285714284</ele><time>2026-05-01T12:52:44.434Z</time></trkpt><trkpt lat="42.1971285" lon="13.6147752"><ele>1077.142857142857</ele><time>2026-05-01T12:52:51.235Z</time></trkpt><trkpt lat="42.1970922" lon="13.6148491"><ele>1073.7142857142858</ele><time>2026-05-01T12:52:56.154Z</time></trkpt><trkpt lat="42.1970535" lon="13.6149299"><ele>1070.2857142857142</ele><time>2026-05-01T12:53:02.09Z</time></trkpt><trkpt lat="42.1970149" lon="13.6150122"><ele>1066.857142857143</ele><time>2026-05-01T12:53:08.077Z</time></trkpt><trkpt lat="42.1969682" lon="13.6150868"><ele>1063.4285714285713</ele><time>2026-05-01T12:53:13.972Z</time></trkpt><trkpt lat="42.1969182" lon="13.6151551"><ele>1060.0</ele><time>2026-05-01T12:53:20.05Z</time></trkpt><trkpt lat="42.1968833" lon="13.6152283"><ele>1059.9999999999998</ele><time>2026-05-01T12:53:24.969Z</time></trkpt><trkpt lat="42.1968417" lon="13.6153116"><ele>1060.0</ele><time>2026-05-01T12:53:30.874Z</time></trkpt><trkpt lat="42.1968048" lon="13.6153951"><ele>1060.0</ele><time>2026-05-01T12:53:36.89Z</time></trkpt><trkpt lat="42.1967702" lon="13.6154723"><ele>1060.0</ele><time>2026-05-01T12:53:42.877Z</time></trkpt><trkpt lat="42.1967384" lon="13.6155568"><ele>1060.0</ele><time>2026-05-01T12:53:48.833Z</time></trkpt><trkpt lat="42.1967065" lon="13.6156437"><ele>1059.9999999999998</ele><time>2026-05-01T12:53:54.767Z</time></trkpt><trkpt lat="42.1966683" lon="13.6157118"><ele>1060.0</ele><time>2026-05-01T12:53:59.789Z</time></trkpt><trkpt lat="42.19663" lon="13.6157956"><ele>1061.7142857142856</ele><time>2026-05-01T12:54:05.714Z</time></trkpt><trkpt lat="42.1965932" lon="13.6158663"><ele>1063.4285714285713</ele><time>2026-05-01T12:54:10.713Z</time></trkpt><trkpt lat="42.1965502" lon="13.6159452"><ele>1065.142857142857</ele><time>2026-05-01T12:54:16.689Z</time></trkpt><trkpt lat="42.1965099" lon="13.6160279"><ele>1066.8571428571427</ele><time>2026-05-01T12:54:22.776Z</time></trkpt><trkpt lat="42.1964726" lon="13.6161117"><ele>1068.5714285714284</ele><time>2026-05-01T12:54:28.771Z</time></trkpt><trkpt lat="42.1964385" lon="13.6161968"><ele>1070.2857142857142</ele><time>2026-05-01T12:54:34.769Z</time></trkpt><trkpt lat="42.1964027" lon="13.6162848"><ele>1072.0</ele><time>2026-05-01T12:54:40.734Z</time></trkpt><trkpt lat="42.1963688" lon="13.6163737"><ele>1069.5714285714287</ele><time>2026-05-01T12:54:46.709Z</time></trkpt><trkpt lat="42.1963311" lon="13.616458"><ele>1067.142857142857</ele><time>2026-05-01T12:54:52.676Z</time></trkpt><trkpt lat="42.1962947" lon="13.6165471"><ele>1064.7142857142858</ele><time>2026-05-01T12:54:58.652Z</time></trkpt><trkpt lat="42.1962798" lon="13.6166425"><ele>1062.2857142857142</ele><time>2026-05-01T12:55:04.606Z</time></trkpt><trkpt lat="42.1962593" lon="13.6167232"><ele>1059.857142857143</ele><time>2026-05-01T12:55:10.439Z</time></trkpt><trkpt lat="42.1962648" lon="13.616813"><ele>1057.4285714285716</ele><time>2026-05-01T12:55:16.443Z</time></trkpt><trkpt lat="42.1962693" lon="13.6169004"><ele>1055.0</ele><time>2026-05-01T12:55:22.492Z</time></trkpt><trkpt lat="42.1962309" lon="13.6169931"><ele>1055.0</ele><time>2026-05-01T12:55:40.441Z</time></trkpt><trkpt lat="42.1961826" lon="13.6170597"><ele>1055.0</ele><time>2026-05-01T12:55:45.451Z</time></trkpt><trkpt lat="42.1961391" lon="13.6171517"><ele>1055.0</ele><time>2026-05-01T12:55:52.442Z</time></trkpt><trkpt lat="42.1961259" lon="13.6172414"><ele>1055.0</ele><time>2026-05-01T12:55:58.44Z</time></trkpt><trkpt lat="42.1960715" lon="13.6172983"><ele>1055.0</ele><time>2026-05-01T12:56:03.462Z</time></trkpt><trkpt lat="42.1960483" lon="13.6173794"><ele>1055.0</ele><time>2026-05-01T12:56:08.439Z</time></trkpt><trkpt lat="42.1960184" lon="13.6174701"><ele>1055.0</ele><time>2026-05-01T12:56:14.438Z</time></trkpt><trkpt lat="42.1959858" lon="13.6175653"><ele>1055.0</ele><time>2026-05-01T12:56:20.465Z</time></trkpt><trkpt lat="42.1959519" lon="13.6176412"><ele>1055.0</ele><time>2026-05-01T12:56:25.439Z</time></trkpt><trkpt lat="42.1959145" lon="13.6177282"><ele>1055.0</ele><time>2026-05-01T12:56:31.478Z</time></trkpt><trkpt lat="42.1958808" lon="13.6178013"><ele>1055.0</ele><time>2026-05-01T12:56:36.437Z</time></trkpt><trkpt lat="42.1958483" lon="13.6178943"><ele>1055.0</ele><time>2026-05-01T12:56:42.392Z</time></trkpt><trkpt lat="42.1958161" lon="13.6179734"><ele>1055.0</ele><time>2026-05-01T12:56:47.394Z</time></trkpt><trkpt lat="42.1957802" lon="13.6180466"><ele>1055.0</ele><time>2026-05-01T12:56:52.354Z</time></trkpt><trkpt lat="42.1957443" lon="13.6181341"><ele>1053.5714285714287</ele><time>2026-05-01T12:56:58.33Z</time></trkpt><trkpt lat="42.1957062" lon="13.6182045"><ele>1052.1428571428573</ele><time>2026-05-01T12:57:03.351Z</time></trkpt><trkpt lat="42.1956719" lon="13.6182804"><ele>1050.7142857142858</ele><time>2026-05-01T12:57:08.309Z</time></trkpt><trkpt lat="42.195641" lon="13.6183567"><ele>1049.2857142857142</ele><time>2026-05-01T12:57:13.248Z</time></trkpt><trkpt lat="42.1955982" lon="13.6184391"><ele>1047.8571428571427</ele><time>2026-05-01T12:57:19.214Z</time></trkpt><trkpt lat="42.195564" lon="13.6185129"><ele>1046.4285714285713</ele><time>2026-05-01T12:57:24.234Z</time></trkpt><trkpt lat="42.1955241" lon="13.6185905"><ele>1045.0</ele><time>2026-05-01T12:57:30.19Z</time></trkpt><trkpt lat="42.1954846" lon="13.6186748"><ele>1045.0</ele><time>2026-05-01T12:57:36.238Z</time></trkpt><trkpt lat="42.1954441" lon="13.6187504"><ele>1045.0</ele><time>2026-05-01T12:57:42.445Z</time></trkpt><trkpt lat="42.1954008" lon="13.618829"><ele>1045.0</ele><time>2026-05-01T12:57:48.443Z</time></trkpt><trkpt lat="42.1953538" lon="13.618908"><ele>1045.0</ele><time>2026-05-01T12:57:54.441Z</time></trkpt><trkpt lat="42.1953103" lon="13.6189862"><ele>1045.0</ele><time>2026-05-01T12:58:00.441Z</time></trkpt><trkpt lat="42.1952622" lon="13.6190619"><ele>1045.0</ele><time>2026-05-01T12:58:06.44Z</time></trkpt><trkpt lat="42.1952235" lon="13.6191457"><ele>1045.0</ele><time>2026-05-01T12:58:12.443Z</time></trkpt><trkpt lat="42.1951841" lon="13.6192246"><ele>1045.0</ele><time>2026-05-01T12:58:18.44Z</time></trkpt><trkpt lat="42.195147" lon="13.6193006"><ele>1045.0</ele><time>2026-05-01T12:58:24.443Z</time></trkpt><trkpt lat="42.1951" lon="13.6193726"><ele>1045.0</ele><time>2026-05-01T12:58:30.441Z</time></trkpt><trkpt lat="42.1950557" lon="13.6194464"><ele>1045.0</ele><time>2026-05-01T12:58:36.441Z</time></trkpt><trkpt lat="42.195013" lon="13.6195168"><ele>1045.0</ele><time>2026-05-01T12:58:42.439Z</time></trkpt><trkpt lat="42.194968" lon="13.6195864"><ele>1045.0</ele><time>2026-05-01T12:58:48.441Z</time></trkpt><trkpt lat="42.1949178" lon="13.619649"><ele>1045.0</ele><time>2026-05-01T12:58:54.439Z</time></trkpt><trkpt lat="42.1948669" lon="13.6197209"><ele>1042.2857142857142</ele><time>2026-05-01T12:59:00.443Z</time></trkpt><trkpt lat="42.194812" lon="13.6197902"><ele>1039.5714285714284</ele><time>2026-05-01T12:59:06.444Z</time></trkpt><trkpt lat="42.194763" lon="13.6198633"><ele>1036.857142857143</ele><time>2026-05-01T12:59:12.444Z</time></trkpt><trkpt lat="42.1947116" lon="13.619925"><ele>1034.142857142857</ele><time>2026-05-01T12:59:18.443Z</time></trkpt><trkpt lat="42.1946636" lon="13.6199959"><ele>1031.4285714285716</ele><time>2026-05-01T12:59:24.44Z</time></trkpt><trkpt lat="42.1946096" lon="13.6200684"><ele>1028.7142857142858</ele><time>2026-05-01T12:59:30.44Z</time></trkpt><trkpt lat="42.1945594" lon="13.6201391"><ele>1026.0</ele><time>2026-05-01T12:59:36.441Z</time></trkpt><trkpt lat="42.1945113" lon="13.6202159"><ele>1026.0000000000002</ele><time>2026-05-01T12:59:42.444Z</time></trkpt><trkpt lat="42.1944628" lon="13.62029"><ele>1026.0</ele><time>2026-05-01T12:59:48.441Z</time></trkpt><trkpt lat="42.1944119" lon="13.6203613"><ele>1026.0</ele><time>2026-05-01T12:59:54.441Z</time></trkpt><trkpt lat="42.1943646" lon="13.6204347"><ele>1026.0</ele><time>2026-05-01T13:00:00.444Z</time></trkpt><trkpt lat="42.1943146" lon="13.620498"><ele>1026.0</ele><time>2026-05-01T13:00:06.441Z</time></trkpt><trkpt lat="42.1942719" lon="13.6205652"><ele>1026.0000000000002</ele><time>2026-05-01T13:00:12.439Z</time></trkpt><trkpt lat="42.1942218" lon="13.6206212"><ele>1026.0</ele><time>2026-05-01T13:00:18.443Z</time></trkpt><trkpt lat="42.1941664" lon="13.6206639"><ele>1028.1428571428573</ele><time>2026-05-01T13:00:24.443Z</time></trkpt><trkpt lat="42.1941197" lon="13.6207245"><ele>1030.2857142857142</ele><time>2026-05-01T13:00:30.445Z</time></trkpt><trkpt lat="42.194072" lon="13.6207807"><ele>1032.4285714285716</ele><time>2026-05-01T13:00:36.441Z</time></trkpt><trkpt lat="42.1940238" lon="13.6208422"><ele>1034.5714285714287</ele><time>2026-05-01T13:00:42.442Z</time></trkpt><trkpt lat="42.1939879" lon="13.6209121"><ele>1036.7142857142858</ele><time>2026-05-01T13:00:59.441Z</time></trkpt><trkpt lat="42.193935" lon="13.6209655"><ele>1038.857142857143</ele><time>2026-05-01T13:01:05.442Z</time></trkpt><trkpt lat="42.1938879" lon="13.6210316"><ele>1041.0</ele><time>2026-05-01T13:01:11.44Z</time></trkpt><trkpt lat="42.1938312" lon="13.6210941"><ele>1038.7142857142858</ele><time>2026-05-01T13:01:17.444Z</time></trkpt><trkpt lat="42.1937713" lon="13.621148"><ele>1036.4285714285716</ele><time>2026-05-01T13:01:23.441Z</time></trkpt><trkpt lat="42.193714" lon="13.6212063"><ele>1034.142857142857</ele><time>2026-05-01T13:01:29.438Z</time></trkpt><trkpt lat="42.19366" lon="13.6212593"><ele>1031.857142857143</ele><time>2026-05-01T13:01:35.44Z</time></trkpt><trkpt lat="42.1936104" lon="13.6213233"><ele>1029.5714285714284</ele><time>2026-05-01T13:01:41.475Z</time></trkpt><trkpt lat="42.1935556" lon="13.6213841"><ele>1027.2857142857142</ele><time>2026-05-01T13:01:47.441Z</time></trkpt><trkpt lat="42.1934961" lon="13.6214367"><ele>1025.0</ele><time>2026-05-01T13:01:53.444Z</time></trkpt><trkpt lat="42.193438" lon="13.6214857"><ele>1024.9999999999998</ele><time>2026-05-01T13:01:59.441Z</time></trkpt><trkpt lat="42.1933814" lon="13.6215422"><ele>1025.0</ele><time>2026-05-01T13:02:05.329Z</time></trkpt><trkpt lat="42.1933266" lon="13.6215937"><ele>1025.0</ele><time>2026-05-01T13:02:11.496Z</time></trkpt><trkpt lat="42.1932752" lon="13.6216569"><ele>1025.0</ele><time>2026-05-01T13:02:17.439Z</time></trkpt><trkpt lat="42.1932149" lon="13.62171"><ele>1025.0</ele><time>2026-05-01T13:02:23.444Z</time></trkpt><trkpt lat="42.1931534" lon="13.621757"><ele>1024.9999999999998</ele><time>2026-05-01T13:02:29.526Z</time></trkpt><trkpt lat="42.1931075" lon="13.6218234"><ele>1025.0</ele><time>2026-05-01T13:02:35.425Z</time></trkpt><trkpt lat="42.1930551" lon="13.6218791"><ele>1024.142857142857</ele><time>2026-05-01T13:02:41.44Z</time></trkpt><trkpt lat="42.1929985" lon="13.6219286"><ele>1023.2857142857142</ele><time>2026-05-01T13:02:47.463Z</time></trkpt><trkpt lat="42.1929493" lon="13.6219857"><ele>1022.4285714285714</ele><time>2026-05-01T13:02:53.352Z</time></trkpt><trkpt lat="42.1928985" lon="13.6220367"><ele>1021.5714285714286</ele><time>2026-05-01T13:02:59.441Z</time></trkpt><trkpt lat="42.1928462" lon="13.6220935"><ele>1020.7142857142858</ele><time>2026-05-01T13:03:05.469Z</time></trkpt><trkpt lat="42.1927905" lon="13.6221421"><ele>1019.857142857143</ele><time>2026-05-01T13:03:11.49Z</time></trkpt><trkpt lat="42.1927303" lon="13.6221935"><ele>1019.0000000000001</ele><time>2026-05-01T13:03:17.443Z</time></trkpt><trkpt lat="42.1926763" lon="13.6222549"><ele>1019.0000000000001</ele><time>2026-05-01T13:03:23.476Z</time></trkpt><trkpt lat="42.1926308" lon="13.6223155"><ele>1019.0</ele><time>2026-05-01T13:03:29.441Z</time></trkpt><trkpt lat="42.1925723" lon="13.6223553"><ele>1019.0000000000001</ele><time>2026-05-01T13:03:47.441Z</time></trkpt><trkpt lat="42.1925363" lon="13.6224303"><ele>1019.0000000000001</ele><time>2026-05-01T13:03:52.446Z</time></trkpt><trkpt lat="42.192496" lon="13.6224995"><ele>1019.0</ele><time>2026-05-01T13:03:58.455Z</time></trkpt><trkpt lat="42.1924464" lon="13.6225593"><ele>1019.0000000000001</ele><time>2026-05-01T13:04:04.44Z</time></trkpt><trkpt lat="42.1923989" lon="13.622628"><ele>1019.0000000000001</ele><time>2026-05-01T13:04:10.451Z</time></trkpt><trkpt lat="42.1923511" lon="13.6227046"><ele>1018.1428571428573</ele><time>2026-05-01T13:04:16.473Z</time></trkpt><trkpt lat="42.1923022" lon="13.6227737"><ele>1017.2857142857143</ele><time>2026-05-01T13:04:22.441Z</time></trkpt><trkpt lat="42.1922492" lon="13.6228389"><ele>1016.4285714285716</ele><time>2026-05-01T13:04:28.458Z</time></trkpt><trkpt lat="42.1921953" lon="13.6228985"><ele>1015.5714285714287</ele><time>2026-05-01T13:04:34.442Z</time></trkpt><trkpt lat="42.1921525" lon="13.6229692"><ele>1014.7142857142858</ele><time>2026-05-01T13:04:40.44Z</time></trkpt><trkpt lat="42.1921075" lon="13.6230398"><ele>1013.8571428571429</ele><time>2026-05-01T13:04:46.462Z</time></trkpt><trkpt lat="42.1920613" lon="13.6231044"><ele>1013.0</ele><time>2026-05-01T13:04:52.439Z</time></trkpt><trkpt lat="42.1920093" lon="13.6231697"><ele>1013.0</ele><time>2026-05-01T13:04:58.441Z</time></trkpt><trkpt lat="42.1919599" lon="13.6232322"><ele>1013.0000000000001</ele><time>2026-05-01T13:05:04.454Z</time></trkpt><trkpt lat="42.1919077" lon="13.6232911"><ele>1013.0</ele><time>2026-05-01T13:05:10.441Z</time></trkpt><trkpt lat="42.1918584" lon="13.6233526"><ele>1013.0</ele><time>2026-05-01T13:05:16.415Z</time></trkpt><trkpt lat="42.1918067" lon="13.6234197"><ele>1013.0000000000001</ele><time>2026-05-01T13:05:23.442Z</time></trkpt><trkpt lat="42.1917558" lon="13.6234816"><ele>1013.0</ele><time>2026-05-01T13:05:29.442Z</time></trkpt><trkpt lat="42.1917041" lon="13.6235414"><ele>1013.0</ele><time>2026-05-01T13:05:35.456Z</time></trkpt><trkpt lat="42.1916488" lon="13.6235975"><ele>1011.5714285714287</ele><time>2026-05-01T13:05:41.439Z</time></trkpt><trkpt lat="42.1915957" lon="13.6236641"><ele>1010.1428571428572</ele><time>2026-05-01T13:05:47.441Z</time></trkpt><trkpt lat="42.1915421" lon="13.6237208"><ele>1008.7142857142858</ele><time>2026-05-01T13:05:53.456Z</time></trkpt><trkpt lat="42.1914979" lon="13.6237861"><ele>1007.2857142857142</ele><time>2026-05-01T13:05:59.443Z</time></trkpt><trkpt lat="42.191442" lon="13.6238478"><ele>1005.8571428571428</ele><time>2026-05-01T13:06:05.416Z</time></trkpt><trkpt lat="42.1913923" lon="13.6239105"><ele>1004.4285714285713</ele><time>2026-05-01T13:06:11.463Z</time></trkpt><trkpt lat="42.1913412" lon="13.6239661"><ele>1003.0</ele><time>2026-05-01T13:06:17.485Z</time></trkpt><trkpt lat="42.1912859" lon="13.6240184"><ele>1003.0</ele><time>2026-05-01T13:06:23.489Z</time></trkpt><trkpt lat="42.1912349" lon="13.6240798"><ele>1002.9999999999999</ele><time>2026-05-01T13:06:29.467Z</time></trkpt><trkpt lat="42.1911731" lon="13.6241159"><ele>1003.0</ele><time>2026-05-01T13:06:43.45Z</time></trkpt><trkpt lat="42.1911378" lon="13.6242043"><ele>1003.0</ele><time>2026-05-01T13:06:49.485Z</time></trkpt><trkpt lat="42.1910969" lon="13.624274"><ele>1002.9999999999999</ele><time>2026-05-01T13:06:55.441Z</time></trkpt><trkpt lat="42.191051" lon="13.6243442"><ele>1003.0</ele><time>2026-05-01T13:07:01.455Z</time></trkpt><trkpt lat="42.1909932" lon="13.6243955"><ele>1003.0</ele><time>2026-05-01T13:07:08.442Z</time></trkpt><trkpt lat="42.1909493" lon="13.6244587"><ele>1002.0</ele><time>2026-05-01T13:07:14.442Z</time></trkpt><trkpt lat="42.1909032" lon="13.6245304"><ele>1000.9999999999999</ele><time>2026-05-01T13:07:20.467Z</time></trkpt><trkpt lat="42.1908576" lon="13.6245946"><ele>1000.0</ele><time>2026-05-01T13:07:26.438Z</time></trkpt><trkpt lat="42.1908075" lon="13.6246489"><ele>999.0</ele><time>2026-05-01T13:07:32.442Z</time></trkpt><trkpt lat="42.1907493" lon="13.6246968"><ele>997.9999999999999</ele><time>2026-05-01T13:07:38.473Z</time></trkpt><trkpt lat="42.1907035" lon="13.6247608"><ele>997.0</ele><time>2026-05-01T13:07:44.392Z</time></trkpt><trkpt lat="42.1906536" lon="13.6248239"><ele>996.0</ele><time>2026-05-01T13:07:50.442Z</time></trkpt><trkpt lat="42.1905993" lon="13.624873"><ele>996.0</ele><time>2026-05-01T13:07:56.375Z</time></trkpt><trkpt lat="42.1905533" lon="13.6249412"><ele>995.9999999999999</ele><time>2026-05-01T13:08:02.44Z</time></trkpt><trkpt lat="42.190507" lon="13.6250063"><ele>996.0</ele><time>2026-05-01T13:08:08.448Z</time></trkpt><trkpt lat="42.1904646" lon="13.6250777"><ele>996.0</ele><time>2026-05-01T13:08:14.431Z</time></trkpt><trkpt lat="42.1904133" lon="13.6251407"><ele>995.9999999999999</ele><time>2026-05-01T13:08:20.445Z</time></trkpt><trkpt lat="42.1903654" lon="13.6252054"><ele>996.0</ele><time>2026-05-01T13:08:26.429Z</time></trkpt><trkpt lat="42.1903222" lon="13.6252706"><ele>996.0</ele><time>2026-05-01T13:08:32.49Z</time></trkpt><trkpt lat="42.1902735" lon="13.6253408"><ele>998.1428571428571</ele><time>2026-05-01T13:08:38.444Z</time></trkpt><trkpt lat="42.1902197" lon="13.6254058"><ele>1000.2857142857142</ele><time>2026-05-01T13:08:44.495Z</time></trkpt><trkpt lat="42.1901695" lon="13.6254698"><ele>1002.4285714285713</ele><time>2026-05-01T13:08:50.441Z</time></trkpt><trkpt lat="42.1901056" lon="13.6255513"><ele>1004.5714285714284</ele><time>2026-05-01T13:09:12.44Z</time></trkpt><trkpt lat="42.1900582" lon="13.6256214"><ele>1006.7142857142857</ele><time>2026-05-01T13:09:18.415Z</time></trkpt><trkpt lat="42.190007" lon="13.6256786"><ele>1008.8571428571427</ele><time>2026-05-01T13:09:24.443Z</time></trkpt><trkpt lat="42.1899558" lon="13.6257336"><ele>1010.9999999999999</ele><time>2026-05-01T13:09:31.351Z</time></trkpt><trkpt lat="42.1899063" lon="13.6257905"><ele>1010.9999999999999</ele><time>2026-05-01T13:09:45.441Z</time></trkpt><trkpt lat="42.189857" lon="13.6258553"><ele>1011.0</ele><time>2026-05-01T13:09:51.451Z</time></trkpt><trkpt lat="42.1898739" lon="13.6257704"><ele>1010.9999999999999</ele><time>2026-05-01T13:10:13.48Z</time></trkpt><trkpt lat="42.1898832" lon="13.6256855"><ele>1010.9999999999999</ele><time>2026-05-01T13:10:22.439Z</time></trkpt><trkpt lat="42.1898657" lon="13.6256004"><ele>1011.0</ele><time>2026-05-01T13:10:54.443Z</time></trkpt><trkpt lat="42.1898891" lon="13.6255112"><ele>1010.9999999999999</ele><time>2026-05-01T13:11:01.462Z</time></trkpt><trkpt lat="42.1898193" lon="13.625508"><ele>1010.9999999999999</ele><time>2026-05-01T13:12:21.439Z</time></trkpt><trkpt lat="42.1898867" lon="13.6255421"><ele>1010.9999999999999</ele><time>2026-05-01T13:14:40.477Z</time></trkpt><trkpt lat="42.1898962" lon="13.6256291"><ele>1011.0</ele><time>2026-05-01T13:14:49.442Z</time></trkpt><trkpt lat="42.1898546" lon="13.6257058"><ele>1010.9999999999999</ele><time>2026-05-01T13:14:57.477Z</time></trkpt><trkpt lat="42.1897874" lon="13.6257114"><ele>1010.9999999999999</ele><time>2026-05-01T13:15:24.444Z</time></trkpt><trkpt lat="42.189733" lon="13.6258017"><ele>1011.0</ele><time>2026-05-01T13:15:45.496Z</time></trkpt><trkpt lat="42.1897298" lon="13.6258889"><ele>1010.9999999999999</ele><time>2026-05-01T13:15:49.397Z</time></trkpt><trkpt lat="42.1896864" lon="13.6259512"><ele>1010.9999999999999</ele><time>2026-05-01T13:15:54.446Z</time></trkpt><trkpt lat="42.1896451" lon="13.6260211"><ele>1010.2857142857142</ele><time>2026-05-01T13:16:00.447Z</time></trkpt><trkpt lat="42.1896129" lon="13.6261025"><ele>1009.5714285714286</ele><time>2026-05-01T13:16:19.458Z</time></trkpt><trkpt lat="42.1895662" lon="13.6261603"><ele>1008.8571428571429</ele><time>2026-05-01T13:16:24.442Z</time></trkpt><trkpt lat="42.1895094" lon="13.6262079"><ele>1008.1428571428571</ele><time>2026-05-01T13:16:30.44Z</time></trkpt><trkpt lat="42.1894566" lon="13.6262715"><ele>1007.4285714285716</ele><time>2026-05-01T13:16:36.412Z</time></trkpt><trkpt lat="42.1894018" lon="13.6263245"><ele>1006.7142857142858</ele><time>2026-05-01T13:16:42.442Z</time></trkpt><trkpt lat="42.1893363" lon="13.6263404"><ele>1006.0</ele><time>2026-05-01T13:16:49.438Z</time></trkpt><trkpt lat="42.189307" lon="13.6264187"><ele>1006.0</ele><time>2026-05-01T13:16:54.43Z</time></trkpt><trkpt lat="42.1892591" lon="13.6264833"><ele>1006.0000000000001</ele><time>2026-05-01T13:17:00.439Z</time></trkpt><trkpt lat="42.1892054" lon="13.626546"><ele>1006.0</ele><time>2026-05-01T13:17:06.442Z</time></trkpt><trkpt lat="42.1891583" lon="13.6266115"><ele>1006.0</ele><time>2026-05-01T13:17:12.468Z</time></trkpt><trkpt lat="42.1891069" lon="13.6266712"><ele>1006.0000000000001</ele><time>2026-05-01T13:17:18.441Z</time></trkpt><trkpt lat="42.1890496" lon="13.6267173"><ele>1006.0</ele><time>2026-05-01T13:17:24.445Z</time></trkpt><trkpt lat="42.1889993" lon="13.6267796"><ele>1006.0</ele><time>2026-05-01T13:17:30.43Z</time></trkpt><trkpt lat="42.1889447" lon="13.6268391"><ele>1005.8571428571429</ele><time>2026-05-01T13:17:36.439Z</time></trkpt><trkpt lat="42.1888847" lon="13.6268918"><ele>1005.7142857142858</ele><time>2026-05-01T13:17:42.444Z</time></trkpt><trkpt lat="42.1888361" lon="13.6269584"><ele>1005.5714285714287</ele><time>2026-05-01T13:17:48.479Z</time></trkpt><trkpt lat="42.1887803" lon="13.6270223"><ele>1005.4285714285716</ele><time>2026-05-01T13:17:54.439Z</time></trkpt><trkpt lat="42.1887227" lon="13.6270817"><ele>1005.2857142857143</ele><time>2026-05-01T13:18:00.448Z</time></trkpt><trkpt lat="42.1886707" lon="13.6271496"><ele>1005.1428571428573</ele><time>2026-05-01T13:18:06.483Z</time></trkpt><trkpt lat="42.1886318" lon="13.627224"><ele>1005.0000000000001</ele><time>2026-05-01T13:18:12.455Z</time></trkpt><trkpt lat="42.1885676" lon="13.6272698"><ele>1005.0000000000001</ele><time>2026-05-01T13:18:18.453Z</time></trkpt><trkpt lat="42.1885254" lon="13.6273447"><ele>1005.0</ele><time>2026-05-01T13:18:24.44Z</time></trkpt><trkpt lat="42.1884723" lon="13.627396"><ele>1005.0000000000001</ele><time>2026-05-01T13:18:29.44Z</time></trkpt><trkpt lat="42.1884205" lon="13.6274558"><ele>1005.0000000000001</ele><time>2026-05-01T13:18:35.454Z</time></trkpt><trkpt lat="42.1883557" lon="13.6274982"><ele>1005.0</ele><time>2026-05-01T13:18:41.454Z</time></trkpt><trkpt lat="42.1882978" lon="13.6275546"><ele>1005.0000000000001</ele><time>2026-05-01T13:18:47.442Z</time></trkpt><trkpt lat="42.1882459" lon="13.6276193"><ele>1005.0000000000001</ele><time>2026-05-01T13:18:53.459Z</time></trkpt><trkpt lat="42.1881921" lon="13.6276807"><ele>1005.0000000000001</ele><time>2026-05-01T13:18:59.441Z</time></trkpt><trkpt lat="42.1881387" lon="13.6277397"><ele>1005.0</ele><time>2026-05-01T13:19:05.434Z</time></trkpt><trkpt lat="42.1880829" lon="13.6277981"><ele>1005.0000000000001</ele><time>2026-05-01T13:19:11.463Z</time></trkpt><trkpt lat="42.1880317" lon="13.6278564"><ele>1005.0000000000001</ele><time>2026-05-01T13:19:17.393Z</time></trkpt><trkpt lat="42.1879731" lon="13.6279035"><ele>1005.0</ele><time>2026-05-01T13:19:24.44Z</time></trkpt><trkpt lat="42.1879161" lon="13.6279604"><ele>1005.0000000000001</ele><time>2026-05-01T13:19:30.39Z</time></trkpt><trkpt lat="42.1878709" lon="13.6280204"><ele>1005.0000000000001</ele><time>2026-05-01T13:19:36.441Z</time></trkpt><trkpt lat="42.1878227" lon="13.6280845"><ele>1005.0000000000001</ele><time>2026-05-01T13:19:42.349Z</time></trkpt><trkpt lat="42.1877682" lon="13.6281379"><ele>1005.0</ele><time>2026-05-01T13:19:48.438Z</time></trkpt><trkpt lat="42.1877148" lon="13.6281852"><ele>1005.0000000000001</ele><time>2026-05-01T13:19:53.876Z</time></trkpt><trkpt lat="42.1876484" lon="13.6282209"><ele>1005.0000000000001</ele><time>2026-05-01T13:20:00.448Z</time></trkpt><trkpt lat="42.1876266" lon="13.6281397"><ele>1005.0</ele><time>2026-05-01T13:20:06.485Z</time></trkpt><trkpt lat="42.1875992" lon="13.6282352"><ele>1005.0000000000001</ele><time>2026-05-01T13:20:14.44Z</time></trkpt><trkpt lat="42.1875504" lon="13.628299"><ele>1005.0000000000001</ele><time>2026-05-01T13:20:19.459Z</time></trkpt><trkpt lat="42.1875031" lon="13.6283656"><ele>1005.0000000000001</ele><time>2026-05-01T13:20:24.489Z</time></trkpt><trkpt lat="42.1874505" lon="13.6284364"><ele>1005.0</ele><time>2026-05-01T13:20:30.39Z</time></trkpt><trkpt lat="42.1874065" lon="13.6285032"><ele>1005.0000000000001</ele><time>2026-05-01T13:20:35.409Z</time></trkpt><trkpt lat="42.1873549" lon="13.6285565"><ele>1005.0000000000001</ele><time>2026-05-01T13:20:40.498Z</time></trkpt><trkpt lat="42.1872941" lon="13.6286137"><ele>1005.0</ele><time>2026-05-01T13:20:46.439Z</time></trkpt><trkpt lat="42.187235" lon="13.6286742"><ele>1005.0000000000001</ele><time>2026-05-01T13:20:52.452Z</time></trkpt><trkpt lat="42.1871767" lon="13.6287355"><ele>1005.0000000000001</ele><time>2026-05-01T13:20:58.442Z</time></trkpt><trkpt lat="42.1871197" lon="13.6287992"><ele>1005.5714285714287</ele><time>2026-05-01T13:21:04.441Z</time></trkpt><trkpt lat="42.1870642" lon="13.6288588"><ele>1006.1428571428571</ele><time>2026-05-01T13:21:10.457Z</time></trkpt><trkpt lat="42.1870138" lon="13.6289214"><ele>1006.7142857142858</ele><time>2026-05-01T13:21:16.489Z</time></trkpt><trkpt lat="42.1869683" lon="13.6289896"><ele>1007.2857142857143</ele><time>2026-05-01T13:21:22.441Z</time></trkpt><trkpt lat="42.186919" lon="13.6290572"><ele>1007.8571428571429</ele><time>2026-05-01T13:21:28.48Z</time></trkpt><trkpt lat="42.1868555" lon="13.6290925"><ele>1008.4285714285714</ele><time>2026-05-01T13:21:34.441Z</time></trkpt><trkpt lat="42.1867995" lon="13.6291373"><ele>1009.0</ele><time>2026-05-01T13:21:40.363Z</time></trkpt><trkpt lat="42.1867426" lon="13.6291748"><ele>1009.0</ele><time>2026-05-01T13:21:46.466Z</time></trkpt><trkpt lat="42.1866809" lon="13.6292297"><ele>1009.0</ele><time>2026-05-01T13:21:53.447Z</time></trkpt><trkpt lat="42.1866263" lon="13.6292797"><ele>1009.0</ele><time>2026-05-01T13:21:59.445Z</time></trkpt><trkpt lat="42.1865718" lon="13.629325"><ele>1009.0</ele><time>2026-05-01T13:22:05.477Z</time></trkpt><trkpt lat="42.1865131" lon="13.6293717"><ele>1009.0</ele><time>2026-05-01T13:22:11.588Z</time></trkpt><trkpt lat="42.1864516" lon="13.6294173"><ele>1009.0</ele><time>2026-05-01T13:22:18.096Z</time></trkpt><trkpt lat="42.1863955" lon="13.6294657"><ele>1009.0</ele><time>2026-05-01T13:22:24.441Z</time></trkpt><trkpt lat="42.1863281" lon="13.6294771"><ele>1010.0</ele><time>2026-05-01T13:22:31.444Z</time></trkpt><trkpt lat="42.1862761" lon="13.6295266"><ele>1011.0</ele><time>2026-05-01T13:22:36.458Z</time></trkpt><trkpt lat="42.1862225" lon="13.6295712"><ele>1012.0</ele><time>2026-05-01T13:22:41.393Z</time></trkpt><trkpt lat="42.1861654" lon="13.6296152"><ele>1013.0</ele><time>2026-05-01T13:22:47.456Z</time></trkpt><trkpt lat="42.186106" lon="13.6296546"><ele>1014.0</ele><time>2026-05-01T13:22:53.456Z</time></trkpt><trkpt lat="42.1860402" lon="13.6296684"><ele>1015.0</ele><time>2026-05-01T13:23:00.441Z</time></trkpt><trkpt lat="42.1859909" lon="13.6297254"><ele>1016.0</ele><time>2026-05-01T13:23:06.443Z</time></trkpt><trkpt lat="42.185945" lon="13.6297977"><ele>1016.0</ele><time>2026-05-01T13:23:13.474Z</time></trkpt><trkpt lat="42.1858978" lon="13.629857"><ele>1016.0</ele><time>2026-05-01T13:23:20.44Z</time></trkpt><trkpt lat="42.1858455" lon="13.6299154"><ele>1016.0</ele><time>2026-05-01T13:23:27.456Z</time></trkpt><trkpt lat="42.1857978" lon="13.62998"><ele>1016.0</ele><time>2026-05-01T13:23:34.442Z</time></trkpt><trkpt lat="42.1857471" lon="13.6300421"><ele>1016.0</ele><time>2026-05-01T13:23:41.445Z</time></trkpt><trkpt lat="42.1856838" lon="13.6300456"><ele>1016.0</ele><time>2026-05-01T13:23:49.483Z</time></trkpt><trkpt lat="42.1856119" lon="13.6300748"><ele>1016.0</ele><time>2026-05-01T13:24:14.439Z</time></trkpt><trkpt lat="42.1855704" lon="13.6301417"><ele>1016.0</ele><time>2026-05-01T13:24:19.458Z</time></trkpt><trkpt lat="42.1855325" lon="13.6302395"><ele>1016.0</ele><time>2026-05-01T13:24:38.468Z</time></trkpt><trkpt lat="42.185494" lon="13.6303167"><ele>1016.0</ele><time>2026-05-01T13:24:51.493Z</time></trkpt><trkpt lat="42.1854536" lon="13.6303882"><ele>1016.0</ele><time>2026-05-01T13:24:57.439Z</time></trkpt><trkpt lat="42.1854127" lon="13.630458"><ele>1016.0</ele><time>2026-05-01T13:25:04.44Z</time></trkpt><trkpt lat="42.1853916" lon="13.6305405"><ele>1016.0</ele><time>2026-05-01T13:25:11.46Z</time></trkpt><trkpt lat="42.185364" lon="13.630621"><ele>1016.0</ele><time>2026-05-01T13:25:19.392Z</time></trkpt><trkpt lat="42.1853311" lon="13.6307037"><ele>1016.0</ele><time>2026-05-01T13:25:27.453Z</time></trkpt><trkpt lat="42.1852944" lon="13.6307753"><ele>1016.0</ele><time>2026-05-01T13:25:34.444Z</time></trkpt><trkpt lat="42.1852772" lon="13.6308586"><ele>1016.0</ele><time>2026-05-01T13:25:41.441Z</time></trkpt><trkpt lat="42.1852613" lon="13.6309452"><ele>1016.0</ele><time>2026-05-01T13:25:48.476Z</time></trkpt><trkpt lat="42.1852462" lon="13.6310279"><ele>1016.0</ele><time>2026-05-01T13:25:55.442Z</time></trkpt><trkpt lat="42.185211" lon="13.6311109"><ele>1016.0</ele><time>2026-05-01T13:26:03.462Z</time></trkpt><trkpt lat="42.1852115" lon="13.6312032"><ele>1016.0</ele><time>2026-05-01T13:26:10.51Z</time></trkpt><trkpt lat="42.185197" lon="13.6312876"><ele>1018.1428571428571</ele><time>2026-05-01T13:26:17.443Z</time></trkpt><trkpt lat="42.1851629" lon="13.6313599"><ele>1020.2857142857142</ele><time>2026-05-01T13:26:26.441Z</time></trkpt><trkpt lat="42.1851398" lon="13.6314465"><ele>1022.4285714285713</ele><time>2026-05-01T13:26:33.443Z</time></trkpt><trkpt lat="42.1851009" lon="13.6315281"><ele>1024.5714285714284</ele><time>2026-05-01T13:26:40.477Z</time></trkpt><trkpt lat="42.1850709" lon="13.6316171"><ele>1026.7142857142856</ele><time>2026-05-01T13:26:47.446Z</time></trkpt><trkpt lat="42.1850153" lon="13.6316591"><ele>1028.857142857143</ele><time>2026-05-01T13:26:56.471Z</time></trkpt><trkpt lat="42.184966" lon="13.6317282"><ele>1031.0</ele><time>2026-05-01T13:27:03.44Z</time></trkpt><trkpt lat="42.1849349" lon="13.6318051"><ele>1031.0</ele><time>2026-05-01T13:27:09.447Z</time></trkpt><trkpt lat="42.1849067" lon="13.6318977"><ele>1031.0</ele><time>2026-05-01T13:27:16.487Z</time></trkpt><trkpt lat="42.1848631" lon="13.6319602"><ele>1031.0</ele><time>2026-05-01T13:27:27.451Z</time></trkpt><trkpt lat="42.1849002" lon="13.6320419"><ele>1031.0</ele><time>2026-05-01T13:27:42.353Z</time></trkpt><trkpt lat="42.1848568" lon="13.6321172"><ele>1031.0</ele><time>2026-05-01T13:27:49.48Z</time></trkpt><trkpt lat="42.1848015" lon="13.6321751"><ele>1031.0</ele><time>2026-05-01T13:27:58.444Z</time></trkpt><trkpt lat="42.1847655" lon="13.6322538"><ele>1031.0</ele><time>2026-05-01T13:28:06.477Z</time></trkpt><trkpt lat="42.1847129" lon="13.6323034"><ele>1031.5714285714284</ele><time>2026-05-01T13:28:20.458Z</time></trkpt><trkpt lat="42.1846769" lon="13.6323831"><ele>1032.142857142857</ele><time>2026-05-01T13:28:26.493Z</time></trkpt><trkpt lat="42.1846239" lon="13.6324398"><ele>1032.7142857142858</ele><time>2026-05-01T13:28:33.443Z</time></trkpt><trkpt lat="42.1845628" lon="13.6324802"><ele>1033.2857142857142</ele><time>2026-05-01T13:28:40.475Z</time></trkpt><trkpt lat="42.1845119" lon="13.6325652"><ele>1033.857142857143</ele><time>2026-05-01T13:28:56.454Z</time></trkpt><trkpt lat="42.1844669" lon="13.6326287"><ele>1034.4285714285713</ele><time>2026-05-01T13:29:01.442Z</time></trkpt><trkpt lat="42.1844243" lon="13.6326984"><ele>1035.0</ele><time>2026-05-01T13:29:08.444Z</time></trkpt><trkpt lat="42.1843802" lon="13.632762"><ele>1037.142857142857</ele><time>2026-05-01T13:29:15.478Z</time></trkpt><trkpt lat="42.1843263" lon="13.6328254"><ele>1039.2857142857142</ele><time>2026-05-01T13:29:23.494Z</time></trkpt><trkpt lat="42.1842884" lon="13.6328977"><ele>1041.4285714285716</ele><time>2026-05-01T13:29:30.465Z</time></trkpt><trkpt lat="42.1842549" lon="13.6329799"><ele>1043.5714285714284</ele><time>2026-05-01T13:29:37.515Z</time></trkpt><trkpt lat="42.1842448" lon="13.633069"><ele>1045.7142857142858</ele><time>2026-05-01T13:29:44.446Z</time></trkpt><trkpt lat="42.1842071" lon="13.6331454"><ele>1047.857142857143</ele><time>2026-05-01T13:29:56.444Z</time></trkpt><trkpt lat="42.1841612" lon="13.6332144"><ele>1050.0</ele><time>2026-05-01T13:30:01.445Z</time></trkpt><trkpt lat="42.1840997" lon="13.633242"><ele>1050.0</ele><time>2026-05-01T13:30:06.442Z</time></trkpt><trkpt lat="42.1840379" lon="13.6332625"><ele>1050.0</ele><time>2026-05-01T13:30:12.441Z</time></trkpt><trkpt lat="42.1839807" lon="13.6333155"><ele>1050.0</ele><time>2026-05-01T13:30:19.45Z</time></trkpt><trkpt lat="42.1839426" lon="13.6333842"><ele>1050.0</ele><time>2026-05-01T13:30:25.485Z</time></trkpt><trkpt lat="42.1838879" lon="13.633441"><ele>1050.0</ele><time>2026-05-01T13:30:32.444Z</time></trkpt><trkpt lat="42.1838376" lon="13.6335063"><ele>1050.0</ele><time>2026-05-01T13:30:40.471Z</time></trkpt><trkpt lat="42.1837818" lon="13.6335511"><ele>1050.0</ele><time>2026-05-01T13:30:48.442Z</time></trkpt><trkpt lat="42.183723" lon="13.6336029"><ele>1051.142857142857</ele><time>2026-05-01T13:30:55.458Z</time></trkpt><trkpt lat="42.1836584" lon="13.6336276"><ele>1052.2857142857142</ele><time>2026-05-01T13:31:02.44Z</time></trkpt><trkpt lat="42.1836053" lon="13.6336819"><ele>1053.4285714285716</ele><time>2026-05-01T13:31:09.44Z</time></trkpt><trkpt lat="42.183557" lon="13.6337406"><ele>1054.5714285714284</ele><time>2026-05-01T13:31:16.479Z</time></trkpt><trkpt lat="42.1835156" lon="13.6338103"><ele>1055.7142857142858</ele><time>2026-05-01T13:31:23.44Z</time></trkpt><trkpt lat="42.1834607" lon="13.6338676"><ele>1056.857142857143</ele><time>2026-05-01T13:31:30.376Z</time></trkpt><trkpt lat="42.1834062" lon="13.633923"><ele>1058.0</ele><time>2026-05-01T13:31:37.476Z</time></trkpt><trkpt lat="42.1833505" lon="13.6339792"><ele>1058.0</ele><time>2026-05-01T13:31:44.441Z</time></trkpt><trkpt lat="42.1832882" lon="13.6340283"><ele>1058.0</ele><time>2026-05-01T13:31:51.482Z</time></trkpt><trkpt lat="42.1832312" lon="13.6340684"><ele>1058.0</ele><time>2026-05-01T13:31:58.44Z</time></trkpt><trkpt lat="42.1831748" lon="13.6341134"><ele>1058.0</ele><time>2026-05-01T13:32:05.464Z</time></trkpt><trkpt lat="42.1831229" lon="13.6341638"><ele>1058.0</ele><time>2026-05-01T13:32:15.445Z</time></trkpt><trkpt lat="42.1830717" lon="13.6342296"><ele>1058.0</ele><time>2026-05-01T13:32:21.456Z</time></trkpt><trkpt lat="42.1830094" lon="13.6342807"><ele>1058.0</ele><time>2026-05-01T13:32:28.444Z</time></trkpt><trkpt lat="42.1829578" lon="13.6343457"><ele>1056.7142857142858</ele><time>2026-05-01T13:32:35.444Z</time></trkpt><trkpt lat="42.1829026" lon="13.6344064"><ele>1055.4285714285713</ele><time>2026-05-01T13:32:42.478Z</time></trkpt><trkpt lat="42.1828418" lon="13.6344638"><ele>1054.142857142857</ele><time>2026-05-01T13:32:49.446Z</time></trkpt><trkpt lat="42.1827856" lon="13.6345213"><ele>1052.857142857143</ele><time>2026-05-01T13:32:56.46Z</time></trkpt><trkpt lat="42.1827442" lon="13.6345873"><ele>1051.5714285714287</ele><time>2026-05-01T13:33:03.445Z</time></trkpt><trkpt lat="42.1826962" lon="13.6346559"><ele>1050.2857142857142</ele><time>2026-05-01T13:33:10.455Z</time></trkpt><trkpt lat="42.1826551" lon="13.6347299"><ele>1049.0</ele><time>2026-05-01T13:33:17.48Z</time></trkpt><trkpt lat="42.18259" lon="13.6347552"><ele>1050.142857142857</ele><time>2026-05-01T13:35:29.442Z</time></trkpt><trkpt lat="42.1825377" lon="13.6348239"><ele>1051.2857142857142</ele><time>2026-05-01T13:35:36.441Z</time></trkpt><trkpt lat="42.1824773" lon="13.6348749"><ele>1052.4285714285716</ele><time>2026-05-01T13:35:42.492Z</time></trkpt><trkpt lat="42.1824288" lon="13.634936"><ele>1053.5714285714284</ele><time>2026-05-01T13:35:48.46Z</time></trkpt><trkpt lat="42.1823735" lon="13.6349991"><ele>1054.7142857142858</ele><time>2026-05-01T13:35:55.441Z</time></trkpt><trkpt lat="42.1823244" lon="13.6350657"><ele>1055.857142857143</ele><time>2026-05-01T13:36:02.509Z</time></trkpt><trkpt lat="42.1822822" lon="13.635135"><ele>1057.0</ele><time>2026-05-01T13:36:09.469Z</time></trkpt><trkpt lat="42.1822351" lon="13.6352018"><ele>1057.0</ele><time>2026-05-01T13:36:16.445Z</time></trkpt><trkpt lat="42.1821919" lon="13.6352782"><ele>1057.0</ele><time>2026-05-01T13:36:24.471Z</time></trkpt><trkpt lat="42.1821513" lon="13.6353452"><ele>1057.0</ele><time>2026-05-01T13:36:31.442Z</time></trkpt><trkpt lat="42.1821071" lon="13.6354093"><ele>1057.0</ele><time>2026-05-01T13:36:38.488Z</time></trkpt><trkpt lat="42.1820675" lon="13.6354885"><ele>1057.0</ele><time>2026-05-01T13:36:46.442Z</time></trkpt><trkpt lat="42.1820302" lon="13.6355593"><ele>1057.0</ele><time>2026-05-01T13:36:52.347Z</time></trkpt><trkpt lat="42.1820024" lon="13.6356415"><ele>1057.0</ele><time>2026-05-01T13:36:59.474Z</time></trkpt><trkpt lat="42.1819636" lon="13.6357205"><ele>1059.142857142857</ele><time>2026-05-01T13:37:07.442Z</time></trkpt><trkpt lat="42.1819178" lon="13.6357874"><ele>1061.2857142857142</ele><time>2026-05-01T13:37:14.461Z</time></trkpt><trkpt lat="42.1818694" lon="13.6358489"><ele>1063.4285714285716</ele><time>2026-05-01T13:37:21.457Z</time></trkpt><trkpt lat="42.1818271" lon="13.6359255"><ele>1065.5714285714284</ele><time>2026-05-01T13:37:29.449Z</time></trkpt><trkpt lat="42.18179" lon="13.6359975"><ele>1067.7142857142858</ele><time>2026-05-01T13:37:36.437Z</time></trkpt><trkpt lat="42.1817442" lon="13.6360692"><ele>1069.857142857143</ele><time>2026-05-01T13:37:44.372Z</time></trkpt><trkpt lat="42.1816958" lon="13.6361283"><ele>1072.0</ele><time>2026-05-01T13:37:54.495Z</time></trkpt><trkpt lat="42.1816587" lon="13.6362095"><ele>1072.857142857143</ele><time>2026-05-01T13:38:02.495Z</time></trkpt><trkpt lat="42.1816105" lon="13.6362822"><ele>1073.7142857142858</ele><time>2026-05-01T13:38:10.439Z</time></trkpt><trkpt lat="42.1815696" lon="13.6363525"><ele>1074.5714285714284</ele><time>2026-05-01T13:38:17.373Z</time></trkpt><trkpt lat="42.1815317" lon="13.6364214"><ele>1075.4285714285716</ele><time>2026-05-01T13:38:24.469Z</time></trkpt><trkpt lat="42.1814884" lon="13.6364965"><ele>1076.2857142857142</ele><time>2026-05-01T13:38:32.444Z</time></trkpt><trkpt lat="42.181441" lon="13.6365539"><ele>1077.142857142857</ele><time>2026-05-01T13:38:39.456Z</time></trkpt><trkpt lat="42.1813981" lon="13.6366239"><ele>1078.0</ele><time>2026-05-01T13:38:46.443Z</time></trkpt><trkpt lat="42.1813524" lon="13.6366979"><ele>1078.0</ele><time>2026-05-01T13:38:53.445Z</time></trkpt><trkpt lat="42.1813082" lon="13.6367656"><ele>1078.0</ele><time>2026-05-01T13:39:00.479Z</time></trkpt><trkpt lat="42.1812665" lon="13.6368407"><ele>1078.0</ele><time>2026-05-01T13:39:08.443Z</time></trkpt><trkpt lat="42.1812273" lon="13.6369096"><ele>1078.0</ele><time>2026-05-01T13:39:15.466Z</time></trkpt><trkpt lat="42.1811831" lon="13.6369832"><ele>1078.0</ele><time>2026-05-01T13:39:23.444Z</time></trkpt><trkpt lat="42.181141" lon="13.6370536"><ele>1078.0</ele><time>2026-05-01T13:39:30.452Z</time></trkpt><trkpt lat="42.1810974" lon="13.6371186"><ele>1078.0</ele><time>2026-05-01T13:39:38.442Z</time></trkpt><trkpt lat="42.181046" lon="13.6371741"><ele>1079.857142857143</ele><time>2026-05-01T13:40:41.443Z</time></trkpt><trkpt lat="42.1810026" lon="13.6372473"><ele>1081.7142857142858</ele><time>2026-05-01T13:40:48.444Z</time></trkpt><trkpt lat="42.1809566" lon="13.6373226"><ele>1083.5714285714284</ele><time>2026-05-01T13:40:55.432Z</time></trkpt><trkpt lat="42.1809228" lon="13.6374028"><ele>1085.4285714285716</ele><time>2026-05-01T13:41:02.39Z</time></trkpt><trkpt lat="42.1808871" lon="13.6374875"><ele>1087.2857142857142</ele><time>2026-05-01T13:41:09.392Z</time></trkpt><trkpt lat="42.1808473" lon="13.6375597"><ele>1089.142857142857</ele><time>2026-05-01T13:41:16.391Z</time></trkpt><trkpt lat="42.1808078" lon="13.6376313"><ele>1091.0</ele><time>2026-05-01T13:41:23.442Z</time></trkpt><trkpt lat="42.1807587" lon="13.6377021"><ele>1091.0</ele><time>2026-05-01T13:41:30.448Z</time></trkpt><trkpt lat="42.1807106" lon="13.6377754"><ele>1091.0</ele><time>2026-05-01T13:41:37.488Z</time></trkpt><trkpt lat="42.1806709" lon="13.6378463"><ele>1091.0</ele><time>2026-05-01T13:41:44.448Z</time></trkpt><trkpt lat="42.1806227" lon="13.6379129"><ele>1091.0</ele><time>2026-05-01T13:41:51.47Z</time></trkpt><trkpt lat="42.1805852" lon="13.637984"><ele>1091.0</ele><time>2026-05-01T13:41:58.444Z</time></trkpt><trkpt lat="42.1805487" lon="13.6380656"><ele>1091.0</ele><time>2026-05-01T13:42:05.451Z</time></trkpt><trkpt lat="42.1804997" lon="13.6381278"><ele>1091.0</ele><time>2026-05-01T13:42:12.491Z</time></trkpt><trkpt lat="42.1804576" lon="13.6381994"><ele>1091.7142857142858</ele><time>2026-05-01T13:42:19.418Z</time></trkpt><trkpt lat="42.1804206" lon="13.6382701"><ele>1092.4285714285716</ele><time>2026-05-01T13:42:26.473Z</time></trkpt><trkpt lat="42.1803754" lon="13.6383335"><ele>1093.1428571428573</ele><time>2026-05-01T13:42:33.443Z</time></trkpt><trkpt lat="42.1803317" lon="13.6384096"><ele>1093.857142857143</ele><time>2026-05-01T13:42:41.459Z</time></trkpt><trkpt lat="42.1802889" lon="13.6384831"><ele>1094.5714285714287</ele><time>2026-05-01T13:42:49.44Z</time></trkpt><trkpt lat="42.1802549" lon="13.6385575"><ele>1095.2857142857144</ele><time>2026-05-01T13:42:56.447Z</time></trkpt><trkpt lat="42.1802141" lon="13.6386232"><ele>1096.0</ele><time>2026-05-01T13:43:03.439Z</time></trkpt><trkpt lat="42.1801688" lon="13.6386942"><ele>1098.0000000000002</ele><time>2026-05-01T13:43:11.441Z</time></trkpt><trkpt lat="42.180141" lon="13.6387811"><ele>1100.0</ele><time>2026-05-01T13:43:19.394Z</time></trkpt><trkpt lat="42.1801217" lon="13.6388636"><ele>1102.0</ele><time>2026-05-01T13:43:26.445Z</time></trkpt><trkpt lat="42.1801004" lon="13.6389475"><ele>1104.0</ele><time>2026-05-01T13:43:34.466Z</time></trkpt><trkpt lat="42.180046" lon="13.6390111"><ele>1106.0</ele><time>2026-05-01T13:44:14.441Z</time></trkpt><trkpt lat="42.1800221" lon="13.6390953"><ele>1108.0000000000002</ele><time>2026-05-01T13:44:20.441Z</time></trkpt><trkpt lat="42.1799989" lon="13.6391791"><ele>1110.0</ele><time>2026-05-01T13:44:27.441Z</time></trkpt><trkpt lat="42.1799784" lon="13.6392676"><ele>1110.0000000000002</ele><time>2026-05-01T13:44:34.442Z</time></trkpt><trkpt lat="42.1799543" lon="13.6393551"><ele>1110.0</ele><time>2026-05-01T13:44:42.459Z</time></trkpt><trkpt lat="42.1799183" lon="13.6394314"><ele>1110.0</ele><time>2026-05-01T13:44:49.444Z</time></trkpt><trkpt lat="42.1799024" lon="13.6395179"><ele>1110.0</ele><time>2026-05-01T13:44:56.434Z</time></trkpt><trkpt lat="42.1798683" lon="13.6395906"><ele>1110.0</ele><time>2026-05-01T13:45:03.455Z</time></trkpt><trkpt lat="42.1798104" lon="13.6396447"><ele>1110.0000000000002</ele><time>2026-05-01T13:45:10.441Z</time></trkpt><trkpt lat="42.1797643" lon="13.6397143"><ele>1110.0</ele><time>2026-05-01T13:45:17.437Z</time></trkpt><trkpt lat="42.1797135" lon="13.6397752"><ele>1111.0000000000002</ele><time>2026-05-01T13:45:24.443Z</time></trkpt><trkpt lat="42.1796538" lon="13.6398247"><ele>1112.0</ele><time>2026-05-01T13:45:31.443Z</time></trkpt><trkpt lat="42.1796016" lon="13.6398744"><ele>1113.0</ele><time>2026-05-01T13:45:37.478Z</time></trkpt><trkpt lat="42.1795523" lon="13.6399411"><ele>1114.0</ele><time>2026-05-01T13:45:44.351Z</time></trkpt><trkpt lat="42.1794983" lon="13.6400051"><ele>1115.0</ele><time>2026-05-01T13:45:51.395Z</time></trkpt><trkpt lat="42.1794546" lon="13.6400676"><ele>1116.0000000000002</ele><time>2026-05-01T13:45:57.492Z</time></trkpt><trkpt lat="42.1794074" lon="13.6401405"><ele>1117.0</ele><time>2026-05-01T13:46:04.443Z</time></trkpt><trkpt lat="42.1793485" lon="13.6401971"><ele>1117.0000000000002</ele><time>2026-05-01T13:46:11.474Z</time></trkpt><trkpt lat="42.1792851" lon="13.6402475"><ele>1117.0</ele><time>2026-05-01T13:46:18.444Z</time></trkpt><trkpt lat="42.1792264" lon="13.6403034"><ele>1117.0</ele><time>2026-05-01T13:46:25.454Z</time></trkpt><trkpt lat="42.1791681" lon="13.640354"><ele>1117.0</ele><time>2026-05-01T13:46:32.446Z</time></trkpt><trkpt lat="42.1791099" lon="13.6404067"><ele>1117.0</ele><time>2026-05-01T13:46:39.442Z</time></trkpt><trkpt lat="42.1790564" lon="13.6404596"><ele>1117.0000000000002</ele><time>2026-05-01T13:46:45.469Z</time></trkpt><trkpt lat="42.1789916" lon="13.6404763"><ele>1117.0</ele><time>2026-05-01T13:46:52.447Z</time></trkpt><trkpt lat="42.1789514" lon="13.6405576"><ele>1118.1428571428573</ele><time>2026-05-01T13:47:02.467Z</time></trkpt><trkpt lat="42.1789106" lon="13.6406335"><ele>1119.2857142857142</ele><time>2026-05-01T13:47:09.483Z</time></trkpt><trkpt lat="42.1788613" lon="13.640694"><ele>1120.4285714285716</ele><time>2026-05-01T13:47:16.378Z</time></trkpt><trkpt lat="42.1788048" lon="13.6407611"><ele>1121.5714285714287</ele><time>2026-05-01T13:47:23.442Z</time></trkpt><trkpt lat="42.1787498" lon="13.6408052"><ele>1122.7142857142858</ele><time>2026-05-01T13:47:29.447Z</time></trkpt><trkpt lat="42.1786884" lon="13.6408385"><ele>1123.857142857143</ele><time>2026-05-01T13:47:36.465Z</time></trkpt><trkpt lat="42.1786299" lon="13.6408774"><ele>1125.0</ele><time>2026-05-01T13:47:43.441Z</time></trkpt><trkpt lat="42.1785731" lon="13.6409316"><ele>1125.0</ele><time>2026-05-01T13:47:50.444Z</time></trkpt><trkpt lat="42.1785086" lon="13.6409557"><ele>1125.0</ele><time>2026-05-01T13:47:56.48Z</time></trkpt><trkpt lat="42.1784489" lon="13.640986"><ele>1125.0</ele><time>2026-05-01T13:48:02.447Z</time></trkpt><trkpt lat="42.1783927" lon="13.6410303"><ele>1125.0</ele><time>2026-05-01T13:48:08.498Z</time></trkpt><trkpt lat="42.1783381" lon="13.6410775"><ele>1125.0</ele><time>2026-05-01T13:48:14.483Z</time></trkpt><trkpt lat="42.1782826" lon="13.6411375"><ele>1125.0</ele><time>2026-05-01T13:48:21.491Z</time></trkpt><trkpt lat="42.1782237" lon="13.6411761"><ele>1125.0</ele><time>2026-05-01T13:48:27.458Z</time></trkpt><trkpt lat="42.1781589" lon="13.6412138"><ele>1126.5714285714287</ele><time>2026-05-01T13:48:34.499Z</time></trkpt><trkpt lat="42.178098" lon="13.6412446"><ele>1128.1428571428573</ele><time>2026-05-01T13:48:40.443Z</time></trkpt><trkpt lat="42.1780365" lon="13.6412738"><ele>1129.7142857142858</ele><time>2026-05-01T13:48:46.474Z</time></trkpt><trkpt lat="42.1779748" lon="13.6413021"><ele>1131.2857142857142</ele><time>2026-05-01T13:48:52.444Z</time></trkpt><trkpt lat="42.177913" lon="13.6413272"><ele>1132.8571428571427</ele><time>2026-05-01T13:49:03.465Z</time></trkpt><trkpt lat="42.1778558" lon="13.6413803"><ele>1134.4285714285713</ele><time>2026-05-01T13:49:09.442Z</time></trkpt><trkpt lat="42.1778026" lon="13.6414336"><ele>1136.0</ele><time>2026-05-01T13:49:15.443Z</time></trkpt><trkpt lat="42.1777372" lon="13.6414731"><ele>1136.0</ele><time>2026-05-01T13:49:21.469Z</time></trkpt><trkpt lat="42.1776755" lon="13.6415268"><ele>1136.0</ele><time>2026-05-01T13:49:28.394Z</time></trkpt><trkpt lat="42.1776104" lon="13.6415544"><ele>1136.0</ele><time>2026-05-01T13:49:35.45Z</time></trkpt><trkpt lat="42.1775472" lon="13.6415741"><ele>1136.0</ele><time>2026-05-01T13:49:41.431Z</time></trkpt><trkpt lat="42.1774806" lon="13.6415996"><ele>1136.0</ele><time>2026-05-01T13:49:48.445Z</time></trkpt><trkpt lat="42.1774203" lon="13.6416292"><ele>1136.0</ele><time>2026-05-01T13:49:54.46Z</time></trkpt><trkpt lat="42.1774161" lon="13.6417209"><ele>1136.0</ele><time>2026-05-01T13:50:04.441Z</time></trkpt><trkpt lat="42.1774659" lon="13.6417734"><ele>1136.0</ele><time>2026-05-01T13:50:07.492Z</time></trkpt><trkpt lat="42.1774022" lon="13.6418028"><ele>1136.0</ele><time>2026-05-01T13:50:11.457Z</time></trkpt><trkpt lat="42.1773376" lon="13.641822"><ele>1136.0</ele><time>2026-05-01T13:50:16.486Z</time></trkpt><trkpt lat="42.1772693" lon="13.6418231"><ele>1136.0</ele><time>2026-05-01T13:50:21.448Z</time></trkpt><trkpt lat="42.1771985" lon="13.6418153"><ele>1136.0</ele><time>2026-05-01T13:50:26.444Z</time></trkpt><trkpt lat="42.1771327" lon="13.6418143"><ele>1136.0</ele><time>2026-05-01T13:50:31.472Z</time></trkpt><trkpt lat="42.1770604" lon="13.6418237"><ele>1136.0</ele><time>2026-05-01T13:50:37.446Z</time></trkpt><trkpt lat="42.1769965" lon="13.6418188"><ele>1136.0</ele><time>2026-05-01T13:50:42.411Z</time></trkpt><trkpt lat="42.176927" lon="13.6418521"><ele>1136.0</ele><time>2026-05-01T13:50:48.47Z</time></trkpt><trkpt lat="42.1768711" lon="13.6419092"><ele>1136.0</ele><time>2026-05-01T13:50:54.441Z</time></trkpt><trkpt lat="42.1768225" lon="13.6419661"><ele>1136.0</ele><time>2026-05-01T13:51:00.442Z</time></trkpt><trkpt lat="42.1767819" lon="13.6420459"><ele>1136.0</ele><time>2026-05-01T13:51:07.48Z</time></trkpt><trkpt lat="42.1767337" lon="13.6421112"><ele>1136.0</ele><time>2026-05-01T13:51:17.446Z</time></trkpt><trkpt lat="42.1766883" lon="13.6421826"><ele>1136.0</ele><time>2026-05-01T13:51:25.483Z</time></trkpt><trkpt lat="42.1766438" lon="13.6422585"><ele>1137.142857142857</ele><time>2026-05-01T13:51:33.375Z</time></trkpt><trkpt lat="42.1766112" lon="13.6423412"><ele>1138.2857142857142</ele><time>2026-05-01T13:51:41.43Z</time></trkpt><trkpt lat="42.1765535" lon="13.6423802"><ele>1139.4285714285713</ele><time>2026-05-01T13:51:48.446Z</time></trkpt><trkpt lat="42.1765094" lon="13.6424412"><ele>1140.5714285714284</ele><time>2026-05-01T13:51:54.45Z</time></trkpt><trkpt lat="42.1764558" lon="13.6425005"><ele>1141.7142857142858</ele><time>2026-05-01T13:52:01.491Z</time></trkpt><trkpt lat="42.1764042" lon="13.6425585"><ele>1142.8571428571427</ele><time>2026-05-01T13:52:08.456Z</time></trkpt><trkpt lat="42.1763485" lon="13.6426178"><ele>1144.0</ele><time>2026-05-01T13:52:15.471Z</time></trkpt><trkpt lat="42.1763161" lon="13.6427048"><ele>1144.142857142857</ele><time>2026-05-01T13:52:22.443Z</time></trkpt><trkpt lat="42.1763176" lon="13.6427964"><ele>1144.2857142857142</ele><time>2026-05-01T13:52:29.451Z</time></trkpt><trkpt lat="42.1763357" lon="13.6428832"><ele>1144.4285714285716</ele><time>2026-05-01T13:53:19.448Z</time></trkpt><trkpt lat="42.1762966" lon="13.6429527"><ele>1144.5714285714284</ele><time>2026-05-01T13:53:23.464Z</time></trkpt><trkpt lat="42.1762442" lon="13.6430097"><ele>1144.7142857142858</ele><time>2026-05-01T13:53:29.441Z</time></trkpt><trkpt lat="42.1761982" lon="13.6430799"><ele>1144.857142857143</ele><time>2026-05-01T13:53:36.444Z</time></trkpt><trkpt lat="42.176164" lon="13.6431584"><ele>1145.0</ele><time>2026-05-01T13:53:42.473Z</time></trkpt><trkpt lat="42.1761319" lon="13.6432379"><ele>1145.2857142857144</ele><time>2026-05-01T13:53:48.442Z</time></trkpt><trkpt lat="42.1760899" lon="13.6433185"><ele>1145.5714285714287</ele><time>2026-05-01T13:53:54.509Z</time></trkpt><trkpt lat="42.1760523" lon="13.6433947"><ele>1145.857142857143</ele><time>2026-05-01T13:54:00.477Z</time></trkpt><trkpt lat="42.1760147" lon="13.6434662"><ele>1146.1428571428573</ele><time>2026-05-01T13:54:06.442Z</time></trkpt><trkpt lat="42.1759657" lon="13.6435209"><ele>1146.4285714285716</ele><time>2026-05-01T13:54:19.441Z</time></trkpt><trkpt lat="42.1759219" lon="13.6435952"><ele>1146.7142857142858</ele><time>2026-05-01T13:54:25.445Z</time></trkpt><trkpt lat="42.1758895" lon="13.6436809"><ele>1147.0</ele><time>2026-05-01T13:54:31.456Z</time></trkpt><trkpt lat="42.1758655" lon="13.6437637"><ele>1147.5714285714284</ele><time>2026-05-01T13:54:38.443Z</time></trkpt><trkpt lat="42.1758481" lon="13.6438555"><ele>1148.142857142857</ele><time>2026-05-01T13:54:45.442Z</time></trkpt><trkpt lat="42.1758089" lon="13.6439384"><ele>1148.7142857142858</ele><time>2026-05-01T13:54:52.476Z</time></trkpt><trkpt lat="42.1757488" lon="13.6439815"><ele>1149.2857142857142</ele><time>2026-05-01T13:54:58.396Z</time></trkpt><trkpt lat="42.1757067" lon="13.6440477"><ele>1149.857142857143</ele><time>2026-05-01T13:55:04.448Z</time></trkpt><trkpt lat="42.1756585" lon="13.6441132"><ele>1150.4285714285713</ele><time>2026-05-01T13:55:10.479Z</time></trkpt><trkpt lat="42.1756193" lon="13.6441952"><ele>1151.0</ele><time>2026-05-01T13:55:16.509Z</time></trkpt><trkpt lat="42.1755913" lon="13.6442808"><ele>1151.142857142857</ele><time>2026-05-01T13:55:22.495Z</time></trkpt><trkpt lat="42.1755675" lon="13.6443643"><ele>1151.2857142857142</ele><time>2026-05-01T13:55:28.44Z</time></trkpt><trkpt lat="42.1755424" lon="13.6444538"><ele>1151.4285714285716</ele><time>2026-05-01T13:55:35.443Z</time></trkpt><trkpt lat="42.1755093" lon="13.6445314"><ele>1151.5714285714284</ele><time>2026-05-01T13:55:41.493Z</time></trkpt><trkpt lat="42.1754764" lon="13.6446421"><ele>1151.7142857142858</ele><time>2026-05-01T13:56:10.445Z</time></trkpt><trkpt lat="42.1754438" lon="13.6447243"><ele>1151.857142857143</ele><time>2026-05-01T13:56:15.438Z</time></trkpt><trkpt lat="42.1754125" lon="13.6447985"><ele>1152.0</ele><time>2026-05-01T13:56:20.481Z</time></trkpt><trkpt lat="42.1753741" lon="13.6448713"><ele>1152.0000000000002</ele><time>2026-05-01T13:56:26.445Z</time></trkpt><trkpt lat="42.1753287" lon="13.6449385"><ele>1152.0</ele><time>2026-05-01T13:56:32.448Z</time></trkpt><trkpt lat="42.1752615" lon="13.6449313"><ele>1152.0</ele><time>2026-05-01T13:56:51.457Z</time></trkpt><trkpt lat="42.1751949" lon="13.6449473"><ele>1152.0</ele><time>2026-05-01T13:56:58.497Z</time></trkpt><trkpt lat="42.1751582" lon="13.6448749"><ele>1152.0</ele><time>2026-05-01T13:57:03.443Z</time></trkpt><trkpt lat="42.1751301" lon="13.6447911"><ele>1152.0000000000002</ele><time>2026-05-01T13:57:09.46Z</time></trkpt><trkpt lat="42.1750932" lon="13.6447175"><ele>1152.0</ele><time>2026-05-01T13:57:15.494Z</time></trkpt><trkpt lat="42.1750611" lon="13.6446331"><ele>1152.0000000000002</ele><time>2026-05-01T13:57:22.442Z</time></trkpt><trkpt lat="42.1750314" lon="13.6445541"><ele>1152.0</ele><time>2026-05-01T13:57:29.449Z</time></trkpt><trkpt lat="42.1750088" lon="13.6444651"><ele>1152.0</ele><time>2026-05-01T13:57:39.45Z</time></trkpt><trkpt lat="42.1749698" lon="13.6443832"><ele>1152.0</ele><time>2026-05-01T13:57:46.471Z</time></trkpt><trkpt lat="42.1749534" lon="13.6443005"><ele>1152.0</ele><time>2026-05-01T13:57:53.511Z</time></trkpt><trkpt lat="42.1749447" lon="13.6442129"><ele>1152.0000000000002</ele><time>2026-05-01T13:58:01.452Z</time></trkpt><trkpt lat="42.1749062" lon="13.6441349"><ele>1152.0</ele><time>2026-05-01T13:58:10.443Z</time></trkpt><trkpt lat="42.1748792" lon="13.6440546"><ele>1157.5714285714287</ele><time>2026-05-01T13:59:13.468Z</time></trkpt><trkpt lat="42.1748451" lon="13.6439776"><ele>1163.142857142857</ele><time>2026-05-01T13:59:21.443Z</time></trkpt><trkpt lat="42.1748172" lon="13.6438967"><ele>1168.7142857142858</ele><time>2026-05-01T13:59:30.465Z</time></trkpt><trkpt lat="42.1747934" lon="13.6438066"><ele>1174.2857142857142</ele><time>2026-05-01T13:59:38.447Z</time></trkpt><trkpt lat="42.1747747" lon="13.6437129"><ele>1179.857142857143</ele><time>2026-05-01T13:59:47.461Z</time></trkpt><trkpt lat="42.1747504" lon="13.6436291"><ele>1185.4285714285716</ele><time>2026-05-01T13:59:55.443Z</time></trkpt><trkpt lat="42.1747127" lon="13.6435527"><ele>1191.0</ele><time>2026-05-01T14:00:03.452Z</time></trkpt><trkpt lat="42.1747019" lon="13.643468"><ele>1191.5714285714287</ele><time>2026-05-01T14:00:36.442Z</time></trkpt><trkpt lat="42.1746818" lon="13.6433853"><ele>1192.142857142857</ele><time>2026-05-01T14:00:42.469Z</time></trkpt><trkpt lat="42.1746828" lon="13.6432982"><ele>1192.7142857142858</ele><time>2026-05-01T14:00:49.449Z</time></trkpt><trkpt lat="42.1746906" lon="13.6432066"><ele>1193.2857142857142</ele><time>2026-05-01T14:00:58.466Z</time></trkpt><trkpt lat="42.1747046" lon="13.6431201"><ele>1193.857142857143</ele><time>2026-05-01T14:01:06.456Z</time></trkpt><trkpt lat="42.1747114" lon="13.6430305"><ele>1194.4285714285713</ele><time>2026-05-01T14:01:14.458Z</time></trkpt><trkpt lat="42.1747208" lon="13.6429378"><ele>1195.0</ele><time>2026-05-01T14:01:22.449Z</time></trkpt><trkpt lat="42.1747144" lon="13.6428454"><ele>1194.5714285714284</ele><time>2026-05-01T14:02:56.441Z</time></trkpt><trkpt lat="42.1746894" lon="13.6427554"><ele>1194.1428571428573</ele><time>2026-05-01T14:03:01.443Z</time></trkpt><trkpt lat="42.1746762" lon="13.6426648"><ele>1193.7142857142858</ele><time>2026-05-01T14:03:07.461Z</time></trkpt><trkpt lat="42.1746534" lon="13.6425681"><ele>1193.2857142857142</ele><time>2026-05-01T14:03:14.488Z</time></trkpt><trkpt lat="42.1746513" lon="13.6424797"><ele>1192.8571428571427</ele><time>2026-05-01T14:03:21.445Z</time></trkpt><trkpt lat="42.1746201" lon="13.6424028"><ele>1192.4285714285713</ele><time>2026-05-01T14:03:27.477Z</time></trkpt><trkpt lat="42.1745917" lon="13.6423237"><ele>1192.0</ele><time>2026-05-01T14:03:33.44Z</time></trkpt><trkpt lat="42.1745696" lon="13.6422399"><ele>1192.0</ele><time>2026-05-01T14:03:39.446Z</time></trkpt><trkpt lat="42.1745315" lon="13.6421678"><ele>1192.0</ele><time>2026-05-01T14:03:45.48Z</time></trkpt><trkpt lat="42.1744868" lon="13.6420908"><ele>1192.0</ele><time>2026-05-01T14:03:52.354Z</time></trkpt><trkpt lat="42.1744498" lon="13.6420088"><ele>1192.0</ele><time>2026-05-01T14:03:59.461Z</time></trkpt><trkpt lat="42.1744254" lon="13.6419291"><ele>1192.0</ele><time>2026-05-01T14:04:05.496Z</time></trkpt><trkpt lat="42.1743801" lon="13.6418664"><ele>1192.0</ele><time>2026-05-01T14:04:11.449Z</time></trkpt><trkpt lat="42.1743184" lon="13.6418326"><ele>1192.0</ele><time>2026-05-01T14:04:17.464Z</time></trkpt><trkpt lat="42.1742502" lon="13.641819"><ele>1191.0</ele><time>2026-05-01T14:04:23.374Z</time></trkpt><trkpt lat="42.1741831" lon="13.6418046"><ele>1190.0</ele><time>2026-05-01T14:04:29.445Z</time></trkpt><trkpt lat="42.1741129" lon="13.6418081"><ele>1189.0</ele><time>2026-05-01T14:04:35.467Z</time></trkpt><trkpt lat="42.1740417" lon="13.6418176"><ele>1188.0</ele><time>2026-05-01T14:04:41.398Z</time></trkpt><trkpt lat="42.1739689" lon="13.6418271"><ele>1187.0</ele><time>2026-05-01T14:04:47.447Z</time></trkpt><trkpt lat="42.1739048" lon="13.6418505"><ele>1186.0</ele><time>2026-05-01T14:04:53.471Z</time></trkpt><trkpt lat="42.1738348" lon="13.6418642"><ele>1185.0</ele><time>2026-05-01T14:05:01.447Z</time></trkpt><trkpt lat="42.1737745" lon="13.6418365"><ele>1184.5714285714284</ele><time>2026-05-01T14:05:09.463Z</time></trkpt><trkpt lat="42.1737275" lon="13.6417625"><ele>1184.142857142857</ele><time>2026-05-01T14:13:41.445Z</time></trkpt><trkpt lat="42.1736631" lon="13.6417155"><ele>1183.7142857142858</ele><time>2026-05-01T14:13:47.447Z</time></trkpt><trkpt lat="42.1736367" lon="13.6416249"><ele>1183.2857142857142</ele><time>2026-05-01T14:13:53.453Z</time></trkpt><trkpt lat="42.1736055" lon="13.641545"><ele>1182.857142857143</ele><time>2026-05-01T14:13:59.487Z</time></trkpt><trkpt lat="42.1735821" lon="13.6414561"><ele>1182.4285714285713</ele><time>2026-05-01T14:14:05.45Z</time></trkpt><trkpt lat="42.1735622" lon="13.6413687"><ele>1182.0</ele><time>2026-05-01T14:14:11.462Z</time></trkpt><trkpt lat="42.1735557" lon="13.6412785"><ele>1182.0</ele><time>2026-05-01T14:14:17.49Z</time></trkpt><trkpt lat="42.1735419" lon="13.6411918"><ele>1182.0</ele><time>2026-05-01T14:14:24.443Z</time></trkpt><trkpt lat="42.1735026" lon="13.6411237"><ele>1182.0</ele><time>2026-05-01T14:14:30.479Z</time></trkpt><trkpt lat="42.1734769" lon="13.6410433"><ele>1182.0</ele><time>2026-05-01T14:14:36.499Z</time></trkpt><trkpt lat="42.1734174" lon="13.6409901"><ele>1182.0</ele><time>2026-05-01T14:14:42.447Z</time></trkpt><trkpt lat="42.1733508" lon="13.640991"><ele>1182.0</ele><time>2026-05-01T14:14:48.467Z</time></trkpt><trkpt lat="42.1732924" lon="13.6410309"><ele>1182.0</ele><time>2026-05-01T14:14:53.399Z</time></trkpt><trkpt lat="42.1732218" lon="13.6410657"><ele>1182.0</ele><time>2026-05-01T14:14:59.484Z</time></trkpt><trkpt lat="42.1731581" lon="13.6410924"><ele>1182.0</ele><time>2026-05-01T14:15:05.464Z</time></trkpt><trkpt lat="42.173089" lon="13.6410682"><ele>1182.0</ele><time>2026-05-01T14:15:12.458Z</time></trkpt><trkpt lat="42.1730369" lon="13.6409759"><ele>1182.0</ele><time>2026-05-01T14:15:27.425Z</time></trkpt><trkpt lat="42.1730083" lon="13.6408863"><ele>1182.0</ele><time>2026-05-01T14:15:31.45Z</time></trkpt><trkpt lat="42.1730133" lon="13.6408009"><ele>1182.0</ele><time>2026-05-01T14:15:38.452Z</time></trkpt><trkpt lat="42.1730098" lon="13.640712"><ele>1182.0</ele><time>2026-05-01T14:15:55.445Z</time></trkpt><trkpt lat="42.1730052" lon="13.6406267"><ele>1182.0</ele><time>2026-05-01T14:16:02.444Z</time></trkpt><trkpt lat="42.1730091" lon="13.640537"><ele>1182.0</ele><time>2026-05-01T14:16:09.445Z</time></trkpt><trkpt lat="42.1729872" lon="13.640455"><ele>1182.0</ele><time>2026-05-01T14:16:16.443Z</time></trkpt><trkpt lat="42.172975" lon="13.6403661"><ele>1182.0</ele><time>2026-05-01T14:16:23.444Z</time></trkpt><trkpt lat="42.172952" lon="13.6402775"><ele>1182.0</ele><time>2026-05-01T14:16:31.445Z</time></trkpt><trkpt lat="42.1729918" lon="13.6402019"><ele>1182.0</ele><time>2026-05-01T14:16:38.444Z</time></trkpt><trkpt lat="42.1729796" lon="13.6401042"><ele>1182.0</ele><time>2026-05-01T14:16:45.378Z</time></trkpt><trkpt lat="42.1729861" lon="13.6400134"><ele>1182.142857142857</ele><time>2026-05-01T14:16:51.402Z</time></trkpt><trkpt lat="42.1729924" lon="13.6399232"><ele>1182.2857142857142</ele><time>2026-05-01T14:16:58.403Z</time></trkpt><trkpt lat="42.1730418" lon="13.6398646"><ele>1182.4285714285716</ele><time>2026-05-01T14:17:06.454Z</time></trkpt><trkpt lat="42.1730846" lon="13.6397978"><ele>1182.5714285714284</ele><time>2026-05-01T14:17:14.446Z</time></trkpt><trkpt lat="42.1731249" lon="13.6397308"><ele>1182.7142857142858</ele><time>2026-05-01T14:17:21.449Z</time></trkpt><trkpt lat="42.1731583" lon="13.6396573"><ele>1182.857142857143</ele><time>2026-05-01T14:17:28.481Z</time></trkpt><trkpt lat="42.1731869" lon="13.6395728"><ele>1183.0</ele><time>2026-05-01T14:17:35.464Z</time></trkpt><trkpt lat="42.1732175" lon="13.6394967"><ele>1182.857142857143</ele><time>2026-05-01T14:17:42.459Z</time></trkpt><trkpt lat="42.1732688" lon="13.6394425"><ele>1182.7142857142858</ele><time>2026-05-01T14:17:51.449Z</time></trkpt><trkpt lat="42.1733206" lon="13.6393739"><ele>1182.5714285714284</ele><time>2026-05-01T14:17:58.386Z</time></trkpt><trkpt lat="42.1733822" lon="13.6393349"><ele>1182.4285714285716</ele><time>2026-05-01T14:18:05.491Z</time></trkpt><trkpt lat="42.1734126" lon="13.6392574"><ele>1182.2857142857142</ele><time>2026-05-01T14:18:13.47Z</time></trkpt><trkpt lat="42.1734365" lon="13.6391691"><ele>1182.142857142857</ele><time>2026-05-01T14:18:20.462Z</time></trkpt><trkpt lat="42.1734834" lon="13.6391008"><ele>1182.0</ele><time>2026-05-01T14:18:27.361Z</time></trkpt><trkpt lat="42.1735448" lon="13.6390775"><ele>1182.0</ele><time>2026-05-01T14:18:34.456Z</time></trkpt><trkpt lat="42.173613" lon="13.6390722"><ele>1182.0</ele><time>2026-05-01T14:18:42.448Z</time></trkpt><trkpt lat="42.1736773" lon="13.6390559"><ele>1182.0</ele><time>2026-05-01T14:18:48.503Z</time></trkpt><trkpt lat="42.1737197" lon="13.6389851"><ele>1182.0</ele><time>2026-05-01T14:18:55.513Z</time></trkpt><trkpt lat="42.1737879" lon="13.6389717"><ele>1182.0</ele><time>2026-05-01T14:19:02.486Z</time></trkpt><trkpt lat="42.1738543" lon="13.6389363"><ele>1182.0</ele><time>2026-05-01T14:19:10.461Z</time></trkpt><trkpt lat="42.1739081" lon="13.6388814"><ele>1182.0</ele><time>2026-05-01T14:19:16.497Z</time></trkpt><trkpt lat="42.1739506" lon="13.6388028"><ele>1182.0</ele><time>2026-05-01T14:19:23.525Z</time></trkpt><trkpt lat="42.1739358" lon="13.6387126"><ele>1182.0</ele><time>2026-05-01T14:19:29.47Z</time></trkpt><trkpt lat="42.1739397" lon="13.6386193"><ele>1182.0</ele><time>2026-05-01T14:19:35.448Z</time></trkpt><trkpt lat="42.1739507" lon="13.6385244"><ele>1182.0</ele><time>2026-05-01T14:19:42.418Z</time></trkpt><trkpt lat="42.1739684" lon="13.638442"><ele>1182.0</ele><time>2026-05-01T14:19:48.478Z</time></trkpt><trkpt lat="42.1739598" lon="13.6383442"><ele>1182.0</ele><time>2026-05-01T14:19:55.45Z</time></trkpt><trkpt lat="42.1739376" lon="13.6382587"><ele>1182.0</ele><time>2026-05-01T14:20:02.459Z</time></trkpt><trkpt lat="42.1738995" lon="13.638188"><ele>1183.142857142857</ele><time>2026-05-01T14:20:09.498Z</time></trkpt><trkpt lat="42.1738534" lon="13.6381161"><ele>1184.2857142857142</ele><time>2026-05-01T14:20:16.451Z</time></trkpt><trkpt lat="42.1737954" lon="13.6380772"><ele>1185.4285714285716</ele><time>2026-05-01T14:20:23.478Z</time></trkpt><trkpt lat="42.1737426" lon="13.6380285"><ele>1186.5714285714284</ele><time>2026-05-01T14:20:30.448Z</time></trkpt><trkpt lat="42.1737075" lon="13.6379513"><ele>1187.7142857142858</ele><time>2026-05-01T14:20:37.425Z</time></trkpt><trkpt lat="42.1736714" lon="13.6378765"><ele>1188.857142857143</ele><time>2026-05-01T14:20:43.466Z</time></trkpt><trkpt lat="42.1736348" lon="13.6377936"><ele>1190.0</ele><time>2026-05-01T14:20:51.452Z</time></trkpt><trkpt lat="42.1736228" lon="13.6377061"><ele>1190.4285714285713</ele><time>2026-05-01T14:20:58.477Z</time></trkpt><trkpt lat="42.1736246" lon="13.6376115"><ele>1190.857142857143</ele><time>2026-05-01T14:21:06.449Z</time></trkpt><trkpt lat="42.1736438" lon="13.6375292"><ele>1191.2857142857142</ele><time>2026-05-01T14:21:15.474Z</time></trkpt><trkpt lat="42.1736574" lon="13.6374402"><ele>1191.7142857142858</ele><time>2026-05-01T14:21:23.449Z</time></trkpt><trkpt lat="42.1736534" lon="13.6373527"><ele>1192.142857142857</ele><time>2026-05-01T14:21:30.46Z</time></trkpt><trkpt lat="42.1736433" lon="13.6372665"><ele>1192.5714285714284</ele><time>2026-05-01T14:21:36.494Z</time></trkpt><trkpt lat="42.1736681" lon="13.6371765"><ele>1193.0</ele><time>2026-05-01T14:21:43.48Z</time></trkpt><trkpt lat="42.1736619" lon="13.6370821"><ele>1192.9999999999998</ele><time>2026-05-01T14:21:50.473Z</time></trkpt><trkpt lat="42.1735938" lon="13.6370534"><ele>1193.0</ele><time>2026-05-01T14:22:01.447Z</time></trkpt><trkpt lat="42.1735494" lon="13.6369909"><ele>1193.0</ele><time>2026-05-01T14:22:09.482Z</time></trkpt><trkpt lat="42.173488" lon="13.6369599"><ele>1193.0</ele><time>2026-05-01T14:22:29.361Z</time></trkpt><trkpt lat="42.1734198" lon="13.6369369"><ele>1193.0</ele><time>2026-05-01T14:22:36.446Z</time></trkpt><trkpt lat="42.1733561" lon="13.6369366"><ele>1192.9999999999998</ele><time>2026-05-01T14:22:43.476Z</time></trkpt><trkpt lat="42.173342" lon="13.636845"><ele>1193.0</ele><time>2026-05-01T14:22:51.45Z</time></trkpt><trkpt lat="42.1733381" lon="13.6367518"><ele>1191.5714285714284</ele><time>2026-05-01T14:23:00.472Z</time></trkpt><trkpt lat="42.1732847" lon="13.636695"><ele>1190.142857142857</ele><time>2026-05-01T14:23:07.45Z</time></trkpt><trkpt lat="42.173228" lon="13.6366529"><ele>1188.7142857142858</ele><time>2026-05-01T14:23:15.457Z</time></trkpt><trkpt lat="42.1731727" lon="13.6366105"><ele>1187.2857142857142</ele><time>2026-05-01T14:23:22.498Z</time></trkpt><trkpt lat="42.1731008" lon="13.6365875"><ele>1185.857142857143</ele><time>2026-05-01T14:23:29.45Z</time></trkpt><trkpt lat="42.1730366" lon="13.6365814"><ele>1184.4285714285713</ele><time>2026-05-01T14:23:35.471Z</time></trkpt><trkpt lat="42.1729749" lon="13.6366006"><ele>1183.0</ele><time>2026-05-01T14:23:41.45Z</time></trkpt><trkpt lat="42.1729044" lon="13.6365849"><ele>1182.857142857143</ele><time>2026-05-01T14:23:48.523Z</time></trkpt><trkpt lat="42.1728394" lon="13.6366073"><ele>1182.7142857142858</ele><time>2026-05-01T14:23:54.364Z</time></trkpt><trkpt lat="42.172775" lon="13.6366303"><ele>1182.5714285714284</ele><time>2026-05-01T14:24:00.447Z</time></trkpt><trkpt lat="42.172705" lon="13.6366518"><ele>1182.4285714285716</ele><time>2026-05-01T14:24:07.454Z</time></trkpt><trkpt lat="42.1726392" lon="13.6366888"><ele>1182.2857142857142</ele><time>2026-05-01T14:24:15.449Z</time></trkpt><trkpt lat="42.1725695" lon="13.6367083"><ele>1182.142857142857</ele><time>2026-05-01T14:24:22.364Z</time></trkpt><trkpt lat="42.1725004" lon="13.6367139"><ele>1182.0</ele><time>2026-05-01T14:24:29.479Z</time></trkpt><trkpt lat="42.1724348" lon="13.6367127"><ele>1182.0</ele><time>2026-05-01T14:24:36.464Z</time></trkpt><trkpt lat="42.1723708" lon="13.636731"><ele>1182.0</ele><time>2026-05-01T14:25:01.366Z</time></trkpt><trkpt lat="42.1723038" lon="13.636746"><ele>1182.0</ele><time>2026-05-01T14:25:07.425Z</time></trkpt><trkpt lat="42.1722352" lon="13.6367893"><ele>1182.0</ele><time>2026-05-01T14:25:24.449Z</time></trkpt><trkpt lat="42.172168" lon="13.6367884"><ele>1182.0</ele><time>2026-05-01T14:25:29.424Z</time></trkpt><trkpt lat="42.1721002" lon="13.6368083"><ele>1182.0</ele><time>2026-05-01T14:25:36.445Z</time></trkpt><trkpt lat="42.1720364" lon="13.6368083"><ele>1182.0</ele><time>2026-05-01T14:25:43.451Z</time></trkpt><trkpt lat="42.1719722" lon="13.6367948"><ele>1182.7142857142858</ele><time>2026-05-01T14:25:50.449Z</time></trkpt><trkpt lat="42.17191" lon="13.6368275"><ele>1183.4285714285716</ele><time>2026-05-01T14:25:56.473Z</time></trkpt><trkpt lat="42.1718414" lon="13.6368403"><ele>1184.1428571428573</ele><time>2026-05-01T14:26:04.448Z</time></trkpt><trkpt lat="42.1717697" lon="13.6368336"><ele>1184.857142857143</ele><time>2026-05-01T14:26:13.47Z</time></trkpt><trkpt lat="42.1717084" lon="13.6368001"><ele>1185.5714285714287</ele><time>2026-05-01T14:26:20.446Z</time></trkpt><trkpt lat="42.1716673" lon="13.6367278"><ele>1186.2857142857144</ele><time>2026-05-01T14:26:28.455Z</time></trkpt><trkpt lat="42.1716332" lon="13.6366499"><ele>1187.0</ele><time>2026-05-01T14:26:36.502Z</time></trkpt><trkpt lat="42.1715932" lon="13.63657"><ele>1187.0000000000002</ele><time>2026-05-01T14:26:51.486Z</time></trkpt><trkpt lat="42.171612" lon="13.6364862"><ele>1187.0</ele><time>2026-05-01T14:26:56.502Z</time></trkpt><trkpt lat="42.1716382" lon="13.6364049"><ele>1187.0</ele><time>2026-05-01T14:27:01.445Z</time></trkpt><trkpt lat="42.1716083" lon="13.6363057"><ele>1187.0</ele><time>2026-05-01T14:27:12.521Z</time></trkpt><trkpt lat="42.1716184" lon="13.6362105"><ele>1187.0</ele><time>2026-05-01T14:27:17.5Z</time></trkpt><trkpt lat="42.1716402" lon="13.636114"><ele>1187.0000000000002</ele><time>2026-05-01T14:27:23.468Z</time></trkpt><trkpt lat="42.1716553" lon="13.6360252"><ele>1187.0</ele><time>2026-05-01T14:27:29.432Z</time></trkpt><trkpt lat="42.1716598" lon="13.6359326"><ele>1187.4285714285716</ele><time>2026-05-01T14:27:35.535Z</time></trkpt><trkpt lat="42.1716635" lon="13.6358454"><ele>1187.857142857143</ele><time>2026-05-01T14:27:41.47Z</time></trkpt><trkpt lat="42.1716783" lon="13.6357554"><ele>1188.2857142857142</ele><time>2026-05-01T14:27:47.449Z</time></trkpt><trkpt lat="42.1716927" lon="13.6356645"><ele>1188.7142857142858</ele><time>2026-05-01T14:27:53.448Z</time></trkpt><trkpt lat="42.1716951" lon="13.6355777"><ele>1189.142857142857</ele><time>2026-05-01T14:27:59.472Z</time></trkpt><trkpt lat="42.1717023" lon="13.6354822"><ele>1189.5714285714287</ele><time>2026-05-01T14:28:06.512Z</time></trkpt><trkpt lat="42.1717103" lon="13.6353839"><ele>1190.0</ele><time>2026-05-01T14:28:13.453Z</time></trkpt><trkpt lat="42.1717124" lon="13.6352914"><ele>1190.0</ele><time>2026-05-01T14:28:20.426Z</time></trkpt><trkpt lat="42.1717151" lon="13.6352005"><ele>1190.0</ele><time>2026-05-01T14:28:27.451Z</time></trkpt><trkpt lat="42.171719" lon="13.6351138"><ele>1190.0</ele><time>2026-05-01T14:28:34.471Z</time></trkpt><trkpt lat="42.1716974" lon="13.6350233"><ele>1190.0</ele><time>2026-05-01T14:28:42.453Z</time></trkpt><trkpt lat="42.1716662" lon="13.6349362"><ele>1190.0</ele><time>2026-05-01T14:28:50.533Z</time></trkpt><trkpt lat="42.1716504" lon="13.634845"><ele>1190.0</ele><time>2026-05-01T14:28:57.502Z</time></trkpt><trkpt lat="42.1716318" lon="13.634758"><ele>1190.0</ele><time>2026-05-01T14:29:05.45Z</time></trkpt><trkpt lat="42.1716398" lon="13.6346605"><ele>1190.0</ele><time>2026-05-01T14:30:19.467Z</time></trkpt><trkpt lat="42.1716786" lon="13.6345805"><ele>1190.0</ele><time>2026-05-01T14:30:25.425Z</time></trkpt><trkpt lat="42.1717123" lon="13.6345023"><ele>1190.0</ele><time>2026-05-01T14:30:31.446Z</time></trkpt><trkpt lat="42.1717311" lon="13.6344193"><ele>1190.0</ele><time>2026-05-01T14:30:37.496Z</time></trkpt><trkpt lat="42.1717362" lon="13.6343276"><ele>1190.0</ele><time>2026-05-01T14:30:46.447Z</time></trkpt><trkpt lat="42.1717292" lon="13.6342319"><ele>1190.0</ele><time>2026-05-01T14:30:59.447Z</time></trkpt><trkpt lat="42.1717486" lon="13.6341433"><ele>1190.0</ele><time>2026-05-01T14:31:08.451Z</time></trkpt><trkpt lat="42.1717685" lon="13.6340486"><ele>1191.142857142857</ele><time>2026-05-01T14:31:28.457Z</time></trkpt><trkpt lat="42.1717812" lon="13.633965"><ele>1192.2857142857142</ele><time>2026-05-01T14:31:34.493Z</time></trkpt><trkpt lat="42.1718023" lon="13.6338792"><ele>1193.4285714285716</ele><time>2026-05-01T14:31:45.368Z</time></trkpt><trkpt lat="42.1718417" lon="13.6338093"><ele>1194.5714285714284</ele><time>2026-05-01T14:31:54.449Z</time></trkpt><trkpt lat="42.1718478" lon="13.6337198"><ele>1195.7142857142858</ele><time>2026-05-01T14:32:03.456Z</time></trkpt><trkpt lat="42.1718468" lon="13.6336326"><ele>1196.857142857143</ele><time>2026-05-01T14:32:13.451Z</time></trkpt><trkpt lat="42.1718437" lon="13.6335392"><ele>1198.0</ele><time>2026-05-01T14:32:22.463Z</time></trkpt><trkpt lat="42.1718352" lon="13.6334505"><ele>1198.857142857143</ele><time>2026-05-01T14:32:33.449Z</time></trkpt><trkpt lat="42.1718373" lon="13.6333568"><ele>1199.7142857142858</ele><time>2026-05-01T14:32:44.489Z</time></trkpt><trkpt lat="42.1718268" lon="13.6332666"><ele>1200.5714285714284</ele><time>2026-05-01T14:32:55.452Z</time></trkpt><trkpt lat="42.1717924" lon="13.6331945"><ele>1201.4285714285716</ele><time>2026-05-01T14:33:06.447Z</time></trkpt><trkpt lat="42.1717695" lon="13.6331052"><ele>1202.2857142857142</ele><time>2026-05-01T14:33:52.407Z</time></trkpt><trkpt lat="42.1717613" lon="13.6330199"><ele>1203.142857142857</ele><time>2026-05-01T14:34:02.449Z</time></trkpt><trkpt lat="42.1716951" lon="13.6329965"><ele>1204.0</ele><time>2026-05-01T14:34:12.486Z</time></trkpt><trkpt lat="42.1716345" lon="13.6330202"><ele>1204.0</ele><time>2026-05-01T14:34:19.453Z</time></trkpt><trkpt lat="42.1715715" lon="13.6330321"><ele>1204.0</ele><time>2026-05-01T14:34:27.47Z</time></trkpt><trkpt lat="42.1715077" lon="13.633046"><ele>1204.0</ele><time>2026-05-01T14:40:10.451Z</time></trkpt><trkpt lat="42.1714445" lon="13.6330605"><ele>1204.0</ele><time>2026-05-01T14:40:17.449Z</time></trkpt><trkpt lat="42.1713841" lon="13.6330125"><ele>1204.0</ele><time>2026-05-01T14:40:23.404Z</time></trkpt><trkpt lat="42.1713212" lon="13.632995"><ele>1204.0</ele><time>2026-05-01T14:40:28.46Z</time></trkpt><trkpt lat="42.1712599" lon="13.6329479"><ele>1204.0</ele><time>2026-05-01T14:40:35.499Z</time></trkpt><trkpt lat="42.1712325" lon="13.632865"><ele>1205.0</ele><time>2026-05-01T14:40:45.456Z</time></trkpt><trkpt lat="42.1712587" lon="13.6327791"><ele>1206.0</ele><time>2026-05-01T14:40:54.452Z</time></trkpt><trkpt lat="42.1712714" lon="13.6326905"><ele>1207.0</ele><time>2026-05-01T14:41:01.452Z</time></trkpt><trkpt lat="42.1712693" lon="13.6326011"><ele>1208.0</ele><time>2026-05-01T14:41:09.49Z</time></trkpt><trkpt lat="42.1712135" lon="13.6325448"><ele>1209.0</ele><time>2026-05-01T14:41:18.453Z</time></trkpt><trkpt lat="42.1711633" lon="13.6326068"><ele>1210.0</ele><time>2026-05-01T14:41:25.486Z</time></trkpt><trkpt lat="42.1711049" lon="13.6326427"><ele>1211.0</ele><time>2026-05-01T14:41:35.452Z</time></trkpt><trkpt lat="42.1710451" lon="13.6326848"><ele>1211.0</ele><time>2026-05-01T14:41:43.49Z</time></trkpt><trkpt lat="42.170984" lon="13.6327185"><ele>1211.0</ele><time>2026-05-01T14:41:52.448Z</time></trkpt><trkpt lat="42.1709149" lon="13.632739"><ele>1211.0</ele><time>2026-05-01T14:42:04.449Z</time></trkpt><trkpt lat="42.1708469" lon="13.6327544"><ele>1211.0</ele><time>2026-05-01T14:42:10.449Z</time></trkpt><trkpt lat="42.1707804" lon="13.6327708"><ele>1211.0</ele><time>2026-05-01T14:42:15.473Z</time></trkpt><trkpt lat="42.170745" lon="13.6328495"><ele>1211.0</ele><time>2026-05-01T14:42:26.447Z</time></trkpt><trkpt lat="42.1706941" lon="13.63291"><ele>1211.0</ele><time>2026-05-01T14:42:33.512Z</time></trkpt><trkpt lat="42.1706317" lon="13.6329433"><ele>1212.2857142857142</ele><time>2026-05-01T14:42:40.445Z</time></trkpt><trkpt lat="42.1705709" lon="13.6329763"><ele>1213.5714285714284</ele><time>2026-05-01T14:42:47.36Z</time></trkpt><trkpt lat="42.1704977" lon="13.6329806"><ele>1214.857142857143</ele><time>2026-05-01T14:42:54.496Z</time></trkpt><trkpt lat="42.170431" lon="13.6330091"><ele>1216.142857142857</ele><time>2026-05-01T14:43:01.448Z</time></trkpt><trkpt lat="42.1703677" lon="13.6330362"><ele>1217.4285714285713</ele><time>2026-05-01T14:43:07.507Z</time></trkpt><trkpt lat="42.1703161" lon="13.6330931"><ele>1218.7142857142858</ele><time>2026-05-01T14:43:14.45Z</time></trkpt><trkpt lat="42.1702532" lon="13.6331131"><ele>1220.0</ele><time>2026-05-01T14:43:22.456Z</time></trkpt><trkpt lat="42.1701823" lon="13.6331023"><ele>1220.0</ele><time>2026-05-01T14:43:30.492Z</time></trkpt><trkpt lat="42.1701205" lon="13.6331401"><ele>1220.0</ele><time>2026-05-01T14:43:36.446Z</time></trkpt><trkpt lat="42.1700601" lon="13.6331828"><ele>1220.0</ele><time>2026-05-01T14:43:48.505Z</time></trkpt><trkpt lat="42.1699888" lon="13.6331939"><ele>1220.0</ele><time>2026-05-01T14:43:54.406Z</time></trkpt><trkpt lat="42.1699239" lon="13.6331874"><ele>1220.0</ele><time>2026-05-01T14:44:00.475Z</time></trkpt><trkpt lat="42.1698607" lon="13.6331889"><ele>1220.0</ele><time>2026-05-01T14:44:06.485Z</time></trkpt><trkpt lat="42.1697949" lon="13.6332021"><ele>1220.0</ele><time>2026-05-01T14:44:13.448Z</time></trkpt><trkpt lat="42.1697321" lon="13.6332207"><ele>1218.7142857142858</ele><time>2026-05-01T14:44:20.49Z</time></trkpt><trkpt lat="42.1696609" lon="13.6332302"><ele>1217.4285714285713</ele><time>2026-05-01T14:44:27.376Z</time></trkpt><trkpt lat="42.169596" lon="13.6332547"><ele>1216.142857142857</ele><time>2026-05-01T14:44:34.445Z</time></trkpt><trkpt lat="42.1695263" lon="13.6332472"><ele>1214.857142857143</ele><time>2026-05-01T14:44:42.45Z</time></trkpt><trkpt lat="42.1694613" lon="13.6332505"><ele>1213.5714285714284</ele><time>2026-05-01T14:44:49.455Z</time></trkpt><trkpt lat="42.1693987" lon="13.633283"><ele>1212.2857142857142</ele><time>2026-05-01T14:44:57.501Z</time></trkpt><trkpt lat="42.1693364" lon="13.6333126"><ele>1211.0</ele><time>2026-05-01T14:45:05.454Z</time></trkpt><trkpt lat="42.1692646" lon="13.6333554"><ele>1211.0</ele><time>2026-05-01T14:45:22.449Z</time></trkpt><trkpt lat="42.169203" lon="13.6333792"><ele>1211.0</ele><time>2026-05-01T14:45:27.473Z</time></trkpt><trkpt lat="42.1691408" lon="13.633408"><ele>1211.0</ele><time>2026-05-01T14:45:33.415Z</time></trkpt><trkpt lat="42.1690837" lon="13.6334615"><ele>1211.0</ele><time>2026-05-01T14:45:40.45Z</time></trkpt><trkpt lat="42.1690206" lon="13.6334956"><ele>1211.0</ele><time>2026-05-01T14:45:46.481Z</time></trkpt><trkpt lat="42.1689546" lon="13.6334859"><ele>1211.0</ele><time>2026-05-01T14:45:52.449Z</time></trkpt><trkpt lat="42.1688886" lon="13.6334869"><ele>1211.0</ele><time>2026-05-01T14:45:58.45Z</time></trkpt><trkpt lat="42.1688216" lon="13.6334779"><ele>1210.7142857142858</ele><time>2026-05-01T14:46:04.45Z</time></trkpt><trkpt lat="42.1687495" lon="13.6334587"><ele>1210.4285714285716</ele><time>2026-05-01T14:46:11.512Z</time></trkpt><trkpt lat="42.1686864" lon="13.6334645"><ele>1210.142857142857</ele><time>2026-05-01T14:46:17.444Z</time></trkpt><trkpt lat="42.1686281" lon="13.6335004"><ele>1209.857142857143</ele><time>2026-05-01T14:46:23.493Z</time></trkpt><trkpt lat="42.1685599" lon="13.6335272"><ele>1209.5714285714287</ele><time>2026-05-01T14:46:30.448Z</time></trkpt><trkpt lat="42.1684862" lon="13.6335493"><ele>1209.2857142857142</ele><time>2026-05-01T14:46:37.469Z</time></trkpt><trkpt lat="42.1684264" lon="13.6335822"><ele>1209.0</ele><time>2026-05-01T14:46:43.448Z</time></trkpt><trkpt lat="42.1683574" lon="13.6335972"><ele>1209.0</ele><time>2026-05-01T14:46:49.448Z</time></trkpt><trkpt lat="42.1682844" lon="13.6335867"><ele>1209.0</ele><time>2026-05-01T14:46:56.482Z</time></trkpt><trkpt lat="42.1682167" lon="13.6336081"><ele>1209.0</ele><time>2026-05-01T14:47:02.452Z</time></trkpt><trkpt lat="42.1681552" lon="13.633651"><ele>1209.0</ele><time>2026-05-01T14:47:08.425Z</time></trkpt><trkpt lat="42.1680892" lon="13.6336591"><ele>1209.0</ele><time>2026-05-01T14:47:14.485Z</time></trkpt><trkpt lat="42.1680211" lon="13.6336831"><ele>1209.0</ele><time>2026-05-01T14:47:22.448Z</time></trkpt><trkpt lat="42.1679647" lon="13.6336367"><ele>1209.0</ele><time>2026-05-01T14:47:29.472Z</time></trkpt><trkpt lat="42.1679033" lon="13.6336158"><ele>1208.7142857142856</ele><time>2026-05-01T14:47:39.45Z</time></trkpt><trkpt lat="42.167865" lon="13.6336992"><ele>1208.4285714285716</ele><time>2026-05-01T14:47:45.41Z</time></trkpt><trkpt lat="42.1678125" lon="13.6337713"><ele>1208.142857142857</ele><time>2026-05-01T14:47:51.497Z</time></trkpt><trkpt lat="42.1677633" lon="13.6338396"><ele>1207.8571428571427</ele><time>2026-05-01T14:47:58.448Z</time></trkpt><trkpt lat="42.1677081" lon="13.6338912"><ele>1207.5714285714284</ele><time>2026-05-01T14:48:04.471Z</time></trkpt><trkpt lat="42.1676521" lon="13.6338518"><ele>1207.2857142857142</ele><time>2026-05-01T14:48:23.48Z</time></trkpt><trkpt lat="42.1675967" lon="13.6338958"><ele>1207.0</ele><time>2026-05-01T14:48:28.449Z</time></trkpt><trkpt lat="42.1675443" lon="13.6339481"><ele>1206.9999999999998</ele><time>2026-05-01T14:48:33.45Z</time></trkpt><trkpt lat="42.1674882" lon="13.6339973"><ele>1207.0</ele><time>2026-05-01T14:48:41.483Z</time></trkpt><trkpt lat="42.1674362" lon="13.6340487"><ele>1207.0</ele><time>2026-05-01T14:48:48.449Z</time></trkpt><trkpt lat="42.1673743" lon="13.6341007"><ele>1207.0</ele><time>2026-05-01T14:48:55.463Z</time></trkpt><trkpt lat="42.1673172" lon="13.6341504"><ele>1207.0</ele><time>2026-05-01T14:49:01.451Z</time></trkpt><trkpt lat="42.1672534" lon="13.634189"><ele>1206.9999999999998</ele><time>2026-05-01T14:49:08.472Z</time></trkpt><trkpt lat="42.1671907" lon="13.6342182"><ele>1207.0</ele><time>2026-05-01T14:49:14.367Z</time></trkpt><trkpt lat="42.1671358" lon="13.6342767"><ele>1206.9999999999998</ele><time>2026-05-01T14:49:22.451Z</time></trkpt><trkpt lat="42.1670769" lon="13.6343288"><ele>1207.0</ele><time>2026-05-01T14:49:29.432Z</time></trkpt><trkpt lat="42.167017" lon="13.6343653"><ele>1207.0</ele><time>2026-05-01T14:49:34.449Z</time></trkpt><trkpt lat="42.1669545" lon="13.6343995"><ele>1207.0</ele><time>2026-05-01T14:49:40.45Z</time></trkpt><trkpt lat="42.1669005" lon="13.6344443"><ele>1207.0</ele><time>2026-05-01T14:49:45.524Z</time></trkpt><trkpt lat="42.1668432" lon="13.6344975"><ele>1206.9999999999998</ele><time>2026-05-01T14:49:52.489Z</time></trkpt><trkpt lat="42.1667897" lon="13.6345522"><ele>1207.0</ele><time>2026-05-01T14:52:18.45Z</time></trkpt><trkpt lat="42.1667449" lon="13.6346144"><ele>1206.9999999999998</ele><time>2026-05-01T14:52:25.027Z</time></trkpt><trkpt lat="42.1666995" lon="13.6346933"><ele>1207.0</ele><time>2026-05-01T14:52:31.497Z</time></trkpt><trkpt lat="42.1666566" lon="13.6347704"><ele>1207.0</ele><time>2026-05-01T14:52:38.45Z</time></trkpt><trkpt lat="42.1666105" lon="13.6348484"><ele>1207.0</ele><time>2026-05-01T14:52:45.477Z</time></trkpt><trkpt lat="42.1665565" lon="13.6349072"><ele>1207.0</ele><time>2026-05-01T14:52:51.449Z</time></trkpt><trkpt lat="42.1665053" lon="13.6349767"><ele>1206.9999999999998</ele><time>2026-05-01T14:52:58.426Z</time></trkpt><trkpt lat="42.1664565" lon="13.6350375"><ele>1207.0</ele><time>2026-05-01T14:53:04.448Z</time></trkpt><trkpt lat="42.1663909" lon="13.635021"><ele>1206.9999999999998</ele><time>2026-05-01T14:53:13.446Z</time></trkpt><trkpt lat="42.1663356" lon="13.6350622"><ele>1207.0</ele><time>2026-05-01T14:53:20.477Z</time></trkpt><trkpt lat="42.1662882" lon="13.635132"><ele>1207.0</ele><time>2026-05-01T14:53:26.451Z</time></trkpt><trkpt lat="42.1662194" lon="13.6351595"><ele>1207.0</ele><time>2026-05-01T14:53:31.444Z</time></trkpt><trkpt lat="42.1661501" lon="13.6351486"><ele>1207.0</ele><time>2026-05-01T14:53:37.449Z</time></trkpt><trkpt lat="42.1660961" lon="13.6351927"><ele>1206.9999999999998</ele><time>2026-05-01T14:53:43.452Z</time></trkpt><trkpt lat="42.1660404" lon="13.6352576"><ele>1207.0</ele><time>2026-05-01T14:53:49.449Z</time></trkpt><trkpt lat="42.1660064" lon="13.6353303"><ele>1206.9999999999998</ele><time>2026-05-01T14:53:54.466Z</time></trkpt><trkpt lat="42.1659553" lon="13.635392"><ele>1207.0</ele><time>2026-05-01T14:54:00.493Z</time></trkpt><trkpt lat="42.1659233" lon="13.635472"><ele>1207.0</ele><time>2026-05-01T14:54:10.462Z</time></trkpt><trkpt lat="42.1658654" lon="13.6355234"><ele>1207.0</ele><time>2026-05-01T14:54:16.446Z</time></trkpt><trkpt lat="42.1657991" lon="13.6355638"><ele>1207.0</ele><time>2026-05-01T14:54:22.453Z</time></trkpt><trkpt lat="42.1657433" lon="13.6356171"><ele>1206.9999999999998</ele><time>2026-05-01T14:54:28.512Z</time></trkpt><trkpt lat="42.1656783" lon="13.6356629"><ele>1207.0</ele><time>2026-05-01T14:54:35.505Z</time></trkpt><trkpt lat="42.1656327" lon="13.6357297"><ele>1205.5714285714284</ele><time>2026-05-01T14:54:42.391Z</time></trkpt><trkpt lat="42.1655878" lon="13.6357952"><ele>1204.142857142857</ele><time>2026-05-01T14:54:50.491Z</time></trkpt><trkpt lat="42.1655325" lon="13.6358597"><ele>1202.7142857142858</ele><time>2026-05-01T14:54:58.448Z</time></trkpt><trkpt lat="42.1654731" lon="13.6359141"><ele>1201.2857142857142</ele><time>2026-05-01T14:55:05.477Z</time></trkpt><trkpt lat="42.1654218" lon="13.6359684"><ele>1199.857142857143</ele><time>2026-05-01T14:55:12.45Z</time></trkpt><trkpt lat="42.1653573" lon="13.6359957"><ele>1198.4285714285713</ele><time>2026-05-01T14:55:19.455Z</time></trkpt><trkpt lat="42.165298" lon="13.636041"><ele>1197.0</ele><time>2026-05-01T14:55:25.49Z</time></trkpt><trkpt lat="42.1652285" lon="13.6360728"><ele>1197.0</ele><time>2026-05-01T14:55:32.45Z</time></trkpt><trkpt lat="42.1651579" lon="13.6361046"><ele>1197.0</ele><time>2026-05-01T14:55:38.465Z</time></trkpt><trkpt lat="42.1650949" lon="13.6361471"><ele>1197.0</ele><time>2026-05-01T14:55:44.451Z</time></trkpt><trkpt lat="42.1650381" lon="13.6361872"><ele>1197.0</ele><time>2026-05-01T14:55:50.508Z</time></trkpt><trkpt lat="42.1649701" lon="13.6362002"><ele>1197.0</ele><time>2026-05-01T14:55:56.497Z</time></trkpt><trkpt lat="42.1649077" lon="13.6361585"><ele>1197.0</ele><time>2026-05-01T14:56:23.449Z</time></trkpt><trkpt lat="42.1648374" lon="13.6361442"><ele>1197.0</ele><time>2026-05-01T14:56:29.449Z</time></trkpt><trkpt lat="42.1647938" lon="13.6360708"><ele>1198.0</ele><time>2026-05-01T14:56:36.449Z</time></trkpt><trkpt lat="42.1647586" lon="13.63598"><ele>1199.0</ele><time>2026-05-01T14:56:42.451Z</time></trkpt><trkpt lat="42.1647498" lon="13.6358885"><ele>1200.0</ele><time>2026-05-01T14:56:48.462Z</time></trkpt><trkpt lat="42.1647632" lon="13.635794"><ele>1201.0</ele><time>2026-05-01T14:56:55.452Z</time></trkpt><trkpt lat="42.1647492" lon="13.6357029"><ele>1202.0</ele><time>2026-05-01T14:57:02.451Z</time></trkpt><trkpt lat="42.164725" lon="13.635622"><ele>1203.0</ele><time>2026-05-01T14:57:09.482Z</time></trkpt><trkpt lat="42.1647141" lon="13.6355345"><ele>1204.0</ele><time>2026-05-01T14:57:18.448Z</time></trkpt><trkpt lat="42.164654" lon="13.6354859"><ele>1204.0</ele><time>2026-05-01T14:57:27.414Z</time></trkpt><trkpt lat="42.1645882" lon="13.6355215"><ele>1204.0</ele><time>2026-05-01T14:58:47.507Z</time></trkpt><trkpt lat="42.1645182" lon="13.6355357"><ele>1204.0</ele><time>2026-05-01T14:58:54.451Z</time></trkpt><trkpt lat="42.1644884" lon="13.6354512"><ele>1204.0</ele><time>2026-05-01T14:59:01.452Z</time></trkpt><trkpt lat="42.1644392" lon="13.6353934"><ele>1204.0</ele><time>2026-05-01T14:59:08.491Z</time></trkpt><trkpt lat="42.1643882" lon="13.6353416"><ele>1204.0</ele><time>2026-05-01T14:59:14.454Z</time></trkpt><trkpt lat="42.164357" lon="13.6352533"><ele>1204.0</ele><time>2026-05-01T14:59:22.472Z</time></trkpt><trkpt lat="42.1643266" lon="13.6351701"><ele>1201.4285714285713</ele><time>2026-05-01T14:59:28.448Z</time></trkpt><trkpt lat="42.1642788" lon="13.6351116"><ele>1198.857142857143</ele><time>2026-05-01T14:59:34.508Z</time></trkpt><trkpt lat="42.1642263" lon="13.6350574"><ele>1196.2857142857142</ele><time>2026-05-01T14:59:40.452Z</time></trkpt><trkpt lat="42.164155" lon="13.6350466"><ele>1193.7142857142858</ele><time>2026-05-01T14:59:46.451Z</time></trkpt><trkpt lat="42.1640876" lon="13.6350718"><ele>1191.142857142857</ele><time>2026-05-01T14:59:53.452Z</time></trkpt><trkpt lat="42.1640195" lon="13.6350464"><ele>1188.5714285714284</ele><time>2026-05-01T15:00:02.451Z</time></trkpt><trkpt lat="42.1639519" lon="13.6350227"><ele>1186.0</ele><time>2026-05-01T15:00:10.493Z</time></trkpt><trkpt lat="42.1638926" lon="13.6349849"><ele>1185.9999999999998</ele><time>2026-05-01T15:00:18.497Z</time></trkpt><trkpt lat="42.1638992" lon="13.634886"><ele>1186.0</ele><time>2026-05-01T15:00:23.448Z</time></trkpt><trkpt lat="42.1639071" lon="13.6348015"><ele>1186.0</ele><time>2026-05-01T15:00:29.459Z</time></trkpt><trkpt lat="42.1638445" lon="13.634783"><ele>1186.0</ele><time>2026-05-01T15:00:35.429Z</time></trkpt><trkpt lat="42.163777" lon="13.6347935"><ele>1186.0</ele><time>2026-05-01T15:00:41.451Z</time></trkpt><trkpt lat="42.1637037" lon="13.6347868"><ele>1185.9999999999998</ele><time>2026-05-01T15:01:20.454Z</time></trkpt><trkpt lat="42.1636396" lon="13.6347878"><ele>1186.0</ele><time>2026-05-01T15:01:25.483Z</time></trkpt><trkpt lat="42.1635694" lon="13.6347975"><ele>1185.9999999999998</ele><time>2026-05-01T15:01:32.452Z</time></trkpt><trkpt lat="42.1635057" lon="13.6348116"><ele>1186.0</ele><time>2026-05-01T15:01:38.458Z</time></trkpt><trkpt lat="42.1634426" lon="13.6348159"><ele>1186.0</ele><time>2026-05-01T15:01:44.449Z</time></trkpt><trkpt lat="42.163378" lon="13.6348248"><ele>1186.0</ele><time>2026-05-01T15:01:50.211Z</time></trkpt><trkpt lat="42.1633109" lon="13.6348409"><ele>1186.0</ele><time>2026-05-01T15:01:56.462Z</time></trkpt><trkpt lat="42.1632466" lon="13.634826"><ele>1185.9999999999998</ele><time>2026-05-01T15:02:03.448Z</time></trkpt><trkpt lat="42.1631941" lon="13.6347606"><ele>1186.0</ele><time>2026-05-01T15:02:09.451Z</time></trkpt><trkpt lat="42.1631276" lon="13.6347261"><ele>1184.8571428571427</ele><time>2026-05-01T15:02:15.471Z</time></trkpt><trkpt lat="42.1630596" lon="13.6347524"><ele>1183.7142857142858</ele><time>2026-05-01T15:02:21.452Z</time></trkpt><trkpt lat="42.1630098" lon="13.6348127"><ele>1182.5714285714284</ele><time>2026-05-01T15:02:28.452Z</time></trkpt><trkpt lat="42.1629449" lon="13.6348019"><ele>1181.4285714285713</ele><time>2026-05-01T15:02:36.492Z</time></trkpt><trkpt lat="42.1628794" lon="13.6348083"><ele>1180.2857142857142</ele><time>2026-05-01T15:02:44.352Z</time></trkpt><trkpt lat="42.1628081" lon="13.6348152"><ele>1179.142857142857</ele><time>2026-05-01T15:02:53.505Z</time></trkpt><trkpt lat="42.1627554" lon="13.634881"><ele>1178.0</ele><time>2026-05-01T15:03:00.451Z</time></trkpt><trkpt lat="42.162691" lon="13.634902"><ele>1178.0</ele><time>2026-05-01T15:03:06.464Z</time></trkpt><trkpt lat="42.1626312" lon="13.6349393"><ele>1178.0</ele><time>2026-05-01T15:03:13.45Z</time></trkpt><trkpt lat="42.1625578" lon="13.6349515"><ele>1178.0</ele><time>2026-05-01T15:03:39.454Z</time></trkpt><trkpt lat="42.1624947" lon="13.6349775"><ele>1178.0</ele><time>2026-05-01T15:03:45.49Z</time></trkpt><trkpt lat="42.1624507" lon="13.6349089"><ele>1178.0</ele><time>2026-05-01T15:03:51.451Z</time></trkpt><trkpt lat="42.1624041" lon="13.6348458"><ele>1178.0</ele><time>2026-05-01T15:03:56.53Z</time></trkpt><trkpt lat="42.1623857" lon="13.6349348"><ele>1178.0</ele><time>2026-05-01T15:07:08.467Z</time></trkpt><trkpt lat="42.1623485" lon="13.6350036"><ele>1178.5714285714284</ele><time>2026-05-01T15:07:14.45Z</time></trkpt><trkpt lat="42.1623002" lon="13.635068"><ele>1179.142857142857</ele><time>2026-05-01T15:07:21.45Z</time></trkpt><trkpt lat="42.1622707" lon="13.6351458"><ele>1179.7142857142858</ele><time>2026-05-01T15:07:29.49Z</time></trkpt><trkpt lat="42.1622224" lon="13.6352027"><ele>1180.2857142857142</ele><time>2026-05-01T15:07:46.448Z</time></trkpt><trkpt lat="42.162167" lon="13.6352446"><ele>1180.857142857143</ele><time>2026-05-01T15:07:51.45Z</time></trkpt><trkpt lat="42.1621277" lon="13.635319"><ele>1181.4285714285713</ele><time>2026-05-01T15:07:57.452Z</time></trkpt><trkpt lat="42.1620882" lon="13.6353936"><ele>1182.0</ele><time>2026-05-01T15:08:04.453Z</time></trkpt><trkpt lat="42.1620615" lon="13.6354816"><ele>1180.857142857143</ele><time>2026-05-01T15:08:11.453Z</time></trkpt><trkpt lat="42.1620241" lon="13.6355587"><ele>1179.7142857142858</ele><time>2026-05-01T15:08:21.493Z</time></trkpt><trkpt lat="42.1620131" lon="13.6356479"><ele>1178.5714285714287</ele><time>2026-05-01T15:08:28.453Z</time></trkpt><trkpt lat="42.1619802" lon="13.6357377"><ele>1177.4285714285716</ele><time>2026-05-01T15:08:35.41Z</time></trkpt><trkpt lat="42.1619432" lon="13.6358092"><ele>1176.2857142857144</ele><time>2026-05-01T15:08:41.45Z</time></trkpt><trkpt lat="42.1619198" lon="13.6358973"><ele>1175.142857142857</ele><time>2026-05-01T15:08:49.532Z</time></trkpt><trkpt lat="42.1618831" lon="13.6359791"><ele>1174.0</ele><time>2026-05-01T15:08:56.492Z</time></trkpt><trkpt lat="42.1618231" lon="13.6360096"><ele>1174.0</ele><time>2026-05-01T15:09:42.452Z</time></trkpt><trkpt lat="42.1617924" lon="13.636091"><ele>1174.0</ele><time>2026-05-01T15:09:47.451Z</time></trkpt><trkpt lat="42.1617709" lon="13.6361731"><ele>1174.0</ele><time>2026-05-01T15:09:53.454Z</time></trkpt><trkpt lat="42.1617601" lon="13.6362679"><ele>1174.0</ele><time>2026-05-01T15:10:00.465Z</time></trkpt><trkpt lat="42.161823" lon="13.6363063"><ele>1174.0</ele><time>2026-05-01T15:10:06.5Z</time></trkpt><trkpt lat="42.1618046" lon="13.6363964"><ele>1174.0</ele><time>2026-05-01T15:10:14.451Z</time></trkpt><trkpt lat="42.1617987" lon="13.6364941"><ele>1174.0</ele><time>2026-05-01T15:10:23.432Z</time></trkpt><trkpt lat="42.1617924" lon="13.6365902"><ele>1173.5714285714287</ele><time>2026-05-01T15:10:32.457Z</time></trkpt><trkpt lat="42.1618006" lon="13.6366845"><ele>1173.1428571428573</ele><time>2026-05-01T15:10:39.491Z</time></trkpt><trkpt lat="42.1617786" lon="13.636769"><ele>1172.7142857142858</ele><time>2026-05-01T15:10:46.445Z</time></trkpt><trkpt lat="42.1617737" lon="13.6368543"><ele>1172.2857142857142</ele><time>2026-05-01T15:10:52.465Z</time></trkpt><trkpt lat="42.1617241" lon="13.6369087"><ele>1171.8571428571427</ele><time>2026-05-01T15:11:00.458Z</time></trkpt><trkpt lat="42.1616545" lon="13.6369311"><ele>1171.4285714285713</ele><time>2026-05-01T15:11:09.51Z</time></trkpt><trkpt lat="42.1616121" lon="13.6369999"><ele>1171.0</ele><time>2026-05-01T15:11:18.45Z</time></trkpt><trkpt lat="42.1615668" lon="13.6370643"><ele>1171.857142857143</ele><time>2026-05-01T15:11:26.461Z</time></trkpt><trkpt lat="42.1614987" lon="13.637078"><ele>1172.7142857142856</ele><time>2026-05-01T15:11:33.449Z</time></trkpt><trkpt lat="42.1614345" lon="13.6370419"><ele>1173.5714285714284</ele><time>2026-05-01T15:11:40.386Z</time></trkpt><trkpt lat="42.1613786" lon="13.6369927"><ele>1174.4285714285713</ele><time>2026-05-01T15:11:56.451Z</time></trkpt><trkpt lat="42.1613108" lon="13.6369628"><ele>1175.2857142857142</ele><time>2026-05-01T15:12:02.468Z</time></trkpt><trkpt lat="42.1612665" lon="13.6368987"><ele>1176.142857142857</ele><time>2026-05-01T15:12:08.448Z</time></trkpt><trkpt lat="42.1612293" lon="13.6368295"><ele>1177.0</ele><time>2026-05-01T15:12:13.507Z</time></trkpt><trkpt lat="42.1612137" lon="13.6367434"><ele>1177.0</ele><time>2026-05-01T15:12:19.466Z</time></trkpt><trkpt lat="42.1611962" lon="13.6366494"><ele>1177.0</ele><time>2026-05-01T15:12:26.452Z</time></trkpt><trkpt lat="42.1611642" lon="13.6365697"><ele>1177.0</ele><time>2026-05-01T15:13:21.465Z</time></trkpt><trkpt lat="42.161133" lon="13.6364881"><ele>1177.0</ele><time>2026-05-01T15:14:53.393Z</time></trkpt><trkpt lat="42.1611006" lon="13.636565"><ele>1177.0</ele><time>2026-05-01T15:15:03.448Z</time></trkpt><trkpt lat="42.1610318" lon="13.6366105"><ele>1177.0</ele><time>2026-05-01T15:15:09.509Z</time></trkpt><trkpt lat="42.1609651" lon="13.6366047"><ele>1177.0</ele><time>2026-05-01T15:15:15.448Z</time></trkpt><trkpt lat="42.1609036" lon="13.6365561"><ele>1177.0</ele><time>2026-05-01T15:15:21.45Z</time></trkpt><trkpt lat="42.1608424" lon="13.6365052"><ele>1177.0</ele><time>2026-05-01T15:15:28.474Z</time></trkpt><trkpt lat="42.160782" lon="13.6364801"><ele>1177.0</ele><time>2026-05-01T15:15:34.455Z</time></trkpt><trkpt lat="42.1607103" lon="13.636472"><ele>1177.0</ele><time>2026-05-01T15:15:42.505Z</time></trkpt><trkpt lat="42.1607176" lon="13.6365744"><ele>1177.0</ele><time>2026-05-01T15:16:04.483Z</time></trkpt><trkpt lat="42.160685" lon="13.6366693"><ele>1177.0</ele><time>2026-05-01T15:16:16.453Z</time></trkpt><trkpt lat="42.1606641" lon="13.6367505"><ele>1177.0</ele><time>2026-05-01T15:16:21.413Z</time></trkpt><trkpt lat="42.1606956" lon="13.6368311"><ele>1177.0</ele><time>2026-05-01T15:16:27.452Z</time></trkpt><trkpt lat="42.1607313" lon="13.6369092"><ele>1177.0</ele><time>2026-05-01T15:16:33.491Z</time></trkpt><trkpt lat="42.1607979" lon="13.6368938"><ele>1177.0</ele><time>2026-05-01T15:16:39.487Z</time></trkpt><trkpt lat="42.1608535" lon="13.6369672"><ele>1177.0</ele><time>2026-05-01T15:16:45.453Z</time></trkpt><trkpt lat="42.1608881" lon="13.6370411"><ele>1177.0</ele><time>2026-05-01T15:16:50.404Z</time></trkpt><trkpt lat="42.1609282" lon="13.6371084"><ele>1177.0</ele><time>2026-05-01T15:16:55.478Z</time></trkpt><trkpt lat="42.1609808" lon="13.6371665"><ele>1177.0</ele><time>2026-05-01T15:17:01.451Z</time></trkpt><trkpt lat="42.1610266" lon="13.6372366"><ele>1177.0</ele><time>2026-05-01T15:17:07.413Z</time></trkpt><trkpt lat="42.1609522" lon="13.6372103"><ele>1177.0</ele><time>2026-05-01T15:19:11.506Z</time></trkpt><trkpt lat="42.1609012" lon="13.6371585"><ele>1177.0</ele><time>2026-05-01T15:19:17.455Z</time></trkpt><trkpt lat="42.1608467" lon="13.6370985"><ele>1177.0</ele><time>2026-05-01T15:19:24.451Z</time></trkpt><trkpt lat="42.160799" lon="13.6370359"><ele>1177.0</ele><time>2026-05-01T15:19:30.394Z</time></trkpt><trkpt lat="42.1607575" lon="13.6369654"><ele>1177.0</ele><time>2026-05-01T15:19:36.452Z</time></trkpt><trkpt lat="42.1607278" lon="13.6368871"><ele>1177.0</ele><time>2026-05-01T15:19:42.45Z</time></trkpt><trkpt lat="42.1607047" lon="13.6367994"><ele>1180.5714285714287</ele><time>2026-05-01T15:19:48.482Z</time></trkpt><trkpt lat="42.1606829" lon="13.636706"><ele>1184.142857142857</ele><time>2026-05-01T15:19:54.516Z</time></trkpt><trkpt lat="42.1606717" lon="13.6366211"><ele>1187.7142857142858</ele><time>2026-05-01T15:19:59.45Z</time></trkpt><trkpt lat="42.160657" lon="13.6365367"><ele>1191.2857142857142</ele><time>2026-05-01T15:20:04.491Z</time></trkpt><trkpt lat="42.1606407" lon="13.6364473"><ele>1194.857142857143</ele><time>2026-05-01T15:20:10.456Z</time></trkpt><trkpt lat="42.1605987" lon="13.6363704"><ele>1198.4285714285713</ele><time>2026-05-01T15:20:16.453Z</time></trkpt><trkpt lat="42.1605547" lon="13.6362984"><ele>1202.0</ele><time>2026-05-01T15:20:22.476Z</time></trkpt><trkpt lat="42.1605162" lon="13.6362265"><ele>1202.0</ele><time>2026-05-01T15:20:29.41Z</time></trkpt></trkseg></trk></gpx>